[[{"header":{"parameterUnit":"m.s-1","parameterCategory":1,"la1":31.0,"la2":29.5877,"lo1":-88.7671,"lo2":-86.6584,"dy":0.0162,"dx":0.0185,"nx":115,"ny":88,"refTime":"2023-10-09T06:00:00:Z","depth":0,"parameterNumber":2,"parameterNumberName":"U-component_of_WINDS"},"data":[0.0,0.0,0.0,0.0,0.0,0.0,0.0,0.0,0.0,0.0,0.0,0.0,0.0,0.0,0.0,0.0,0.0,0.0,0.0,0.0,0.0,0.0,0.0,0.0,0.0,0.0,0.0,0.0,0.0,0.0,0.0,0.0,0.0,0.0,0.0,0.0,0.0,0.0,0.0,0.0,0.0,0.0,0.0,0.0,0.0,0.0,0.0,0.0,0.0,0.0,0.0,0.0,0.0,0.0,0.0,0.0,0.0,0.0,0.0,0.0,0.0,0.0,0.0,0.0,0.0,0.0,0.0,0.0,0.0,0.0,0.0,0.0,0.0,0.0,0.0,0.0,0.0,0.0,0.0,0.0,0.0,0.0,0.0,0.0,0.0,0.0,0.0,0.0,0.0,0.0,0.0,0.0,0.0,0.0,0.0,0.0,0.0,0.0,0.0,0.0,0.0,0.0,0.0,0.0,0.0,0.0,0.0,0.0,0.0,0.0,0.0,0.0,0.0,0.0,0.0,0.0,0.0,0.0,0.0,0.0,0.0,0.0,0.0,0.0,0.0,0.0,0.0,0.0,0.0,0.0,0.0,0.0,0.0,0.0,0.0,0.0,0.0,0.0,0.0,0.0,0.0,0.0,0.0,0.0,0.0,0.0,0.0,0.0,0.0,0.0,0.0,0.0,0.0,0.0,0.0,0.0,0.0,0.0,0.0,0.0,0.0,0.0,0.0,0.0,0.0,0.0,0.0,0.0,0.0,0.0,0.0,0.0,0.0,0.0,0.0,0.0,0.0,0.0,0.0,0.0,0.0,0.0,0.0,0.0,0.0,0.0,0.0,0.0,0.0,0.0,0.0,0.0,0.0,0.0,0.0,0.0,0.0,0.0,0.0,0.0,0.0,0.0,0.0,0.0,0.0,0.0,0.0,0.0,0.0,0.0,0.0,0.0,0.0,0.0,0.0,0.0,0.0,0.0,0.0,0.0,0.0,0.0,0.0,0.0,0.0,0.0,0.0,0.0,0.0,0.0,0.0,0.0,0.0,0.0,0.0,0.0,0.0,0.0,0.0,0.0,0.0,0.0,0.0,0.0,0.0,0.0,0.0,0.0,0.0,0.0,0.0,0.0,0.0,0.0,0.0,0.0,0.0,0.0,0.0,0.0,0.0,0.0,0.0,0.0,0.0,0.0,0.0,0.0,0.0,0.0,0.0,0.0,0.0,0.0,0.0,0.0,0.0,0.0,0.0,0.0,0.0,0.0,0.0,0.0,0.0,0.0,0.0,0.0,0.0,0.0,0.0,0.0,0.0,0.0,0.0,0.0,0.0,0.0,0.0,0.0,0.0,0.0,0.0,0.0,0.0,0.0,0.0,0.0,0.0,0.0,0.0,0.0,0.0,0.0,0.0,0.0,0.0,0.0,0.0,0.0,0.0,0.0,0.0,0.0,0.0,0.0,0.0,0.0,0.0,0.0,0.0,0.0,0.0,0.0,0.0,0.0,0.0,0.0,0.0,0.0,0.0,0.0,0.0,0.0,0.0,0.0,0.0,0.0,0.0,0.0,0.0,0.0,0.0,0.0,0.0,0.0,0.0,0.0,0.0,0.0,0.0,0.0,0.0,0.0,0.0,0.0,0.0,0.0,0.0,0.0,0.0,0.0,0.0,0.0,0.0,0.0,0.0,0.0,0.0,0.0,0.0,0.0,0.0,0.0,0.0,0.0,0.0,0.0,0.0,0.0,0.0,0.0,0.0,0.0,0.0,0.0,0.0,0.0,0.0,0.0,0.0,0.0,0.0,0.0,0.0,0.0,0.0,0.0,0.0,0.0,0.0,0.0,0.0,0.0,0.0,0.0,0.0,0.0,0.0,0.0,0.0,0.0,0.0,0.0,0.0,0.0,0.0,0.0,0.0,0.0,0.0,0.0,0.0,0.0,0.0,0.0,0.0,0.0,0.0,0.0,0.0,0.0,0.0,0.0,0.0,0.0,0.0,0.0,0.0,0.0,0.0,0.0,0.0,0.0,0.0,0.0,0.0,0.0,0.0,0.0,0.0,0.0,0.0,0.0,0.0,0.0,0.0,0.0,0.0,0.0,0.0,0.0,0.0,0.0,0.0,0.0,0.0,0.0,0.0,0.0,0.0,0.0,0.0,0.0,0.0,0.0,0.0,0.0,0.0,0.0,0.0,0.0,0.0,0.0,0.0,0.0,0.0,0.0,0.0,0.0,0.0,0.0,0.0,0.0,0.0,0.0,0.0,0.0,0.0,0.0,0.0,0.0,0.0,0.0,0.0,0.0,0.0,0.0,0.0,0.0,0.0,0.0,0.0,0.0,0.0,0.0,0.0,0.0,0.0,0.0,0.0,0.0,0.0,0.0,0.0,0.0,0.0,0.0,0.0,0.0,0.0,0.0,0.0,0.0,0.0,0.0,0.0,0.0,0.0,0.0,0.0,0.0,0.0,0.0,0.0,0.0,0.0,0.0,0.0,0.0,0.0,0.0,0.0,0.0,0.0,0.0,0.0,0.0,0.0,0.0,0.0,0.0,0.0,0.0,0.0,0.0,0.0,0.0,0.0,0.0,0.0,0.0,0.0,0.0,0.0,0.0,0.0,0.0,0.0,0.0,0.0,0.0,0.0,0.0,0.0,0.0,0.0,0.0,0.0,0.0,0.0,0.0,0.0,0.0,0.0,0.0,0.0,0.0,0.0,0.0,0.0,0.0,0.0,0.0,0.0,0.0,0.0,0.0,0.0,0.0,0.0,0.0,0.0,0.0,0.0,0.0,0.0,0.0,0.0,0.0,0.0,0.0,0.0,0.0,0.0,0.0,0.0,0.0,0.0,0.0,0.0,0.0,0.0,0.0,0.0,0.0,0.0,0.0,0.0,0.0,0.0,0.0,0.0,0.0,0.0,0.0,0.0,0.0,0.0,0.0,0.0,0.0,0.0,0.0,0.0,0.0,0.0,0.0,0.0,0.0,0.0,0.0,0.0,0.0,0.0,0.0,0.0,0.0,0.0,0.0,0.0,0.0,0.0,0.0,0.0,0.0,0.0,0.0,0.0,0.0,0.0,0.0,0.0,0.0,0.0,0.0,0.0,0.0,0.0,0.0,0.0,0.0,0.0,0.0,0.0,0.0,0.0,0.0,0.0,0.0,0.0,0.0,0.0,0.0,0.0,0.0,0.0,0.0,0.0,0.0,0.0,0.0,0.0,0.0,0.0,0.0,0.0,0.0,0.0,0.0,0.0,0.0,0.0,0.0,0.0,0.0,0.0,0.0,0.0,0.0,0.0,0.0,0.0,0.0,0.0,0.0,0.0,0.0,0.0,0.0,0.0,0.0,0.0,0.0,0.0,0.0,0.0,0.0,0.0,0.0,0.0,0.0,0.0,0.0,0.0,0.0,0.0,0.0,0.0,0.0,0.0,0.0,0.0,0.0,0.0,0.0,0.0,0.0,0.0,0.0,0.0,0.0,0.0,0.0,0.0,0.0,0.0,0.0,0.0,0.0,0.0,0.0,0.0,0.0,0.0,0.0,0.0,0.0,0.0,0.0,0.0,0.0,0.0,0.0,0.0,0.0,0.0,0.0,0.0,0.0,0.0,0.0,0.0,0.0,0.0,0.0,0.0,0.0,0.0,0.0,0.0,0.0,0.0,0.0,0.0,0.0,0.0,0.0,0.0,0.0,0.0,0.0,0.0,0.0,0.0,0.0,0.0,0.0,0.0,0.0,0.0,0.0,0.0,0.0,0.0,0.0,0.0,0.0,0.0,0.0,0.0,0.0,0.0,0.0,0.0,0.0,0.0,0.0,0.0,0.0,0.0,0.0,0.0,0.0,0.0,0.0,0.0,0.0,0.0,0.0,0.0,0.0,0.0,0.0,0.0,0.0,0.0,0.0,0.0,0.0,0.0,0.0,0.0,0.0,0.0,0.0,0.0,0.0,0.0,0.0,0.0,0.0,0.0,0.0,0.0,0.0,0.0,0.0,0.0,0.0,0.0,0.0,0.0,0.0,0.0,0.0,0.0,0.0,0.0,0.0,0.0,0.0,0.0,0.0,0.0,0.0,0.0,0.0,0.0,0.0,0.0,0.0,0.0,0.0,0.0,0.0,0.0,0.0,0.0,0.0,0.0,0.0,0.0,0.0,0.0,0.0,0.0,0.0,0.0,0.0,0.0,0.0,0.0,0.0,0.0,0.0,0.0,0.0,0.0,0.0,0.0,0.0,0.0,0.0,0.0,0.0,0.0,0.0,0.0,0.0,0.0,0.0,0.0,0.0,0.0,0.0,1.7732,0.0,0.0,0.0,0.0,0.0,0.0,0.0,0.0,0.0,0.0,0.0,0.0,0.0,0.0,0.0,0.0,0.0,0.0,0.0,0.0,0.0,0.0,0.0,0.0,0.0,0.0,0.0,0.0,0.0,0.0,0.0,0.0,0.0,0.0,0.0,0.0,0.0,0.0,0.0,0.0,0.0,0.0,0.0,0.0,0.0,0.0,0.0,0.0,0.0,0.0,0.0,0.0,0.0,0.0,0.0,0.0,0.0,0.0,0.0,0.0,0.0,0.0,0.0,0.0,0.0,0.0,0.0,0.0,0.0,0.0,0.0,0.0,0.0,0.0,0.0,0.0,0.0,0.0,0.0,0.0,0.0,0.0,0.0,0.0,0.0,0.0,0.0,0.0,0.0,0.0,0.0,0.0,0.0,0.0,0.0,0.0,0.0,0.0,0.0,0.0,0.0,0.0,0.0,0.0,0.0,0.0,0.0,0.0,0.0,0.0,1.8964,1.8789,1.8642,1.8346,1.7875,0.0,0.0,0.0,0.0,0.0,0.0,0.0,0.0,0.0,0.0,0.0,0.0,0.0,0.0,0.0,0.0,0.0,0.0,0.0,0.0,0.0,0.0,0.0,0.0,0.0,0.0,0.0,0.0,0.0,0.0,0.0,0.0,0.0,0.0,0.0,0.0,0.0,0.0,0.0,0.0,0.0,0.0,0.0,0.0,0.0,0.0,0.0,0.0,0.0,0.0,0.0,0.0,0.0,0.0,0.0,0.0,0.0,0.0,0.0,0.0,0.0,0.0,0.0,0.0,0.0,0.0,0.0,0.0,0.0,0.0,0.0,0.0,0.0,0.0,0.0,0.0,0.0,0.0,0.0,0.0,0.0,0.0,0.0,0.0,0.0,0.0,0.0,0.0,0.0,0.0,0.0,0.0,0.0,0.0,0.0,0.0,0.0,0.0,0.0,0.0,0.0,0.0,0.0,0.0,0.0,0.0,0.0,0.0,0.0,0.0,0.0,0.0,1.8906,1.8637,1.8038,0.0,0.0,0.0,0.0,0.0,0.0,0.0,0.0,0.0,0.0,0.0,0.0,0.0,0.0,0.0,0.0,0.0,0.0,0.0,0.0,0.0,0.0,0.0,0.0,0.0,0.0,0.0,0.0,0.0,0.0,0.0,0.0,0.0,0.0,0.0,0.0,0.0,0.0,0.0,0.0,0.0,0.0,0.0,0.0,0.0,0.0,0.0,0.0,0.0,0.0,0.0,0.0,0.0,0.0,0.0,0.0,0.0,0.0,0.0,0.0,0.0,0.0,0.0,0.0,0.0,0.0,0.0,0.0,0.0,0.0,0.0,0.0,0.0,0.0,0.0,0.0,0.0,0.0,0.0,0.0,0.0,0.0,0.0,0.0,0.0,0.0,0.0,0.0,0.0,0.0,0.0,0.0,0.0,0.0,0.0,0.0,0.0,0.0,0.0,0.0,0.0,0.0,0.0,0.0,0.0,0.0,0.0,0.0,0.0,0.0,1.9257,1.928,1.9228,0.0,1.839,0.0,0.0,0.0,0.0,0.0,0.0,0.0,0.0,0.0,0.0,0.0,0.0,0.0,0.0,0.0,0.0,0.0,0.0,0.0,0.0,0.0,0.0,0.0,0.0,0.0,0.0,0.0,0.0,0.0,0.0,0.0,0.0,0.0,0.0,0.0,0.0,0.0,0.0,0.0,0.0,0.0,0.0,0.0,0.0,0.0,0.0,0.0,0.0,0.0,0.0,0.0,0.0,0.0,0.0,0.0,0.0,0.0,0.0,0.0,0.0,0.0,0.0,0.0,0.0,0.0,0.0,0.0,0.0,0.0,0.0,0.0,0.0,0.0,0.0,0.0,0.0,0.0,0.0,0.0,0.0,0.0,0.0,0.0,0.0,0.0,0.0,0.0,0.0,0.0,0.0,0.0,0.0,0.0,0.0,0.0,0.0,0.0,0.0,0.0,0.0,0.0,0.0,0.0,0.0,0.0,0.0,0.0,0.0,0.0,0.0,1.9272,1.9272,1.9272,1.9011,0.0,0.0,0.0,0.0,0.0,0.0,0.0,0.0,0.0,0.0,0.0,0.0,0.0,0.0,0.0,0.0,0.0,0.0,0.0,0.0,0.0,0.0,0.0,0.0,0.0,0.0,0.0,0.0,0.0,0.0,0.0,0.0,0.0,0.0,0.0,0.0,0.0,0.0,0.0,0.0,0.0,0.0,0.0,0.0,0.0,0.0,0.0,0.0,0.0,0.0,0.0,0.0,0.0,0.0,0.0,0.0,0.0,0.0,0.0,0.0,0.0,0.0,0.0,0.0,0.0,0.0,0.0,0.0,0.0,0.0,0.0,0.0,0.0,0.0,0.0,0.0,0.0,0.0,0.0,0.0,0.0,0.0,0.0,0.0,0.0,0.0,0.0,0.0,0.0,0.0,0.0,0.0,0.0,0.0,0.0,0.0,0.0,0.0,0.0,0.0,0.0,0.0,0.0,0.0,0.0,0.0,0.0,0.0,0.0,0.0,1.9272,1.9272,1.9272,1.9272,1.9011,1.8422,0.0,0.0,0.0,0.0,0.0,0.0,0.0,0.0,0.0,0.0,0.0,0.0,0.0,0.0,0.0,0.0,0.0,0.0,0.0,0.0,0.0,0.0,0.0,0.0,0.0,0.0,0.0,0.0,0.0,0.0,0.0,0.0,0.0,0.0,0.0,0.0,0.0,0.0,0.0,0.0,0.0,0.0,0.0,0.0,0.0,0.0,0.0,0.0,0.0,0.0,0.0,0.0,0.0,0.0,0.0,0.0,0.0,0.0,0.0,0.0,0.0,0.0,0.0,0.0,0.0,0.0,0.0,0.0,0.0,0.0,0.0,0.0,0.0,0.0,0.0,0.0,0.0,0.0,0.0,0.0,0.0,0.0,0.0,0.0,0.0,0.0,0.0,0.0,0.0,0.0,0.0,0.0,0.0,0.0,0.0,0.0,0.0,0.0,0.0,0.0,0.0,0.0,0.0,0.0,0.0,0.0,0.0,0.0,1.9272,1.9272,1.9272,1.9272,1.9272,1.9011,0.0,0.0,0.0,0.0,0.0,0.0,0.0,0.0,0.0,0.0,0.0,0.0,0.0,0.0,0.0,0.0,0.0,0.0,0.0,0.0,0.0,0.0,0.0,0.0,0.0,0.0,0.0,0.0,0.0,0.0,0.0,0.0,0.0,0.0,0.0,0.0,0.0,0.0,0.0,0.0,0.0,0.0,0.0,0.0,0.0,0.0,0.0,0.0,0.0,0.0,0.0,0.0,0.0,0.0,0.0,0.0,0.0,0.0,0.0,0.0,0.0,0.0,0.0,0.0,0.0,0.0,0.0,0.0,0.0,0.0,0.0,0.0,0.0,0.0,0.0,0.0,0.0,0.0,0.0,0.0,0.0,0.0,0.0,0.0,0.0,0.0,0.0,0.0,0.0,0.0,0.0,0.0,0.0,0.0,0.0,0.0,0.0,0.0,0.0,0.0,0.0,0.0,0.0,0.0,0.0,0.0,0.0,0.0,0.0,1.9272,1.9272,1.9272,1.9272,1.913,1.8855,0.0,0.0,0.0,0.0,0.0,0.0,0.0,0.0,0.0,0.0,0.0,0.0,0.0,0.0,0.0,0.0,0.0,0.0,0.0,0.0,0.0,0.0,0.0,0.0,0.0,0.0,0.0,0.0,0.0,0.0,0.0,0.0,0.0,0.0,0.0,0.0,0.0,0.0,0.0,0.0,0.0,0.0,0.0,0.0,0.0,0.0,0.0,0.0,0.0,0.0,0.0,0.0,0.0,0.0,0.0,0.0,0.0,0.0,0.0,0.0,0.0,0.0,0.0,0.0,0.0,0.0,0.0,0.0,0.0,0.0,0.0,0.0,0.0,0.0,0.0,0.0,0.0,0.0,0.0,0.0,0.0,0.0,0.0,0.0,0.0,0.0,0.0,0.0,0.0,0.0,0.0,0.0,0.0,0.0,0.0,0.0,0.0,0.0,0.0,0.0,0.0,0.0,0.0,0.0,0.0,0.0,0.0,0.0,0.0,1.9272,0.0,1.9272,1.9272,1.9026,1.8712,0.0,0.0,0.0,0.0,0.0,0.0,0.0,0.0,0.0,0.0,0.0,0.0,0.0,0.0,0.0,0.0,0.0,0.0,0.0,0.0,0.0,0.0,0.0,0.0,0.0,0.0,0.0,0.0,0.0,0.0,0.0,0.0,0.0,0.0,0.0,0.0,0.0,0.0,0.0,0.0,0.0,0.0,0.0,0.0,0.0,0.0,0.0,0.0,0.0,0.0,0.0,0.0,0.0,0.0,0.0,0.0,0.0,0.0,0.0,0.0,0.0,0.0,0.0,0.0,0.0,0.0,0.0,0.0,0.0,0.0,0.0,0.0,0.0,0.0,0.0,0.0,0.0,0.0,0.0,0.0,0.0,0.0,0.0,0.0,0.0,0.0,0.0,0.0,0.0,0.0,0.0,0.0,0.0,0.0,0.0,0.0,0.0,0.0,0.0,0.0,0.0,0.0,0.0,0.0,0.0,0.0,0.0,0.0,1.9286,1.9301,1.9353,1.9316,1.9286,1.9055,1.8622,0.0,0.0,0.0,0.0,0.0,0.0,0.0,0.0,0.0,0.0,0.0,0.0,0.0,0.0,0.0,0.0,0.0,0.0,0.0,0.0,0.0,0.0,0.0,0.0,0.0,0.0,0.0,0.0,0.0,0.0,0.0,0.0,0.0,0.0,0.0,0.0,0.0,0.0,0.0,0.0,0.0,0.0,0.0,0.0,0.0,0.0,0.0,0.0,0.0,0.0,0.0,0.0,0.0,0.0,0.0,0.0,0.0,0.0,0.0,0.0,0.0,0.0,0.0,0.0,0.0,0.0,0.0,0.0,0.0,0.0,0.0,0.0,0.0,0.0,0.0,0.0,0.0,0.0,0.0,0.0,0.0,0.0,0.0,0.0,0.0,0.0,0.0,0.0,0.0,0.0,0.0,0.0,0.0,0.0,0.0,0.0,0.0,0.0,0.0,0.0,0.0,0.0,0.0,0.0,0.0,0.0,0.0,0.0,0.0,1.993,1.9945,1.9945,1.9876,1.9245,1.8705,0.0,0.0,0.0,0.0,0.0,0.0,0.0,0.0,0.0,0.0,0.0,0.0,0.0,0.0,0.0,0.0,0.0,0.0,0.0,0.0,0.0,0.0,0.0,0.0,0.0,0.0,0.0,0.0,0.0,0.0,0.0,0.0,0.0,0.0,0.0,0.0,0.0,0.0,0.0,0.0,0.0,0.0,0.0,0.0,0.0,0.0,0.0,0.0,0.0,0.0,0.0,0.0,0.0,0.0,0.0,0.0,0.0,0.0,0.0,0.0,0.0,0.0,0.0,0.0,0.0,0.0,0.0,0.0,0.0,0.0,0.0,0.0,0.0,0.0,0.0,0.0,0.0,0.0,0.0,0.0,0.0,0.0,0.0,0.0,0.0,0.0,0.0,0.0,0.0,0.0,0.0,0.0,0.0,0.0,0.0,0.0,0.0,0.0,0.0,0.0,0.0,0.0,0.0,0.0,0.0,0.0,0.0,0.0,0.0,2.0525,2.0317,2.0183,2.0073,1.9328,1.8632,1.8144,0.0,0.0,0.0,0.0,0.0,0.0,0.0,0.0,0.0,0.0,0.0,0.0,0.0,0.0,0.0,0.0,0.0,0.0,0.0,0.0,0.0,0.0,0.0,0.0,0.0,0.0,0.0,0.0,0.0,0.0,0.0,0.0,0.0,0.0,0.0,0.0,0.0,0.0,0.0,0.0,0.0,0.0,0.0,0.0,0.0,0.0,0.0,0.0,0.0,0.0,0.0,0.0,0.0,0.0,0.0,0.0,0.0,0.0,0.0,0.0,0.0,0.0,0.0,0.0,0.0,0.0,0.0,0.0,0.0,0.0,0.0,0.0,0.0,0.0,0.0,0.0,0.0,0.0,0.0,0.0,0.0,0.0,0.0,0.0,0.0,0.0,0.0,0.0,0.0,0.0,0.0,0.0,0.0,0.0,0.0,0.0,0.0,0.0,0.0,0.0,0.0,0.0,0.0,0.0,0.0,0.0,0.0,0.0,2.1215,2.057,2.0108,1.9888,1.9278,1.8494,0.0,0.0,0.0,0.0,0.0,0.0,0.0,0.0,0.0,0.0,0.0,0.0,0.0,0.0,0.0,0.0,0.0,0.0,0.0,0.0,0.0,0.0,0.0,0.0,0.0,0.0,0.0,0.0,0.0,0.0,0.0,0.0,0.0,0.0,0.0,0.0,0.0,0.0,0.0,0.0,0.0,0.0,0.0,0.0,0.0,0.0,0.0,0.0,0.0,0.0,0.0,0.0,0.0,0.0,0.0,0.0,0.0,0.0,0.0,0.0,0.0,0.0,0.0,0.0,0.0,0.0,0.0,0.0,0.0,0.0,0.0,0.0,0.0,0.0,0.0,0.0,0.0,0.0,0.0,0.0,0.0,0.0,0.0,0.0,0.0,0.0,0.0,0.0,0.0,0.0,0.0,0.0,0.0,0.0,0.0,0.0,0.0,0.0,0.0,0.0,0.0,0.0,0.0,0.0,0.0,0.0,0.0,0.0,0.0,2.1423,2.1046,2.063,2.041,1.9635,1.8735,0.0,0.0,0.0,0.0,0.0,0.0,0.0,0.0,0.0,0.0,0.0,0.0,0.0,0.0,0.0,0.0,0.0,0.0,0.0,0.0,0.0,0.0,0.0,0.0,0.0,0.0,0.0,0.0,0.0,0.0,0.0,0.0,0.0,0.0,0.0,0.0,0.0,0.0,0.0,0.0,0.0,0.0,0.0,0.0,0.0,0.0,0.0,0.0,0.0,0.0,0.0,0.0,0.0,0.0,0.0,0.0,0.0,0.0,0.0,0.0,0.0,0.0,0.0,0.0,0.0,0.0,0.0,0.0,0.0,0.0,0.0,0.0,0.0,0.0,0.0,0.0,0.0,0.0,0.0,0.0,0.0,0.0,0.0,0.0,0.0,0.0,0.0,0.0,0.0,0.0,0.0,0.0,0.0,0.0,0.0,0.0,0.0,0.0,0.0,0.0,0.0,0.0,0.0,0.0,0.0,0.0,0.0,0.0,2.0335,2.114,2.1145,2.0869,2.0269,1.9598,1.8771,0.0,0.0,0.0,0.0,0.0,0.0,0.0,0.0,0.0,0.0,0.0,0.0,0.0,0.0,0.0,0.0,0.0,0.0,0.0,0.0,0.0,0.0,0.0,0.0,0.0,0.0,0.0,0.0,0.0,0.0,0.0,0.0,0.0,0.0,0.0,0.0,0.0,0.0,0.0,0.0,0.0,0.0,0.0,0.0,0.0,0.0,0.0,0.0,0.0,0.0,0.0,0.0,0.0,0.0,0.0,0.0,0.0,0.0,0.0,0.0,0.0,0.0,0.0,0.0,0.0,0.0,0.0,0.0,0.0,0.0,0.0,0.0,0.0,0.0,0.0,0.0,0.0,0.0,0.0,0.0,0.0,0.0,0.0,0.0,0.0,0.0,0.0,0.0,0.0,0.0,0.0,0.0,0.0,0.0,0.0,0.0,0.0,0.0,0.0,0.0,0.0,0.0,0.0,0.0,0.0,0.0,0.0,0.0,2.0142,2.0477,2.1005,2.0809,1.9874,1.9337,1.8606,0.0,0.0,0.0,0.0,0.0,0.0,0.0,0.0,0.0,0.0,0.0,0.0,0.0,0.0,0.0,0.0,0.0,0.0,0.0,0.0,0.0,0.0,0.0,0.0,0.0,0.0,0.0,0.0,0.0,0.0,0.0,0.0,0.0,0.0,0.0,0.0,0.0,0.0,0.0,0.0,0.0,0.0,0.0,0.0,0.0,0.0,0.0,0.0,0.0,0.0,0.0,0.0,0.0,0.0,0.0,0.0,0.0,0.0,0.0,0.0,0.0,0.0,0.0,0.0,0.0,0.0,0.0,0.0,0.0,0.0,0.0,0.0,0.0,0.0,0.0,0.0,0.0,0.0,0.0,0.0,0.0,0.0,0.0,0.0,0.0,0.0,0.0,0.0,0.0,0.0,0.0,0.0,0.0,0.0,0.0,0.0,0.0,0.0,0.0,0.0,0.0,0.0,0.0,0.0,0.0,0.0,0.0,0.0,1.9326,2.027,2.0247,2.0221,2.0014,1.9453,1.8554,0.0,0.0,0.0,0.0,0.0,0.0,0.0,0.0,0.0,0.0,0.0,0.0,0.0,0.0,0.0,0.0,0.0,0.0,0.0,0.0,0.0,0.0,0.0,0.0,0.0,0.0,0.0,0.0,0.0,0.0,0.0,0.0,0.0,0.0,0.0,0.0,0.0,0.0,0.0,0.0,0.0,0.0,0.0,0.0,0.0,0.0,0.0,0.0,0.7421,0.0,0.0,0.0,0.0,0.0,0.0,0.0,0.0,0.0,0.0,0.0,0.0,0.0,0.0,0.0,0.0,0.0,0.0,0.0,0.0,0.0,0.0,0.0,0.0,0.0,0.0,0.0,0.0,0.0,0.0,0.0,0.0,0.0,0.0,0.0,0.0,0.0,0.0,0.0,0.0,0.0,0.0,0.0,0.0,0.0,0.0,0.0,0.0,0.0,0.0,0.0,0.0,0.0,0.0,0.0,0.0,0.0,0.0,0.0,1.8792,1.9818,1.9947,1.9876,1.9712,1.9049,1.8145,0.0,0.0,0.0,0.0,0.0,0.0,0.0,0.0,0.0,0.0,0.0,0.0,0.0,0.0,0.0,0.0,0.0,0.0,0.0,0.0,0.0,0.0,0.0,0.0,0.0,0.0,0.0,0.0,0.0,0.0,0.0,0.0,0.0,0.0,0.0,0.0,0.0,0.0,0.0,0.0,0.0,0.0,0.0,0.0,0.0,0.0,0.0,0.0,0.0,0.0,0.0,0.0,0.0,0.0,0.0,0.0,0.0,0.0,0.0,0.0,0.0,0.0,0.0,0.0,0.0,0.0,0.0,0.0,0.0,0.0,0.0,0.0,0.0,0.0,0.0,0.0,0.0,0.0,0.0,0.0,0.0,0.0,0.0,0.0,0.0,0.0,0.0,0.0,0.0,0.0,0.0,0.0,0.0,0.0,0.0,0.0,0.0,0.0,0.0,0.0,0.0,0.0,0.0,0.0,0.0,0.0,0.0,1.7347,1.8215,1.9167,1.9469,1.9448,1.9129,1.8342,1.7569,1.687,0.0,0.0,0.0,0.0,0.0,0.0,0.0,0.0,0.0,0.0,0.0,0.0,0.0,0.0,0.0,0.0,0.0,0.0,0.0,0.0,0.0,0.0,0.0,0.0,0.0,0.0,0.0,0.0,0.0,0.0,0.0,0.0,0.0,0.0,0.0,0.0,0.0,0.0,0.9734,0.9497,0.0,0.0,0.0,0.0,0.0,0.0,0.0,0.0,0.5686,0.0,0.0,0.0,0.0,0.0,0.0,0.0,0.0,0.0,0.0,0.0,0.0,0.0,0.0,0.0,0.0,0.0,0.0,0.0,0.0,0.0,0.0,0.0,0.0,0.0,0.0,0.0,0.0,0.0,0.0,0.0,0.0,0.0,0.0,0.0,0.0,0.0,0.0,0.0,0.0,0.0,0.0,0.0,0.0,0.0,0.0,0.0,0.0,0.0,0.0,0.0,0.0,0.0,0.0,0.0,0.0,1.6043,1.6752,1.7385,1.7929,1.8341,1.8475,1.8217,1.76,1.6937,1.6261,0.0,0.0,0.0,0.0,0.0,0.0,0.0,0.0,0.0,0.0,0.0,0.0,0.0,0.0,0.0,0.0,0.0,0.0,0.0,0.0,0.0,0.0,0.0,0.0,0.0,0.0,0.0,0.0,0.0,0.0,0.0,0.0,0.0,0.0,0.0,0.0,0.0,0.0,0.0,0.8884,0.8267,0.0,0.0,0.0,0.0,0.0,0.0,0.0,0.0,0.4176,0.0,0.0,0.0,0.0,0.0,0.0,0.0,0.0,0.0,0.0,0.0,0.0,0.0,0.0,0.0,0.0,0.0,0.0,0.0,0.0,0.0,0.0,0.0,0.0,0.0,0.0,0.0,0.0,0.0,0.0,0.0,0.0,0.0,0.0,0.0,0.0,0.0,0.0,0.0,0.0,0.0,0.0,0.0,0.0,0.0,0.0,0.0,0.0,0.0,0.0,0.0,0.0,0.0,0.0,0.0,1.5817,1.6529,1.7147,1.7804,1.8127,1.8198,1.7986,1.7402,1.6764,0.0,0.0,0.0,0.0,0.0,0.0,0.0,0.0,0.0,0.0,0.0,0.0,0.0,0.0,0.0,0.0,0.0,0.0,0.0,0.0,0.0,0.0,0.0,0.0,0.0,0.0,0.0,0.0,0.0,0.0,0.0,0.0,0.0,0.0,0.0,0.0,0.0,0.0,0.0,0.0,0.8464,0.8,0.7094,0.0,0.0,0.0,0.0,0.0,0.0,0.3732,0.3547,0.0,0.0,0.0,0.0,0.0,0.0,0.0,0.0,0.0,0.0,0.0,0.0,0.0,0.0,0.0,0.0,0.0,0.0,0.0,0.0,0.0,0.0,0.0,0.0,0.0,0.0,0.0,0.0,0.0,0.0,0.0,0.0,0.0,0.0,0.0,0.0,0.0,0.0,0.0,0.0,0.0,0.0,0.0,0.0,0.0,0.0,0.0,0.0,0.0,0.0,0.0,0.0,0.0,0.0,0.0,1.5777,1.6331,1.6989,1.7746,1.8016,1.8026,1.7766,1.7257,1.6683,0.0,0.0,0.0,0.0,0.0,0.0,0.0,0.0,0.0,0.0,0.0,0.0,0.0,0.0,0.0,0.0,0.0,0.0,0.0,0.0,0.0,0.0,0.0,0.0,0.0,0.0,0.0,0.0,0.0,0.0,0.0,0.0,0.0,0.0,0.0,0.0,0.0,0.0,0.0,0.0,0.0,0.7529,0.6304,0.6097,0.0,0.0,0.0,0.0,0.3313,0.318,0.0,0.0,0.0,0.0,0.0,0.0,0.0,0.0,0.0,0.0,0.0,0.0,0.0,0.0,0.0,0.0,0.0,0.0,0.0,0.0,0.0,0.0,0.0,0.0,0.0,0.0,0.0,0.0,0.0,0.0,0.0,0.0,0.0,0.0,0.0,0.0,0.0,0.0,0.0,0.0,0.0,0.0,0.0,0.0,0.0,0.0,0.0,0.0,0.0,0.0,0.0,0.0,0.0,0.0,0.0,0.0,1.5594,1.6202,1.6638,1.6959,1.734,1.7359,1.6959,1.6667,1.6268,0.0,0.0,0.0,0.0,0.0,0.0,0.0,0.0,0.0,0.0,0.0,0.0,0.0,0.0,0.0,0.0,0.0,0.0,0.0,0.0,0.0,0.0,0.0,0.0,0.0,0.0,0.0,0.0,0.0,0.0,0.0,0.0,0.0,0.0,0.0,0.0,0.0,0.0,0.0,0.0,0.0,0.6468,0.573,0.4993,0.4403,0.0,0.0,0.2963,0.2964,0.2686,0.0,0.0,0.0,0.0,0.0,0.0,0.0,0.0,0.0,0.0,0.0,0.0,0.0,0.0,0.0,0.0,0.0,0.0,0.0,0.0,0.0,0.0,0.0,0.0,0.0,0.0,0.0,0.0,0.0,0.0,0.0,0.0,0.0,0.0,0.0,0.0,0.0,0.0,0.0,0.0,0.0,0.0,0.0,0.0,0.0,0.0,0.0,0.0,0.0,0.0,0.0,0.0,0.0,0.0,0.0,1.5054,1.5632,1.6292,1.6708,1.6812,1.7209,1.7227,1.6812,1.6717,1.632,0.0,0.0,0.0,0.0,0.0,0.0,0.0,0.0,0.0,0.0,0.0,0.0,0.0,0.0,0.0,0.0,0.0,0.0,0.0,0.0,0.0,0.0,0.0,0.0,0.0,0.0,0.0,0.0,0.0,0.0,0.0,0.0,0.0,0.0,0.0,0.0,0.0,0.0,0.0,0.0,0.0,0.0,0.4989,0.4614,0.0,0.0,0.0,0.2771,0.26,0.0,0.0,0.0,0.0,0.0,0.0,0.0,0.0,0.0,0.0,0.0,0.0,0.0,0.0,0.0,0.0,0.0,0.0,0.0,0.0,0.0,0.0,0.0,0.0,0.0,0.0,0.0,0.0,0.0,0.0,0.0,0.0,0.0,0.0,0.0,0.0,0.0,0.0,0.0,0.0,0.0,0.0,0.0,0.0,0.0,0.0,0.0,0.0,0.0,0.0,0.0,0.0,0.0,0.0,0.0,0.0,0.0,1.5632,1.6377,1.6802,1.6812,1.7209,1.7227,1.6821,1.6682,0.0,0.0,0.0,0.0,0.0,0.0,0.0,0.0,0.0,0.0,0.0,0.0,0.0,0.0,0.0,0.0,0.0,0.0,0.0,0.0,0.0,0.0,0.0,0.0,0.0,0.0,0.0,0.4564,0.0,0.0,0.0,0.0,0.0,0.0,0.0,0.0,0.0,0.0,0.0,0.0,0.0,0.0,0.5247,0.4283,0.4129,0.3826,0.0,0.0,0.2701,0.2431,0.2435,0.2435,0.0,0.0,0.0,0.0,0.0,0.0,0.0,0.0,0.0,0.0,0.0,0.0,0.0,0.0,0.0,0.0,0.0,0.0,0.0,0.0,0.0,0.0,0.0,0.0,0.0,0.0,0.0,0.0,0.0,0.0,0.0,0.0,0.0,0.0,0.0,0.0,0.0,0.0,0.0,0.0,0.0,0.0,0.0,0.0,0.0,0.0,0.0,0.0,0.0,0.0,0.0,0.0,0.0,0.0,1.4874,1.5574,1.6377,1.6802,1.6812,1.7209,1.7227,1.6821,1.625,1.5648,0.0,0.0,0.0,0.0,0.0,0.0,0.0,0.0,0.0,0.0,0.0,0.0,0.0,0.0,0.0,0.0,0.0,0.0,0.0,0.0,0.0,0.0,0.0,0.0,0.0,0.0,0.0,0.0,0.0,0.0,0.0,0.0,0.0,0.0,0.0,0.0,0.0,0.0,0.0,0.0,0.0,0.4159,0.3556,0.3177,0.2999,0.0,0.2701,0.2431,0.2462,0.2466,0.2466,0.2466,0.0,0.0,0.0,0.0,0.0,0.0,0.0,0.0,0.0,0.0,0.0,0.0,0.0,0.0,0.0,0.0,0.0,0.0,0.0,0.0,0.0,0.0,0.0,0.0,0.0,0.0,0.0,0.0,0.0,0.0,0.0,0.0,0.0,0.0,0.0,0.0,0.0,0.0,0.0,0.0,0.0,0.0,0.0,0.0,0.0,0.0,0.0,0.0,0.0,0.0,0.0,0.0,0.0,1.44,1.4942,1.5659,1.6066,1.6084,1.6455,1.6473,1.6075,1.5627,1.5041,0.0,0.0,0.0,0.0,0.0,0.0,0.0,0.0,0.0,0.0,0.0,0.0,0.0,0.0,0.0,0.0,0.0,0.0,0.0,0.0,0.0,0.0,0.0,0.0,0.0,0.0,0.0,0.0,0.2628,0.2469,0.2483,0.0,0.0,0.0,0.0,0.0,0.0,0.0,0.0,0.0,0.0,0.3579,0.3173,0.3021,0.0,0.0,0.2525,0.2484,0.2495,0.2497,0.2496,0.2497,0.2481,0.0,0.0,0.0,0.0,0.0,0.0,0.0,0.0,0.0,0.0,0.0,0.0,0.0,0.0,0.0,0.0,0.0,0.0,0.0,0.0,0.0,0.0,0.0,0.0,0.0,0.0,0.0,0.0,0.0,0.0,0.0,0.0,0.0,0.0,0.0,0.0,0.0,0.0,0.0,0.0,0.0,0.0,0.0,0.0,0.0,0.0,0.0,0.0,0.0,0.0,0.0,0.0,1.4063,1.4523,1.5228,1.5624,1.5632,1.6001,1.5969,1.5506,1.5058,1.4438,0.0,0.0,0.0,0.0,0.0,0.0,0.0,0.0,0.0,0.0,0.0,0.0,0.0,0.0,0.0,0.0,0.0,0.0,0.0,0.0,0.0,0.0,0.0,0.0,0.0,0.0,0.0,0.0,0.2222,0.2119,0.211,0.0,0.0,0.0,0.0,0.0,0.0,0.0,0.0,0.0,0.0,0.3128,0.2762,0.2758,0.2727,0.2424,0.2474,0.2514,0.2514,0.2514,0.2514,0.2514,0.0,0.0,0.0,0.0,0.0,0.0,0.0,0.0,0.0,0.0,0.0,0.0,0.0,0.0,0.0,0.0,0.0,0.0,0.0,0.0,0.0,0.0,0.0,0.0,0.0,0.0,0.0,1.9285,0.0,0.0,1.7444,0.0,0.0,0.0,0.0,0.0,0.0,0.0,0.0,0.0,0.0,0.0,0.0,0.0,0.0,0.0,0.0,0.0,0.0,0.0,0.0,0.0,0.0,1.3924,1.4464,1.5156,1.5558,1.5567,1.6001,1.5878,1.5294,1.4745,1.3887,1.2738,0.0,0.0,0.0,0.0,0.0,0.0,0.0,0.0,0.0,0.0,0.0,0.0,0.0,0.0,0.0,0.0,0.0,0.0,0.0,0.0,0.0,0.0,0.0,0.0,0.0,0.0,0.2104,0.2135,0.2142,0.0,0.0,0.0,0.0,0.0,0.0,0.0,0.0,0.0,0.2862,0.2835,0.2656,0.2328,0.2384,0.2424,0.2424,0.2474,0.2514,0.2514,0.2514,0.2514,0.0,0.0,0.0,0.0,0.0,0.0,0.0,0.0,0.0,0.0,0.0,0.0,0.0,0.0,0.0,0.0,0.0,0.0,0.0,0.0,0.0,0.0,0.0,0.0,0.0,0.0,0.0,1.9871,1.9296,0.0,0.0,0.0,0.0,0.0,0.0,0.0,0.0,0.0,0.0,0.0,1.3211,1.3086,0.0,0.0,0.0,0.0,0.0,0.0,0.0,0.0,0.0,0.0,0.0,0.0,1.3452,1.3796,1.4436,1.4662,1.4456,1.4797,1.4581,1.3718,1.3185,1.2084,1.0398,0.0,0.0,0.0,0.0,0.0,0.0,0.0,0.0,0.0,0.0,0.0,0.0,0.0,0.0,0.0,0.0,0.0,0.0,0.0,0.0,0.0,0.0,0.0,0.0,0.0,0.2106,0.0,0.0,0.0,0.0,0.0,0.0,0.0,0.0,0.0,0.0,0.0,0.255,0.248,0.2426,0.2443,0.2328,0.2384,0.2424,0.0,0.0,0.0,0.0,0.0,0.0,0.0,0.0,0.0,0.0,0.0,0.0,0.0,0.0,0.2169,0.2479,0.2557,0.2475,0.2148,0.0,0.0,0.0,0.0,0.0,0.0,0.0,0.0,0.0,0.0,0.0,0.0,0.0,0.0,2.0349,1.9609,1.9596,0.0,0.0,0.0,0.0,0.0,0.0,0.0,0.0,1.3569,1.3519,1.3465,1.3465,1.3498,0.0,1.3498,1.323,0.0,0.0,0.0,0.0,0.0,0.0,0.0,0.0,1.3311,1.3563,1.4131,1.4242,1.3948,1.4068,1.3615,1.2581,1.1409,1.0155,0.8561,0.744,0.6554,0.0,0.0,0.0,0.0,0.0,0.0,0.0,0.0,0.0,0.0,0.0,0.0,0.0,0.0,0.0,0.0,0.0,0.0,0.0,0.0,0.0,0.0,0.0,0.2132,0.0,0.0,0.0,0.0,0.0,0.0,0.0,0.0,0.0,0.2202,0.2218,0.2247,0.2285,0.23,0.2316,0.2345,0.0,0.0,0.0,0.0,0.0,0.0,0.0,0.253,0.253,0.2475,0.2338,0.2184,0.2117,0.2132,0.2149,0.0,0.0,0.2283,0.2286,0.2045,0.1719,0.173,0.1574,0.1325,0.1329,0.1333,0.0,0.0,0.0,0.0,2.0748,0.0,0.0,0.0,2.1844,2.1319,0.0,2.0106,0.0,0.0,0.0,0.0,1.4896,1.4512,0.0,0.0,1.3849,1.3767,1.3669,1.3606,1.3758,1.3904,1.3758,1.3598,1.3566,1.3065,0.0,0.0,0.0,0.0,0.0,0.0,1.3547,1.3888,1.4172,1.429,1.4013,1.3808,1.3035,1.1785,0.9628,0.8169,0.7375,0.6642,0.5859,0.4956,0.4815,0.0,0.0,0.0,0.0,0.0,0.0,0.0,0.0,0.0,0.0,0.0,0.0,0.0,0.0,0.0,0.0,0.0,0.0,0.0,0.0,0.2139,0.0,0.0,0.0,0.0,0.0,0.0,0.0,0.0,0.0,0.1398,0.2076,0.2187,0.2293,0.2294,0.0,0.0,0.0,0.0,0.236,0.2465,0.2418,0.2438,0.2438,0.2541,0.2562,0.256,0.0,0.0,0.1324,0.1244,0.1253,0.1278,0.1197,0.1355,0.1725,0.1567,0.1328,0.1329,0.1265,0.1282,0.1284,0.1204,0.1213,2.2311,0.0,0.0,0.0,0.0,2.1697,2.1777,2.1871,2.1951,2.17,2.1084,2.0822,0.0,0.0,0.0,0.0,0.0,0.0,1.4514,1.4649,1.4131,1.3984,1.4205,1.4205,1.4156,1.4278,1.4229,1.4205,1.4124,1.3928,1.3604,1.3222,0.0,0.0,0.0,0.0,1.3677,1.3912,1.3961,1.3701,1.3256,1.2734,1.1522,0.9587,0.8299,0.7335,0.6755,0.599,0.5273,0.4732,0.4356,0.0,0.0,0.0,0.0,0.0,0.0,0.0,0.0,0.0,0.0,0.0,0.0,0.0,0.0,0.0,0.0,0.0,0.0,0.0,0.1356,0.1375,0.1387,0.0,0.0,0.0,0.0,0.0,0.0,0.0,0.0,0.0,0.138,0.1742,0.2037,0.0,0.0,0.195,0.1957,0.175,0.1536,0.1542,0.157,0.0,0.1671,0.1687,0.1701,0.1701,0.1316,0.0836,0.0423,0.0341,0.0344,0.0259,0.0346,0.0431,0.0514,0.0941,0.1114,0.0944,0.0862,0.0779,0.0433,0.0347,0.0,2.3394,2.2672,2.2432,2.2405,2.2512,2.2512,2.2579,2.2699,2.2699,2.2496,2.1971,2.1565,2.0742,1.9452,1.8463,0.0,0.0,0.0,1.4929,1.5095,1.4444,1.4261,1.4529,1.4546,1.4578,1.4643,1.457,1.4538,1.4538,1.4367,1.4115,1.379,0.0,1.3482,1.3482,1.3587,1.3657,1.3817,1.3664,1.3282,1.2741,1.1368,0.9861,0.8179,0.7129,0.6298,0.5823,0.5156,0.4528,0.4144,0.3853,0.3441,0.0,0.0,0.0,0.0,0.0,0.0,0.0,0.0,0.0,0.0,0.0,0.0628,0.0577,0.0,0.0,0.0,0.0606,0.0612,0.0623,0.0628,0.0,0.0,0.0,0.0,0.0,0.0,0.0,0.0363,0.0441,0.0594,0.0823,0.1125,0.1501,0.1872,0.1734,0.1595,0.1611,0.0,0.0935,0.0944,0.0798,0.0724,0.0724,0.0734,0.0662,0.025,0.0,-0.0427,-0.1031,-0.1212,-0.1218,-0.1223,-0.105,-0.0876,-0.0879,-0.0264,0.0352,0.0438,0.0439,0.0352,0.0088,0.0,0.0,2.4396,2.3861,2.3313,2.3193,2.3354,2.3367,2.3514,2.3768,2.3768,2.3466,2.285,2.2416,2.1508,2.0215,1.836,0.0,1.7298,1.5921,1.536,1.5305,1.4687,1.457,1.4749,1.4765,1.4854,1.5009,1.4846,1.4765,1.4741,1.4578,1.4481,1.444,1.3969,1.3725,1.3639,1.3639,1.3738,1.3788,1.3416,1.2882,1.2179,0.9925,0.8202,0.7121,0.6046,0.5158,0.4679,0.4301,0.3842,0.3367,0.3323,0.2932,0.2138,0.0,0.0,0.0,0.0,0.0,0.0,0.0,0.0,0.0,0.0,0.0,0.0,0.0,0.0,-0.0206,-0.0209,0.0,-0.0282,-0.0282,0.0,0.0,0.0,-0.0863,-0.0791,-0.1102,-0.1193,-0.0672,0.0,0.0,0.0381,0.0466,0.0547,0.0993,0.1066,0.1075,0.1021,0.0552,0.0318,0.0324,0.0,-0.0326,-0.0408,-0.0416,-0.0678,-0.1554,-0.174,-0.2087,-0.2871,-0.3138,-0.3148,-0.3,-0.2653,-0.2306,-0.2327,-0.1792,-0.1253,-0.0354,-0.0178,-0.009,0.0,0.0,0.0,2.5224,2.509,2.4943,2.4409,2.3661,2.3661,2.3714,2.3768,2.3781,2.3728,2.3519,2.2808,2.165,2.0246,1.8957,1.8125,1.7752,1.6186,1.5632,1.5707,1.5135,1.4935,1.5114,1.526,1.5342,1.5382,1.5342,1.5252,1.5114,1.5065,1.4903,1.4651,1.4513,1.4383,1.4172,1.4245,1.4154,1.4041,1.3356,1.1924,0.977,0.8384,0.7015,0.5599,0.5199,0.4614,0.3923,0.3738,0.3276,0.2612,0.2579,0.2061,0.0992,0.0346,0.0,0.0,0.0,0.0,0.0,0.0,0.0,0.0,0.0,-0.1643,-0.1672,0.0,-0.1787,0.0,-0.1781,-0.1885,-0.1904,-0.1924,0.0,0.0,-0.2014,-0.1943,-0.1645,-0.1667,-0.1611,-0.1162,-0.1176,-0.103,-0.0879,-0.0804,-0.0805,-0.0721,-0.016,0.016,-0.0161,-0.0887,-0.1373,-0.1465,-0.1817,-0.2169,-0.2173,-0.221,-0.2591,-0.3474,-0.3587,-0.3956,-0.4837,-0.5046,-0.4902,-0.4555,-0.4111,-0.3668,-0.3407,-0.2871,-0.2331,-0.1789,-0.1344,-0.0988,-0.0628,-0.0539,-0.0449,2.5638,2.5518,2.5518,2.5055,2.4322,2.4469,2.4469,2.4322,2.4469,2.4469,2.4222,2.3168,2.1959,2.0564,1.9275,1.8525,1.8045,1.669,1.6039,1.5983,1.5474,1.526,1.5366,1.5463,1.5512,1.5512,1.5512,1.5463,1.5366,1.5277,1.5139,1.4944,1.4862,1.4697,1.4366,1.4223,1.3925,1.3566,1.2262,1.0489,0.8297,0.7395,0.6256,0.5047,0.4527,0.395,0.3318,0.3075,0.2698,0.2114,0.1728,0.1072,0.0072,-0.0841,-0.1589,0.0,0.0,0.0,0.0,0.0,0.0,0.0,0.0,0.0,0.0,0.0,-0.3341,-0.3188,-0.338,-0.3345,-0.3069,-0.3167,-0.3262,-0.3128,-0.3299,-0.324,-0.2869,-0.298,-0.2851,-0.2232,-0.2166,-0.2099,-0.1951,-0.1961,-0.2049,-0.2214,-0.2067,-0.174,-0.1397,-0.2057,-0.2729,-0.2992,-0.3377,-0.3849,-0.4038,-0.408,-0.4382,-0.5107,-0.5311,-0.5598,-0.6488,-0.6522,-0.6368,-0.6276,-0.5736,-0.5199,-0.4933,-0.4305,-0.3771,-0.3519,-0.3072,-0.2351,-0.1266,-0.1085,-0.0996,2.5852,2.5625,2.5548,2.5317,2.5009,2.5317,2.5201,2.4815,2.5198,2.5122,2.4636,2.3468,2.2205,2.1,1.9575,1.8719,1.8154,1.7066,1.6381,1.6052,1.5696,1.5553,1.5553,1.5577,1.5585,1.5585,1.5585,1.5569,1.5545,1.5382,1.5206,1.5236,1.5004,1.4761,1.4353,1.3914,1.3311,1.2685,1.0815,0.9007,0.7369,0.6577,0.5655,0.4712,0.3933,0.3289,0.2854,0.2481,0.2041,0.1676,0.0866,0.0072,-0.079,-0.1843,-0.2818,0.0,-0.5072,0.0,0.0,0.0,0.0,0.0,0.0,0.0,0.0,-0.5087,-0.4957,-0.4628,-0.5016,-0.4945,-0.4123,-0.4431,-0.4527,-0.4185,-0.4547,-0.4594,-0.4239,-0.4529,-0.4478,-0.3667,-0.3589,-0.343,-0.3106,-0.3051,-0.324,-0.3581,-0.4058,-0.3907,-0.293,-0.336,-0.4068,-0.4451,-0.493,-0.5496,-0.5987,-0.6098,-0.6295,-0.6704,-0.6892,-0.717,-0.797,-0.7885,-0.771,-0.7885,-0.7438,-0.6898,-0.6812,-0.6013,-0.5406,-0.5359,-0.4921,-0.4018,-0.2375,-0.1918,-0.1741,2.6279,2.6226,2.5898,2.5662,2.5583,2.5281,2.4867,2.4342,2.4431,2.4188,2.3803,2.3243,2.2271,2.1123,2.0149,1.9091,1.7993,1.7117,1.6511,1.6061,1.5899,1.5723,1.5731,1.5878,1.5861,1.5869,1.5943,1.5869,1.5723,1.5691,1.5528,1.5244,1.4883,1.4571,1.4368,0.0,0.0,0.0,0.9925,0.8223,0.6584,0.5671,0.4629,0.346,0.3242,0.0,0.2517,0.2125,0.1604,0.0874,0.0364,0.0,0.0,0.0,0.0,0.0,0.0,0.0,0.0,0.0,0.0,0.0,-0.7965,-0.7478,-0.6852,-0.6853,-0.6751,-0.6449,-0.6855,-0.6751,-0.6084,-0.6414,-0.6498,-0.6033,-0.6046,-0.5978,-0.559,-0.5646,-0.5519,-0.5023,-0.4982,-0.501,-0.4929,-0.4893,-0.5009,-0.5179,-0.5585,-0.579,-0.5512,-0.5601,-0.579,-0.598,-0.6644,-0.7413,-0.8025,-0.8033,-0.8126,-0.8595,-0.8773,-0.8952,-0.9406,-0.9496,-0.9317,-0.913,-0.8863,-0.8599,-0.8242,-0.7757,-0.7269,-0.7007,-0.6602,-0.5718,-0.3785,-0.3416,-0.3232,2.6307,2.607,2.5911,2.5435,0.0,2.4572,2.408,2.3508,2.4306,2.4218,2.3458,2.3069,2.2139,2.0789,2.0006,1.8966,1.7802,1.7164,1.6567,1.6096,1.5943,1.591,1.591,1.5999,1.5966,1.5966,1.5966,1.5999,1.591,1.5577,1.5361,1.5114,1.4623,1.4301,1.3983,1.2494,1.1173,1.0092,0.8769,0.7365,0.5724,0.4992,0.419,0.3163,0.2667,0.0,0.0,0.0,0.0,0.0,0.0,0.0,0.0,-0.4171,0.0,-0.6287,-0.7485,-0.8328,-0.853,-0.896,-0.9269,-0.93,-0.9599,-0.9243,-0.8165,-0.8138,-0.8028,-0.7727,-0.8057,-0.8012,-0.7298,-0.7552,-0.773,-0.7281,-0.7452,-0.7386,-0.7099,-0.7218,-0.7161,-0.6753,-0.6727,-0.6775,-0.6775,-0.684,-0.697,-0.6977,-0.7385,-0.7701,-0.7701,-0.709,-0.6838,-0.7314,-0.8232,-0.8989,-0.9215,-0.9313,-0.9313,-0.958,-0.9669,-0.9847,-1.0298,-1.0119,-0.9941,-0.9941,-0.989,-0.9657,-0.9482,-0.9105,-0.8815,-0.8581,-0.8162,-0.7649,-0.6553,-0.561,-0.4761,2.599,2.5673,2.5514,2.4798,2.376,2.36,2.305,2.2475,2.4012,0.0,0.0,2.2791,2.1885,2.0447,1.9648,1.8717,1.7683,1.7117,1.6627,1.604,1.5966,1.5966,1.5966,1.5966,1.5966,1.5883,1.5883,1.5883,1.5793,1.5241,1.5,1.4962,1.4421,1.3778,1.3095,1.1396,0.9866,0.8512,0.7694,0.6509,0.4944,0.4395,0.3751,0.2943,0.2163,0.1766,0.1672,0.091,0.0303,-0.0227,-0.1363,-0.2578,-0.3884,-0.5404,-0.6629,-0.7502,-0.8727,-0.9475,-0.9629,-0.9952,-1.0285,-1.0464,-1.0907,-1.0564,-0.9321,-0.9392,-0.9421,-0.9031,-0.9359,-0.9278,-0.8405,-0.8657,-0.8689,-0.8276,-0.8532,-0.8649,-0.8382,-0.8645,-0.865,-0.8424,-0.8404,-0.8463,-0.8475,-0.8555,-0.8697,-0.8709,-0.8957,-0.9374,-0.9198,-0.8405,-0.8071,-0.8837,-0.9566,-1.0115,-1.0298,-1.0298,-1.0298,-1.0298,-1.0298,-1.0387,-1.0654,-1.0491,-1.0506,-1.0784,-1.0685,-1.066,-1.0589,-1.0485,-1.0212,-1.0296,-0.9951,-0.9607,-0.9483,-0.8323,-0.6886,2.5209,2.513,2.44,2.4,2.368,2.2636,2.1911,2.1577,2.2556,2.2866,2.2671,2.2269,2.1512,2.0513,1.9705,1.8598,1.7401,1.6992,1.6426,1.5966,1.5966,1.5966,1.5966,1.5966,1.5801,1.5546,1.5463,1.5298,1.4878,1.4773,1.4698,1.4578,1.4047,1.2997,1.1424,0.9954,0.8652,0.7348,0.6734,0.5805,0.4554,0.3689,0.2902,0.2115,0.1862,0.1619,0.1307,0.0533,-0.0303,-0.106,-0.227,-0.3513,-0.4831,-0.6159,-0.7319,-0.8264,-0.9172,-1.0062,-1.0707,-1.0804,-1.1062,-1.1487,-1.1682,-1.1451,-1.0753,-1.1085,-1.123,-1.084,-1.1184,-1.1066,-1.0004,-1.0097,-1.0019,-0.9373,-0.93,-0.9226,-0.9244,-0.9328,-0.945,-0.9446,-0.9385,-0.9521,-0.9602,-0.9696,-0.9762,-0.9776,-1.0019,-0.9913,-0.9997,-0.974,-0.9833,-1.0293,-1.0476,-1.0832,-1.1099,-1.1277,-1.1188,-1.1277,-1.1188,-1.1193,-1.1293,-1.1357,-1.1326,-1.1427,-1.1795,-1.2141,-1.2152,-1.2253,-1.2146,-1.2102,-1.1788,-1.1668,-1.16,-1.0918,-0.9969,2.497,2.4731,2.4092,2.3359,2.2636,2.1427,2.0779,2.0607,2.1022,2.1346,2.1508,2.1265,2.0698,1.9876,1.9235,1.8428,1.7363,1.6944,1.6369,1.5711,1.5719,1.5546,1.5298,1.5298,1.5216,1.5051,1.5051,1.4878,1.4713,1.4473,1.4361,1.4206,1.3542,1.2522,1.1224,0.9856,0.8435,0.688,0.613,0.504,0.3761,0.312,0.2402,0.1601,0.1354,0.1033,0.0874,0.0079,-0.0788,-0.1653,-0.2833,-0.427,-0.5753,-0.7111,-0.8344,-0.9481,-1.0195,-1.0796,-1.1451,-1.1598,-1.164,-1.1891,-1.2187,-1.2199,-1.1973,-1.1891,-1.1834,-1.1717,-1.1894,-1.1836,-1.1231,-1.132,-1.132,-1.0904,-1.0959,-1.1003,-1.1014,-1.1064,-1.1124,-1.118,-1.1246,-1.1307,-1.1356,-1.1472,-1.155,-1.1555,-1.1516,-1.1543,-1.1543,-1.1543,-1.1277,-1.0832,-1.0921,-1.1188,-1.1455,-1.1543,-1.1543,-1.1543,-1.1543,-1.1482,-1.162,-1.1792,-1.2017,-1.2176,-1.265,-1.3002,-1.3106,-1.3214,-1.3198,-1.3222,-1.3157,-1.3016,-1.2928,-1.255,-1.1505,2.4572,2.4172,2.368,2.2717,2.1427,2.0292,1.9805,1.9723,1.9723,1.9886,2.0201,2.0363,1.9957,1.9153,1.8745,1.8019,1.7117,1.6616,1.5958,1.5298,1.5216,1.5051,1.4713,1.4713,1.4631,1.4555,1.4555,1.4465,1.4383,1.4066,1.3901,1.3652,1.2899,1.1902,1.0898,0.9482,0.7958,0.6381,0.5182,0.4168,0.309,0.2602,0.1952,0.1221,0.0813,0.0488,0.0325,-0.0407,-0.1301,-0.2276,-0.3495,-0.4961,-0.6604,-0.8067,-0.9298,-1.0373,-1.1032,-1.1582,-1.1998,-1.2287,-1.2451,-1.2451,-1.2727,-1.2997,-1.2913,-1.2663,-1.2483,-1.2458,-1.2451,-1.2464,-1.2334,-1.2334,-1.2328,-1.225,-1.2252,-1.2228,-1.2325,-1.2405,-1.2484,-1.2515,-1.2606,-1.2674,-1.2729,-1.2808,-1.2781,-1.2781,-1.2875,-1.2875,-1.2875,-1.2875,-1.2343,-1.1721,-1.1543,-1.181,-1.181,-1.181,-1.1899,-1.181,-1.1933,-1.1984,-1.2068,-1.2391,-1.2653,-1.2857,-1.3339,-1.3598,-1.3715,-1.3877,-1.404,-1.4046,-1.4052,-1.3964,-1.3776,-1.3487,-1.2639,2.368,2.3291,2.2889,2.175,2.0211,1.9561,1.9153,1.8837,1.8837,1.8837,1.9,1.9723,1.9561,1.8755,1.8255,1.7355,1.6213,1.5711,1.5298,1.4796,1.4796,1.4713,1.4631,1.4631,1.4473,1.4232,1.4149,1.3976,1.3645,1.348,1.3238,1.2733,1.1986,1.0898,0.9555,0.7881,0.6459,0.5457,0.3776,0.2823,0.2605,0.1871,0.1139,0.0651,0.0651,0.0244,-0.0489,-0.1058,-0.1872,-0.309,-0.4392,-0.5718,-0.7166,-0.882,-1.0014,-1.0688,-1.154,-1.2216,-1.2644,-1.31,-1.3439,-1.3452,-1.3552,-1.3613,-1.3613,-1.3619,-1.3573,-1.3479,-1.3445,-1.3316,-1.3094,-1.3101,-1.2917,-1.2563,-1.2515,-1.2448,-1.2539,-1.2546,-1.2515,-1.2643,-1.2848,-1.2716,-1.3003,-1.304,-1.2964,-1.3053,-1.3059,-1.3053,-1.3053,-1.3053,-1.3053,-1.2698,-1.2787,-1.2704,-1.2704,-1.2787,-1.2627,-1.2722,-1.2806,-1.2801,-1.2872,-1.3108,-1.345,-1.345,-1.3921,-1.4283,-1.439,-1.4704,-1.4993,-1.4805,-1.4805,-1.4899,-1.4523,-1.4335,-1.3676,2.352,2.3211,2.2809,2.1588,1.9967,1.899,1.8582,1.8673,1.8183,1.8101,1.8255,1.8419,1.8419,1.8183,1.7273,1.6534,1.5966,1.5298,1.4721,1.439,1.4307,1.4225,1.3976,1.3894,1.3811,1.3735,1.3652,1.3562,1.3403,1.3155,1.2899,1.2567,1.157,1.0482,0.9309,0.7638,0.605,0.4539,0.3029,0.201,0.1496,0.1163,0.0747,0.0249,0.0,-0.0332,-0.0747,-0.1577,-0.2573,-0.3732,-0.5223,-0.6725,-0.8086,-0.9584,-1.0766,-1.1486,-1.2483,-1.3062,-1.3316,-1.3552,-1.3756,-1.3671,-1.381,-1.3752,-1.3752,-1.3752,-1.3851,-1.3878,-1.381,-1.3698,-1.3581,-1.3587,-1.3502,-1.3337,-1.3402,-1.3454,-1.3461,-1.3533,-1.3618,-1.367,-1.3676,-1.3696,-1.3748,-1.3768,-1.3768,-1.3679,-1.3768,-1.3673,-1.3679,-1.3768,-1.3768,-1.3768,-1.3768,-1.3496,-1.3065,-1.2955,-1.2985,-1.3016,-1.3107,-1.3205,-1.3401,-1.3751,-1.3963,-1.4045,-1.4477,-1.4798,-1.4892,-1.4993,-1.5181,-1.5181,-1.5181,-1.5087,-1.4899,-1.5087,-1.4899,2.344,2.297,2.2234,2.1184,1.9886,1.8745,1.8346,1.8428,1.7855,1.7682,1.7764,1.7273,1.7191,1.7273,1.6369,1.5801,1.5389,1.4803,1.4307,1.3908,1.3943,1.3798,1.3464,1.3464,1.3464,1.3458,1.3424,1.3321,1.3238,1.2899,1.2567,1.2069,1.0904,0.9731,0.8558,0.6885,0.5208,0.37,0.2355,0.1262,0.0589,0.0422,0.0169,-0.0168,-0.0505,-0.0843,-0.1099,-0.2114,-0.3216,-0.4242,-0.5851,-0.7373,-0.8724,-1.0157,-1.1501,-1.2436,-1.3199,-1.3644,-1.3745,-1.3878,-1.3905,-1.3905,-1.3939,-1.3966,-1.3966,-1.3966,-1.4014,-1.4102,-1.4027,-1.3973,-1.3966,-1.3966,-1.3966,-1.3973,-1.4075,-1.4136,-1.4143,-1.4245,-1.4285,-1.4299,-1.4197,-1.4387,-1.4476,-1.4469,-1.4469,-1.4653,-1.4653,-1.4653,-1.4653,-1.4653,-1.4659,-1.4701,-1.4804,-1.436,-1.356,-1.3451,-1.3527,-1.3616,-1.3704,-1.3916,-1.3938,-1.4335,-1.4566,-1.4665,-1.4979,-1.5181,-1.5087,-1.5181,-1.5368,-1.5368,-1.5368,-1.5462,-1.565,-1.5938,-1.6126,2.2958,2.2406,2.086,2.013,1.9886,1.9,1.8419,1.8092,1.7937,1.7773,1.7281,1.6468,1.613,1.6122,1.5883,1.5306,1.4322,1.4163,1.3915,1.3514,1.3623,1.3614,1.362,1.362,1.3607,1.3566,1.3458,1.3148,1.2816,1.265,1.2069,1.082,0.9898,0.8558,0.6968,0.5208,0.37,0.2777,0.1516,0.0505,0.0084,-0.0425,-0.0596,-0.0676,-0.0674,-0.1186,-0.1964,-0.2565,-0.3433,-0.4858,-0.6237,-0.7619,-0.9003,-1.072,-1.2344,-1.3475,-1.3738,-1.3838,-1.3871,-1.3987,-1.4061,-1.4075,-1.4177,-1.4265,-1.4231,-1.4231,-1.4245,-1.4278,-1.4265,-1.4258,-1.4258,-1.4231,-1.4238,-1.4245,-1.4265,-1.4278,-1.4278,-1.4278,-1.4299,-1.4299,-1.4299,-1.4564,-1.4903,-1.4992,-1.5278,-1.555,-1.5631,-1.5646,-1.5668,-1.5653,-1.5713,-1.5891,-1.5846,-1.5578,-1.4682,-1.457,-1.4534,-1.4615,-1.4848,-1.4964,-1.5011,-1.5065,-1.5133,-1.5174,-1.5368,-1.5368,-1.5275,-1.5368,-1.5556,-1.565,-1.5838,-1.6025,-1.64,-1.6587,-1.6868,2.2797,2.2003,2.0617,1.9967,1.9876,1.8745,1.8174,1.7937,1.7569,1.7056,1.6493,1.6004,1.5407,1.4811,1.4811,1.4614,1.4202,1.3881,1.3713,1.3539,1.3505,1.3485,1.3485,1.3485,1.3485,1.3471,1.3424,1.3148,1.265,1.1902,1.107,1.0153,0.8813,0.7474,0.6218,0.4539,0.3195,0.2189,0.0932,0.0,-0.0425,-0.0945,-0.1294,-0.1548,-0.1634,-0.1722,-0.2075,-0.3112,-0.4243,-0.5299,-0.6949,-0.833,-0.9453,-1.1257,-1.2767,-1.38,-1.3987,-1.4027,-1.4122,-1.4183,-1.4217,-1.4224,-1.4265,-1.4306,-1.4299,-1.4299,-1.4299,-1.4312,-1.4394,-1.4434,-1.4414,-1.4353,-1.4299,-1.4299,-1.4299,-1.4312,-1.4299,-1.4299,-1.4299,-1.4387,-1.4564,-1.4992,-1.5742,-1.5971,-1.6298,-1.6669,-1.6926,-1.6981,-1.6997,-1.6997,-1.7013,-1.7068,-1.71,-1.7041,-1.6795,-1.6081,-1.585,-1.5908,-1.601,-1.6089,-1.6155,-1.6061,-1.6205,-1.6205,-1.6119,-1.6025,-1.6025,-1.6025,-1.6213,-1.6306,-1.6494,-1.6868,-1.7055,-1.7523,-1.8075,2.2326,2.161,2.0538,2.0069,1.9925,1.8916,1.8247,1.7881,1.7251,1.6543,1.5849,1.5347,1.4749,1.4171,1.395,1.3944,1.4028,1.3664,1.3559,1.3553,1.3498,1.3471,1.3471,1.3471,1.3471,1.3381,1.3251,1.2816,1.2069,1.1153,1.032,0.9402,0.7897,0.6556,0.5382,0.3797,0.2452,0.1355,0.0342,-0.0516,-0.1119,-0.1478,-0.1836,-0.2274,-0.2369,-0.2369,-0.2362,-0.3584,-0.4638,-0.5701,-0.7283,-0.8856,-1.0426,-1.1987,-1.3333,-1.421,-1.458,-1.4622,-1.472,-1.4741,-1.4734,-1.4741,-1.4783,-1.4811,-1.4818,-1.4764,-1.4702,-1.473,-1.4606,-1.4584,-1.4563,-1.4675,-1.462,-1.4531,-1.4441,-1.4441,-1.4441,-1.462,-1.4805,-1.4991,-1.5437,-1.6046,-1.6847,-1.7299,-1.7803,-1.8348,-1.8566,-1.8626,-1.8634,-1.8634,-1.8669,-1.8712,-1.8811,-1.8897,-1.8909,-1.8501,-1.758,-1.7459,-1.7196,-1.7196,-1.7336,-1.7242,-1.7242,-1.7242,-1.7055,-1.6868,-1.6868,-1.6868,-1.6962,-1.7149,-1.7515,-1.7888,-1.8269,-1.8735,-1.9471,2.1691,2.1248,2.0549,2.0281,2.0116,1.9378,1.8634,1.7701,1.7219,1.6377,1.5396,1.4585,1.4185,1.4012,1.377,1.3607,1.358,1.3478,1.3437,1.3451,1.3546,1.3593,1.3587,1.3496,1.3412,1.3405,1.2881,1.1986,1.082,1.0487,0.9564,0.8144,0.6968,0.5549,0.4038,0.2635,0.1282,0.0257,-0.0519,-0.1131,-0.2003,-0.2109,-0.2387,-0.2743,-0.2853,-0.2855,-0.283,-0.3799,-0.479,-0.5811,-0.716,-0.9219,-1.1688,-1.3009,-1.4007,-1.4794,-1.5337,-1.5609,-1.5624,-1.5639,-1.5558,-1.5602,-1.5861,-1.5853,-1.5786,-1.5611,-1.5412,-1.5405,-1.5083,-1.4831,-1.4922,-1.5287,-1.5265,-1.4817,-1.4776,-1.4867,-1.4888,-1.5174,-1.5727,-1.6152,-1.668,-1.7435,-1.8256,-1.8978,-1.9617,-2.0346,-2.0663,-2.0701,-2.072,-2.072,-2.0748,-2.0862,-2.0919,-2.0985,-2.1026,-2.0945,-1.9834,-1.8998,-1.8702,-1.8447,-1.8541,-1.8634,-1.8634,-1.8634,-1.8269,-1.8083,-1.7803,-1.7803,-1.8083,-1.8269,-1.8634,-1.9184,-1.9843,-2.0492,-2.1325,2.1746,2.1463,2.0765,2.0352,1.9955,1.8985,1.8209,1.7478,1.6835,1.5953,1.5006,1.4423,1.3999,1.3673,1.3541,1.3471,1.3464,1.3424,1.3458,1.3532,1.3498,1.3478,1.3395,1.3138,1.2804,1.2464,1.1676,1.0987,1.0153,0.9068,0.7809,0.6637,0.5211,0.3799,0.2636,0.1281,0.0172,-0.0519,-0.1311,-0.1935,-0.2201,-0.2488,-0.2859,-0.3307,-0.3404,-0.3494,-0.3843,-0.4109,-0.4919,-0.6186,-0.7617,-0.9669,-1.2165,-1.3224,-1.4013,-1.4903,-1.544,-1.5764,-1.5854,-1.5965,-1.601,-1.6017,-1.6085,-1.6114,-1.6114,-1.6076,-1.6022,-1.6029,-1.5927,-1.5908,-1.6015,-1.6195,-1.6051,-1.5308,-1.556,-1.5756,-1.5855,-1.6204,-1.6824,-1.7632,-1.8174,-1.8987,-2.0194,-2.0981,-2.173,-2.2563,-2.2927,-2.3011,-2.3031,-2.299,-2.3052,-2.3146,-2.3075,-2.3044,-2.3116,-2.325,-2.2698,-2.1592,-2.0945,-2.0306,-2.0214,-2.0214,-2.0214,-1.9935,-1.9564,-1.9201,-1.8922,-1.8922,-1.9294,-1.9573,-2.0028,-2.077,-2.1694,-2.2514,-2.325,2.1373,2.1114,2.0329,1.9854,1.9545,1.8588,1.7728,1.6999,1.6335,1.5453,1.46,1.4159,1.3742,1.341,1.3397,1.3397,1.3397,1.3397,1.3368,1.3351,1.3368,1.3321,1.3072,1.2484,1.1986,1.1486,1.0654,0.982,0.9068,0.7813,0.6482,0.524,0.3976,0.2722,0.1548,0.0518,-0.0348,-0.1226,-0.1857,-0.2401,-0.267,-0.3042,-0.3411,-0.3769,-0.3857,-0.4128,-0.4487,-0.4592,-0.5224,-0.6547,-0.8331,-1.0486,-1.258,-1.3662,-1.4572,-1.5334,-1.6069,-1.6472,-1.6564,-1.6662,-1.661,-1.6718,-1.6795,-1.6834,-1.6842,-1.6781,-1.6651,-1.6674,-1.6557,-1.6625,-1.6833,-1.7072,-1.7127,-1.7133,-1.675,-1.6926,-1.7285,-1.7743,-1.8384,-1.9314,-2.0034,-2.0924,-2.188,-2.3028,-2.378,-2.4539,-2.4991,-2.5183,-2.5172,-2.5161,-2.5183,-2.5172,-2.515,-2.5138,-2.5161,-2.5263,-2.5446,-2.4533,-2.3525,-2.2698,-2.2248,-2.2238,-2.2146,-2.1602,-2.114,-2.0677,-2.0306,-2.0677,-2.0955,-2.1232,-2.1694,-2.2708,-2.3719,-2.443,-2.5252,2.068,2.0435,1.9508,1.9087,1.8874,1.8139,1.7255,1.6367,1.5774,1.5021,1.4171,1.3666,1.341,1.3403,1.3314,1.3314,1.3314,1.3231,1.2989,1.2836,1.2899,1.2899,1.2401,1.1736,1.1153,1.0482,0.9648,0.8645,0.7478,0.6637,0.5659,0.3922,0.3159,0.2235,0.0608,0.0,-0.097,-0.2125,-0.2322,-0.2779,-0.3585,-0.3587,-0.3863,-0.4314,-0.4405,-0.4589,-0.4963,-0.5356,-0.5809,-0.6835,-0.9263,-1.1188,-1.2609,-1.4253,-1.5492,-1.6137,-1.7089,-1.7451,-1.7558,-1.7475,-1.7499,-1.7547,-1.7668,-1.7932,-1.7756,-1.7575,-1.7553,-1.7468,-1.7305,-1.7227,-1.7694,-1.8075,-1.871,-1.9454,-1.866,-1.8483,-1.9639,-1.9891,-2.0317,-2.1175,-2.2146,-2.2964,-2.3553,-2.4774,-2.5616,-2.6265,-2.6719,-2.6821,-2.6912,-2.6912,-2.7093,-2.7093,-2.7081,-2.7172,-2.7172,-2.7262,-2.7443,-2.725,-2.6332,-2.5616,-2.4716,-2.4533,-2.4258,-2.3617,-2.3066,-2.2422,-2.2146,-2.2606,-2.2974,-2.3342,-2.4075,-2.4909,-2.581,-2.6707,-2.7599,2.0941,2.0353,1.9709,1.9174,1.8568,1.7386,1.6526,1.5964,1.4954,1.4358,1.3991,1.3652,1.3397,1.3397,1.3065,1.2899,1.2816,1.2567,1.2401,1.2235,1.1986,1.1653,1.132,1.0987,1.0237,0.923,0.8311,0.7394,0.6305,0.4962,0.3722,0.2565,0.1456,0.0346,-0.0878,-0.1324,-0.213,-0.3036,-0.3224,-0.35,-0.3949,-0.413,-0.4414,-0.4805,-0.4901,-0.5192,-0.5775,-0.6807,-0.7636,-0.8346,-0.9981,-1.1812,-1.3393,-1.4769,-1.5887,-1.6666,-1.7211,-1.7713,-1.7819,-1.7843,-1.79,-1.8022,-1.8147,-1.8103,-1.8103,-1.8338,-1.8464,-1.8557,-1.8744,-1.9108,-1.948,-1.9843,-2.0492,-2.1408,-2.0872,-2.0686,-2.15,-2.1879,-2.2248,-2.3168,-2.4178,-2.4818,-2.5571,-2.6379,-2.7287,-2.7752,-2.8023,-2.8191,-2.8281,-2.8449,-2.8629,-2.8719,-2.8809,-2.8989,-2.9156,-2.9246,-2.9425,-2.9694,-2.9233,-2.8771,-2.7883,-2.725,-2.6797,-2.615,-2.5878,-2.5412,-2.4967,-2.4967,-2.5252,-2.5787,-2.6604,-2.7521,-2.8514,-2.9412,-3.0293,2.007,1.9532,1.8773,1.8088,1.7472,1.6402,1.564,1.5149,1.448,1.3983,1.3735,1.3314,1.3072,1.3072,1.265,1.2484,1.2401,1.1986,1.1736,1.1403,1.0648,1.0232,1.0065,0.9815,0.898,0.7893,0.6804,0.5798,0.4796,0.3293,0.2044,0.1119,0.0173,-0.0875,-0.2042,-0.2313,-0.2942,-0.3675,-0.3947,-0.4128,-0.4576,-0.4596,-0.4889,-0.5376,-0.5576,-0.6078,-0.6969,-0.7999,-0.8728,-0.9434,-1.0799,-1.2466,-1.3995,-1.5286,-1.6239,-1.7034,-1.7592,-1.7916,-1.7997,-1.803,-1.807,-1.8245,-1.8363,-1.8456,-1.8549,-1.893,-1.9302,-1.9573,-1.9851,-2.0408,-2.1232,-2.1971,-2.2933,-2.3846,-2.3857,-2.3722,-2.3913,-2.3903,-2.4415,-2.5273,-2.5982,-2.6608,-2.7044,-2.7995,-2.8668,-2.9105,-2.9451,-2.9631,-2.981,-2.999,-3.0106,-3.0326,-3.0478,-3.054,-3.0884,-3.1062,-3.1568,-3.182,-3.2425,-3.1894,-3.0917,-3.0025,-2.9322,-2.886,-2.8681,-2.8411,-2.8038,-2.7845,-2.8385,-2.8924,-2.9565,-3.0369,-3.1362,-3.2411,-3.3292,1.861,1.8428,1.7208,1.6386,1.5966,1.5471,1.4901,1.4232,1.3983,1.3652,1.3321,1.2816,1.265,1.265,1.2235,1.1986,1.1902,1.1403,1.082,1.0065,0.9147,0.8558,0.8307,0.8227,0.7391,0.6298,0.5043,0.4126,0.3124,0.1788,0.0688,-0.0174,-0.0791,-0.1774,-0.2771,-0.3046,-0.3499,-0.4216,-0.4397,-0.4673,-0.5134,-0.5346,-0.5652,-0.6058,-0.6663,-0.7452,-0.8341,-0.9105,-0.964,-1.0101,-1.1749,-1.3204,-1.4408,-1.5817,-1.6895,-1.7553,-1.8119,-1.8414,-1.8439,-1.8524,-1.8439,-1.8549,-1.8837,-1.9023,-1.9209,-1.9581,-2.013,-2.0686,-2.0686,-2.1621,-2.2964,-2.462,-2.5765,-2.6376,-2.7057,-2.7041,-2.6429,-2.6085,-2.6453,-2.7561,-2.795,-2.8248,-2.8663,-2.9365,-3.0214,-3.0415,-3.0736,-3.1007,-3.1187,-3.1471,-3.1713,-3.1864,-3.1958,-3.2112,-3.2438,-3.2778,-3.344,-3.4128,-3.5162,-3.5059,-3.3819,-3.294,-3.2071,-3.154,-3.1777,-3.1511,-3.0979,-3.1067,-3.1763,-3.2382,-3.3072,-3.3876,-3.4679,-3.5707,-3.6572,1.8238,1.7117,1.6684,1.6087,1.5479,1.4728,1.4232,1.3983,1.3321,1.2982,1.2733,1.2401,1.2235,1.2152,1.1736,1.1403,1.0904,1.0404,0.9653,0.8064,0.7474,0.6298,0.5795,0.6214,0.5963,0.4705,0.3614,0.2618,0.1617,0.0428,-0.0777,-0.1668,-0.2206,-0.293,-0.3852,-0.4037,-0.4305,-0.4753,-0.4933,-0.5406,-0.6073,-0.6283,-0.6614,-0.7164,-0.7802,-0.879,-0.9942,-1.0611,-1.1543,-1.256,-1.3297,-1.4226,-1.548,-1.6893,-1.7941,-1.8439,-1.9023,-1.9302,-1.9395,-1.9294,-1.9387,-1.9387,-1.9488,-1.9674,-2.0037,-2.0594,-2.1242,-2.1971,-2.2534,-2.3446,-2.5177,-2.6851,-2.7977,-2.8606,-2.9187,-2.9741,-2.9952,-2.9177,-2.9005,-2.9794,-3.0425,-3.0805,-3.0845,-3.1249,-3.1728,-3.177,-3.2029,-3.2302,-3.2637,-3.3046,-3.3349,-3.3545,-3.3918,-3.4169,-3.4552,-3.5077,-3.5867,-3.6654,-3.7671,-3.8511,-3.7277,-3.6555,-3.5934,-3.5446,-3.5059,-3.4679,-3.4473,-3.5012,-3.5864,-3.6226,-3.6728,-3.7673,-3.851,-3.9293,-4.0205,1.703,1.6048,1.5723,1.5127,1.448,1.3983,1.3569,1.3155,1.265,1.2401,1.2318,1.1986,1.1653,1.1403,1.0987,1.0404,0.9648,0.8813,0.7642,0.6301,0.5631,0.4453,0.311,0.353,0.353,0.2692,0.203,0.1106,0.0,-0.1123,-0.2096,-0.2825,-0.337,-0.4014,-0.4841,-0.4935,-0.538,-0.6016,-0.6308,-0.6793,-0.7188,-0.7632,-0.8173,-0.8848,-0.9389,-1.0266,-1.1967,-1.2345,-1.3287,-1.4422,-1.5174,-1.5643,-1.6306,-1.7523,-1.8363,-1.8837,-1.9395,-1.9674,-1.9674,-1.9767,-1.9767,-2.0037,-2.0223,-2.0779,-2.1325,-2.1879,-2.2862,-2.3846,-2.4649,-2.5361,-2.7361,-2.8976,-3.0056,-3.0677,-3.1261,-3.2056,-3.2496,-3.1511,-3.0756,-3.1536,-3.1941,-3.2259,-3.2563,-3.3114,-3.3288,-3.3474,-3.408,-3.4352,-3.4503,-3.4833,-3.5149,-3.5462,-3.5922,-3.6377,-3.6757,-3.7441,-3.8408,-3.923,-4.0126,-4.1137,-4.1249,-4.0727,-4.0289,-3.9547,-3.8613,-3.8715,-3.8595,-3.9225,-3.9801,-4.0289,-4.0942,-4.1713,-4.2461,-4.3332,-4.4295,1.5628,1.5051,1.4631,1.3976,1.3314,1.3155,1.2823,1.2235,1.1986,1.1902,1.1819,1.1403,1.0904,1.0404,1.007,0.9314,0.8227,0.6885,0.5631,0.4539,0.3868,0.2606,0.1429,0.1093,0.1009,0.0674,0.034,-0.0513,-0.1552,-0.262,-0.3351,-0.39,-0.4285,-0.5107,-0.5828,-0.6099,-0.6467,-0.7294,-0.7877,-0.8304,-0.862,-0.9103,-0.9862,-1.0988,-1.1207,-1.225,-1.3664,-1.4322,-1.4892,-1.6306,-1.7141,-1.7421,-1.7608,-1.7981,-1.8642,-1.9209,-1.986,-2.0232,-2.0325,-2.0325,-2.0501,-2.0779,-2.1232,-2.2063,-2.2892,-2.3772,-2.48,-2.6053,-2.7092,-2.8186,-2.987,-3.1234,-3.2191,-3.2701,-3.3436,-3.4202,-3.4583,-3.3521,-3.3251,-3.3336,-3.3862,-3.4231,-3.44,-3.486,-3.4969,-3.5212,-3.5831,-3.6447,-3.6627,-3.6929,-3.7369,-3.7892,-3.8469,-3.9245,-3.9652,-4.0471,-4.1421,-4.2321,-4.3074,-4.4198,-4.5186,-4.5575,-4.5062,-4.3016,-4.2231,-4.2461,-4.2856,-4.3496,-4.3988,-4.4437,-4.5149,-4.5938,-4.6661,-4.7401,-4.833,1.4803,1.3728,1.3645,1.3065,1.2401,1.2318,1.2235,1.2069,1.1653,1.132,1.0904,1.0487,0.9815,0.923,0.898,0.8223,0.6885,0.5292,0.395,0.2942,0.2186,0.0925,-0.0168,-0.0757,-0.1262,-0.1772,-0.1958,-0.2235,-0.2774,-0.3599,-0.4524,-0.5182,-0.5465,-0.6186,-0.717,-0.762,-0.7926,-0.8783,-0.9286,-0.9734,-1.0305,-1.0845,-1.1761,-1.2993,-1.3193,-1.4322,-1.5737,-1.6299,-1.686,-1.8261,-1.8532,-1.9006,-1.9564,-1.9944,-2.013,-2.0315,-2.0964,-2.1436,-2.1436,-2.1898,-2.235,-2.28,-2.3076,-2.3822,-2.4873,-2.5823,-2.6961,-2.8628,-3.0412,-3.1912,-3.2682,-3.3608,-3.4568,-3.523,-3.5587,-3.6066,-3.6729,-3.6728,-3.6344,-3.6329,-3.6405,-3.6282,-3.6512,-3.6863,-3.7166,-3.7451,-3.7905,-3.8646,-3.9115,-3.9526,-4.0078,-4.0549,-4.1159,-4.1934,-4.2802,-4.3728,-4.4681,-4.57,-4.666,-4.7933,-4.9033,-5.0373,-4.9898,-4.843,-4.7107,-4.6863,-4.7321,-4.7776,-4.8344,-4.8928,-4.9541,-5.023,-5.101,-5.1804,-5.2509,1.3728,1.274,1.2733,1.2318,1.1819,1.1736,1.157,1.132,1.0904,1.057,1.0237,0.9653,0.898,0.8395,0.7805,0.6801,0.5125,0.3446,0.2271,0.1513,0.0504,-0.0589,-0.1766,-0.2355,-0.304,-0.3824,-0.4287,-0.4405,-0.4353,-0.5037,-0.597,-0.6621,-0.6812,-0.7527,-0.8701,-0.9097,-0.9676,-1.0464,-1.1287,-1.1851,-1.254,-1.3057,-1.399,-1.4866,-1.5362,-1.6299,-1.7787,-1.8253,-1.8812,-1.9834,-2.0306,-2.0677,-2.114,-2.1602,-2.1694,-2.1519,-2.2165,-2.2718,-2.2811,-2.3271,-2.4005,-2.4452,-2.4898,-2.5879,-2.708,-2.8232,-2.952,-3.1505,-3.3144,-3.471,-3.5252,-3.5866,-3.6498,-3.7177,-3.7547,-3.8083,-3.8634,-3.9184,-3.935,-3.9275,-3.8661,-3.8429,-3.8569,-3.8935,-3.935,-3.9731,-4.0095,-4.0804,-4.1616,-4.2228,-4.2765,-4.3634,-4.4348,-4.5405,-4.6316,-4.727,-4.8358,-4.9328,-5.0468,-5.168,-5.2944,-5.4382,-5.502,-5.4592,-5.3394,-5.2224,-5.1585,-5.1973,-5.2684,-5.3411,-5.3957,-5.4549,-5.5357,-5.611,-5.678,1.265,1.1986,1.1986,1.1653,1.132,1.1153,1.0904,1.057,1.007,0.9736,0.9569,0.8729,0.7976,0.7307,0.6214,0.4873,0.3278,0.1598,0.0589,-0.0084,-0.1261,-0.2355,-0.3279,-0.4126,-0.49,-0.5546,-0.6726,-0.6955,-0.6127,-0.6744,-0.7513,-0.8153,-0.8331,-0.9237,-1.0426,-1.085,-1.1713,-1.2841,-1.3701,-1.4388,-1.5018,-1.558,-1.6306,-1.7141,-1.7328,-1.8168,-1.9834,-2.0112,-2.0492,-2.1232,-2.1787,-2.2248,-2.2432,-2.326,-2.3444,-2.3076,-2.3444,-2.3719,-2.4086,-2.4909,-2.573,-2.6458,-2.722,-2.8355,-2.9807,-3.1268,-3.2822,-3.4798,-3.6113,-3.713,-3.7652,-3.8067,-3.8634,-3.9184,-3.9731,-4.0186,-4.0804,-4.1436,-4.2156,-4.1796,-4.1002,-4.0894,-4.1238,-4.1165,-4.1706,-4.2425,-4.2783,-4.33,-4.41,-4.4983,-4.5667,-4.6781,-4.7718,-4.8856,-4.991,-5.0944,-5.2145,-5.3383,-5.4586,-5.5842,-5.7112,-5.8403,-5.8971,-5.9622,-5.9482,-5.8315,-5.7251,-5.6533,-5.7503,-5.8219,-5.8463,-5.8867,-5.9483,-6.0226,-6.0944,1.1986,1.1486,1.1486,1.1237,1.0737,1.0404,1.0237,1.007,0.923,0.8645,0.8311,0.7307,0.6469,0.5295,0.3447,0.2271,0.1262,-0.0168,-0.1261,-0.1849,-0.3026,-0.4201,-0.5125,-0.5963,-0.6768,-0.7522,-0.8809,-0.8375,-0.8009,-0.8639,-0.9215,-0.9754,-1.0382,-1.122,-1.2651,-1.2975,-1.3641,-1.5117,-1.5945,-1.6687,-1.7638,-1.7872,-1.8439,-1.9091,-1.9462,-2.0112,-2.151,-2.1787,-2.2063,-2.2442,-2.2995,-2.3444,-2.3903,-2.4727,-2.5377,-2.556,-2.556,-2.5286,-2.556,-2.664,-2.7842,-2.8693,-2.9623,-3.0958,-3.2898,-3.4925,-3.6612,-3.8321,-3.9092,-3.964,-4.0186,-4.064,-4.1093,-4.1706,-4.2317,-4.2944,-4.3586,-4.4081,-4.4719,-4.5247,-4.4681,-4.4347,-4.4365,-4.4118,-4.4048,-4.4757,-4.5442,-4.5968,-4.6734,-4.7753,-4.8849,-4.9934,-5.1133,-5.2292,-5.3411,-5.4499,-5.5922,-5.7287,-5.855,-5.9843,-6.1058,-6.2172,-6.3564,-6.4079,-6.4124,-6.4165,-6.3115,-6.2674,-6.2988,-6.2994,-6.3006,-6.3188,-6.3484,-6.423,-6.494,1.0987,1.0987,1.0737,1.057,1.032,0.9903,0.9569,0.9147,0.8395,0.7725,0.7056,0.5795,0.4456,0.2943,0.1178,0.0252,-0.0505,-0.2017,-0.3026,-0.3698,-0.4873,-0.6047,-0.6965,-0.7813,-0.8623,-0.9687,-1.073,-1.1634,-1.105,-1.0952,-1.1172,-1.1705,-1.2414,-1.354,-1.5047,-1.5485,-1.6734,-1.8026,-1.9087,-1.993,-2.0464,-2.076,-2.1038,-2.1685,-2.1685,-2.2422,-2.3168,-2.3536,-2.3811,-2.428,-2.4738,-2.5103,-2.5639,-2.6458,-2.7365,-2.7546,-2.8449,-2.8256,-2.7636,-2.8899,-3.0057,-3.1256,-3.2502,-3.447,-3.6648,-3.8301,-3.9858,-4.1401,-4.1706,-4.2156,-4.2872,-4.3408,-4.3834,-4.4454,-4.514,-4.5842,-4.6366,-4.6908,-4.7428,-4.7946,-4.8442,-4.8077,-4.7733,-4.7215,-4.7128,-4.7408,-4.8184,-4.8764,-4.9786,-5.1136,-5.2221,-5.3378,-5.4557,-5.5744,-5.6945,-5.8073,-5.949,-6.0826,-6.2138,-6.3433,-6.4709,-6.6006,-6.7272,-6.8456,-6.892,-6.8785,-6.8549,-6.7754,-6.6902,-6.7128,-6.7588,-6.7541,-6.7548,-6.7844,-6.8547,1.007,1.0153,0.9986,0.9903,0.9736,0.9235,0.8733,0.8144,0.7139,0.6469,0.5628,0.4034,0.2186,0.0673,-0.0673,-0.1681,-0.227,-0.3866,-0.4873,-0.5795,-0.6797,-0.7885,-0.8971,-0.982,-1.0829,-1.1892,-1.3114,-1.3946,-1.4472,-1.4583,-1.4434,-1.4007,-1.497,-1.6156,-1.7396,-1.8262,-1.9346,-2.0995,-2.2138,-2.2862,-2.3158,-2.325,-2.3525,-2.3892,-2.4167,-2.4441,-2.5183,-2.5366,-2.5548,-2.6015,-2.6561,-2.6912,-2.7456,-2.8616,-2.9515,-2.9963,-3.1034,-3.1554,-3.1151,-3.1653,-3.2612,-3.3948,-3.5932,-3.8197,-4.0235,-4.1386,-4.2389,-4.4081,-4.4612,-4.514,-4.5842,-4.6453,-4.6955,-4.7474,-4.7991,-4.8678,-4.9361,-4.9955,-5.0441,-5.0862,-5.1471,-5.1993,-5.1471,-5.0716,-5.0378,-5.0231,-5.0737,-5.1554,-5.2861,-5.4522,-5.555,-5.6646,-5.7727,-5.9025,-6.0429,-6.1659,-6.3092,-6.4417,-6.5626,-6.6992,-6.8287,-6.945,-7.0564,-7.1802,-7.2861,-7.3406,-7.3114,-7.1899,-7.0771,-7.1096,-7.1374,-7.1509,-7.1576,-7.1685,-7.1864,0.9235,0.8896,0.9235,0.9151,0.8729,0.8311,0.7642,0.6717,0.5463,0.4623,0.3698,0.1933,0.0084,-0.1177,-0.2606,-0.3696,-0.4535,-0.5879,-0.6968,-0.7885,-0.8808,-1.0055,-1.1137,-1.2158,-1.3054,-1.4245,-1.5547,-1.6564,-1.7518,-1.8592,-1.7929,-1.7175,-1.7947,-1.907,-2.0097,-2.1163,-2.2282,-2.3732,-2.4785,-2.5252,-2.5434,-2.5525,-2.5707,-2.5992,-2.6174,-2.6356,-2.6821,-2.7003,-2.7275,-2.7727,-2.8346,-2.8976,-2.9784,-3.1034,-3.1834,-3.2617,-3.3762,-3.4478,-3.4818,-3.4549,-3.5191,-3.7006,-3.9419,-4.1992,-4.3611,-4.4995,-4.6036,-4.6868,-4.7647,-4.8335,-4.9105,-4.9722,-5.0188,-5.0757,-5.1322,-5.2094,-5.2674,-5.3086,-5.3601,-5.3952,-5.4522,-5.5228,-5.5768,-5.5054,-5.3802,-5.3579,-5.4291,-5.5101,-5.6415,-5.7883,-5.8818,-5.9845,-6.0885,-6.2207,-6.3867,-6.5257,-6.6397,-6.7717,-6.9089,-7.0401,-7.1802,-7.2861,-7.3655,-7.4609,-7.5631,-7.6683,-7.7457,-7.6122,-7.5168,-7.5141,-7.5136,-7.4903,-7.4695,-7.4656,-7.4847,0.7729,0.7139,0.6972,0.7139,0.7471,0.7056,0.6134,0.4957,0.395,0.2354,0.0673,-0.1009,-0.227,-0.3278,-0.4705,-0.5712,-0.6546,-0.8052,-0.9221,-1.0304,-1.1303,-1.2548,-1.3624,-1.4653,-1.5581,-1.7137,-1.8304,-1.9533,-2.0786,-2.1891,-2.2439,-2.2115,-2.1684,-2.1973,-2.297,-2.4397,-2.5681,-2.6509,-2.7443,-2.7895,-2.8166,-2.8243,-2.8346,-2.8436,-2.8526,-2.8796,-2.9156,-2.9246,-2.9515,-2.9963,-3.0664,-3.1465,-3.2248,-3.3586,-3.4535,-3.532,-3.6551,-3.76,-3.839,-3.7986,-3.8221,-4.1298,-4.3697,-4.5667,-4.6848,-4.8163,-4.9361,-5.0209,-5.0968,-5.1616,-5.2756,-5.3273,-5.3765,-5.4232,-5.4858,-5.5607,-5.6144,-5.6622,-5.7152,-5.7678,-5.8118,-5.8688,-5.923,-5.9615,-5.8143,-5.6987,-5.7854,-5.8688,-6.0049,-6.121,-6.218,-6.3185,-6.4201,-6.5387,-6.7021,-6.8345,-6.9575,-7.0976,-7.2396,-7.3472,-7.4609,-7.5522,-7.6322,-7.7303,-7.8106,-7.895,-7.9465,-7.9651,-7.928,-7.8571,-7.8119,-7.7893,-7.7699,-7.7375,-7.7386,0.6134,0.5463,0.4873,0.5125,0.5795,0.5295,0.4372,0.3194,0.2102,0.0252,-0.2187,-0.353,-0.4537,-0.5376,-0.6885,-0.8056,-0.8971,-1.0304,-1.1552,-1.2631,-1.3707,-1.5028,-1.6098,-1.7117,-1.8211,-1.9933,-2.1191,-2.2316,-2.392,-2.4973,-2.5859,-2.6296,-2.6078,-2.6278,-2.617,-2.7927,-2.9246,-2.9707,-3.0231,-3.0678,-3.1123,-3.1123,-3.1109,-3.1198,-3.1376,-3.154,-3.1894,-3.2071,-3.2499,-3.3028,-3.3659,-3.4432,-3.5391,-3.6432,-3.7466,-3.8528,-3.9639,-4.0941,-4.1586,-4.1714,-4.2111,-4.5087,-4.7021,-4.8787,-5.0294,-5.1387,-5.2613,-5.3743,-5.4337,-5.5067,-5.6407,-5.7018,-5.757,-5.8172,-5.8666,-5.9309,-5.9845,-6.0277,-6.0833,-6.136,-6.1835,-6.2254,-6.2892,-6.3331,-6.2471,-6.1331,-6.1633,-6.245,-6.3404,-6.4488,-6.5485,-6.6536,-6.757,-6.8786,-7.01,-7.1265,-7.249,-7.3892,-7.5136,-7.6023,-7.704,-7.7903,-7.8808,-7.9668,-8.0418,-8.1071,-8.15,-8.184,-8.1735,-8.1453,-8.0882,-8.0136,-7.9643,-7.9217,-7.9231,0.4453,0.3952,0.311,0.3194,0.3782,0.311,0.227,0.1177,-0.0168,-0.1933,-0.4034,-0.5457,-0.6546,-0.755,-0.9137,-1.0304,-1.138,-1.2714,-1.4038,-1.511,-1.609,-1.7173,-1.84,-1.9581,-2.0947,-2.2326,-2.3833,-2.5471,-2.6999,-2.813,-2.9328,-3.0553,-3.0876,-3.0634,-2.9339,-3.0905,-3.2086,-3.2631,-3.3058,-3.3586,-3.3937,-3.401,-3.4097,-3.4185,-3.4519,-3.4766,-3.5099,-3.536,-3.5967,-3.6744,-3.7089,-3.7947,-3.9377,-4.0223,-4.1267,-4.2326,-4.3901,-4.5032,-4.5649,-4.5588,-4.7127,-4.875,-5.0399,-5.1927,-5.3131,-5.4441,-5.5928,-5.7152,-5.7727,-5.8843,-5.9845,-6.0835,-6.1337,-6.2058,-6.255,-6.3038,-6.3549,-6.3957,-6.4461,-6.4961,-6.5415,-6.5866,-6.6565,-6.698,-6.648,-6.5992,-6.5866,-6.6314,-6.698,-6.7774,-6.8786,-6.9719,-7.0787,-7.1869,-7.3044,-7.4193,-7.5432,-7.686,-7.7816,-7.855,-7.9295,-8.0121,-8.1036,-8.1922,-8.2471,-8.2883,-8.3478,-8.4058,-8.3861,-8.3564,-8.2697,-8.1992,-8.1458,-8.1044,-8.0982,0.2606,0.2103,0.1261,0.0757,0.0588,0.084,0.042,-0.0757,-0.2772,-0.4703,-0.6295,-0.7634,-0.872,-0.9805,-1.1137,-1.2548,-1.3783,-1.5342,-1.6664,-1.7574,-1.8717,-2.0008,-2.1254,-2.2682,-2.4097,-2.5684,-2.7197,-2.8606,-2.9964,-3.1212,-3.2299,-3.3526,-3.5097,-3.4844,-3.3708,-3.4235,-3.532,-3.5581,-3.6172,-3.6691,-3.6863,-3.7105,-3.7363,-3.7347,-3.7844,-3.8357,-3.8833,-3.9088,-3.9765,-4.0775,-4.111,-4.211,-4.3351,-4.4273,-4.5311,-4.6552,-4.8064,-4.9232,-5.1166,-5.2529,-5.2935,-5.3465,-5.3942,-5.548,-5.7042,-5.8405,-5.9666,-6.0708,-6.1484,-6.2651,-6.3776,-6.43,-6.4945,-6.5838,-6.6397,-6.6814,-6.7227,-6.757,-6.8046,-6.8585,-6.9044,-6.9749,-7.0465,-7.105,-7.0769,-7.0577,-7.0449,-7.0146,-7.0594,-7.1201,-7.1928,-7.286,-7.3923,-7.4929,-7.5942,-7.6864,-7.7792,-7.8968,-7.9921,-8.0712,-8.1513,-8.2209,-8.2883,-8.3571,-8.4112,-8.464,-8.5078,-8.5504,-8.5806,-8.5554,-8.4755,-8.3809,-8.3048,-8.2644,-8.251,0.0841,0.0336,-0.0589,-0.143,-0.2017,-0.1512,-0.1848,-0.3362,-0.546,-0.7052,-0.839,-0.9888,-1.1137,-1.221,-1.3452,-1.4781,-1.618,-1.7647,-1.9105,-2.0018,-2.1556,-2.297,-2.4363,-2.5812,-2.7445,-2.9005,-3.0565,-3.1895,-3.3252,-3.4441,-3.5736,-3.7276,-3.9058,-3.9232,-3.8441,-3.8499,-3.8477,-3.8818,-3.9413,-3.9903,-4.0241,-4.0643,-4.0961,-4.1277,-4.1778,-4.2359,-4.2919,-4.3476,-4.3968,-4.5028,-4.5756,-4.648,-4.7538,-4.8662,-4.9728,-5.1096,-5.2907,-5.4521,-5.705,-5.8602,-5.8852,-5.9006,-5.8848,-5.9437,-6.0909,-6.2154,-6.3404,-6.4417,-6.5344,-6.6397,-6.7364,-6.7842,-6.866,-6.9618,-7.0176,-7.05,-7.0983,-7.1365,-7.1617,-7.218,-7.2707,-7.3501,-7.4221,-7.4897,-7.5176,-7.5093,-7.5035,-7.4631,-7.413,-7.4518,-7.4987,-7.5853,-7.6753,-7.7705,-7.8588,-7.9398,-8.0236,-8.1132,-8.1887,-8.2661,-8.3277,-8.391,-8.4564,-8.5117,-8.5542,-8.5918,-8.6389,-8.6777,-8.7016,-8.711,-8.6841,-8.5832,-8.4756,-8.4179,-8.3787,-0.1008,-0.1513,-0.2355,-0.3281,-0.3868,-0.3864,-0.4954,-0.6801,-0.7805,-0.898,-1.031,-1.205,-1.3459,-1.4856,-1.618,-1.7483,-1.8799,-2.018,-2.1577,-2.2854,-2.4344,-2.5909,-2.7506,-2.9109,-3.0725,-3.2361,-3.3838,-3.5206,-3.6682,-3.8018,-3.9456,-4.0977,-4.2642,-4.3277,-4.3201,-4.293,-4.2411,-4.2525,-4.2895,-4.3535,-4.4172,-4.4498,-4.5109,-4.5594,-4.6239,-4.6938,-4.7554,-4.8086,-4.895,-4.9674,-5.0217,-5.124,-5.2342,-5.3481,-5.4633,-5.6327,-5.8449,-6.0649,-6.2465,-6.365,-6.4839,-6.5039,-6.4242,-6.4092,-6.4577,-6.5922,-6.7073,-6.8027,-6.8964,-6.9951,-7.0916,-7.1711,-7.2491,-7.3196,-7.386,-7.4277,-7.4775,-7.5156,-7.5387,-7.5763,-7.6249,-7.6864,-7.7597,-7.8272,-7.856,-7.8922,-7.8719,-7.8582,-7.8145,-7.7564,-7.8047,-7.8503,-7.9449,-8.0418,-8.118,-8.1713,-8.2321,-8.3024,-8.3628,-8.433,-8.4963,-8.5429,-8.5955,-8.6389,-8.6742,-8.7188,-8.7577,-8.7861,-8.8083,-8.8123,-8.813,-8.7078,-8.5702,-8.5209,-8.4824,-0.2327,-0.2829,-0.3688,-0.4626,-0.5631,-0.7383,-0.8553,-0.9221,-1.0055,-1.1303,-1.2962,-1.412,-1.5604,-1.7083,-1.8391,-1.9927,-2.1453,-2.3095,-2.4646,-2.6069,-2.7634,-2.9369,-3.1035,-3.2634,-3.41,-3.5588,-3.7019,-3.8522,-3.9947,-4.148,-4.2917,-4.4201,-4.5847,-4.6996,-4.7761,-4.8091,-4.7254,-4.6699,-4.706,-4.756,-4.833,-4.8803,-4.9485,-5.0239,-5.0779,-5.1523,-5.2387,-5.2866,-5.3785,-5.477,-5.5209,-5.6233,-5.7899,-5.8439,-5.9319,-6.2084,-6.4177,-6.61,-6.734,-6.8552,-6.9708,-7.0836,-7.0745,-7.0032,-6.9827,-6.9957,-7.0987,-7.1745,-7.2614,-7.3675,-7.4446,-7.5234,-7.5975,-7.6646,-7.7118,-7.7498,-7.7927,-7.8192,-7.8403,-7.8819,-7.9297,-7.9751,-8.0512,-8.0961,-8.1318,-8.1978,-8.2252,-8.2102,-8.1736,-8.1035,-8.072,-8.1138,-8.1748,-8.2591,-8.3155,-8.367,-8.4283,-8.4884,-8.5391,-8.5808,-8.6246,-8.674,-8.7217,-8.7577,-8.7892,-8.8227,-8.8644,-8.8841,-8.8979,-8.9152,-8.9118,-8.7882,-8.6799,-8.6326,-8.553,-0.3787,-0.4468,-0.5161,-0.644,-0.8386,-1.0471,-1.1884,-1.2784,-1.279,-1.3707,-1.5358,-1.6664,-1.8137,-1.9836,-2.1211,-2.2659,-2.4418,-2.599,-2.7634,-2.9301,-3.1182,-3.293,-3.4677,-3.6158,-3.7589,-3.8981,-4.0376,-4.1748,-4.3297,-4.518,-4.6757,-4.722,-4.8795,-5.0209,-5.1386,-5.2401,-5.288,-5.2142,-5.1798,-5.1897,-5.2429,-5.3183,-5.3981,-5.477,-5.5309,-5.6132,-5.7255,-5.77,-5.8499,-5.9648,-6.0225,-6.137,-6.3034,-6.3863,-6.5355,-6.7955,-6.9322,-7.0682,-7.1842,-7.2916,-7.4025,-7.5163,-7.627,-7.6085,-7.5239,-7.4895,-7.5163,-7.5546,-7.6391,-7.7249,-7.7907,-7.8574,-7.9297,-7.9985,-8.0232,-8.0526,-8.0769,-8.1008,-8.134,-8.176,-8.2161,-8.2556,-8.3033,-8.35,-8.3887,-8.4263,-8.4629,-8.4754,-8.4322,-8.3661,-8.3316,-8.3387,-8.3934,-8.4577,-8.5084,-8.5432,-8.5845,-8.6281,-8.6703,-8.711,-8.7544,-8.7861,-8.8197,-8.8616,-8.8952,-8.922,-8.9427,-8.9641,-8.9825,-8.992,-8.9892,-8.9066,-8.8064,-8.7333,-8.6384,-0.5224,-0.6177,-0.6766,-0.888,-1.1629,-1.3128,-1.5103,-1.7238,-1.6082,-1.6164,-1.781,-1.9359,-2.0969,-2.2487,-2.386,-2.5516,-2.7333,-2.8997,-3.0824,-3.2401,-3.4572,-3.6552,-3.8316,-3.9721,-4.1067,-4.2551,-4.3869,-4.503,-4.6662,-4.8483,-4.9937,-5.0386,-5.1877,-5.3448,-5.5032,-5.6209,-5.712,-5.8114,-5.699,-5.6416,-5.659,-5.7261,-5.8112,-5.9163,-5.9759,-6.0416,-6.1658,-6.2455,-6.3036,-6.421,-6.5333,-6.6412,-6.8046,-6.9762,-7.1782,-7.2998,-7.4048,-7.5035,-7.6029,-7.6965,-7.7893,-7.8926,-7.988,-8.0426,-8.0,-7.8654,-7.8445,-7.8959,-7.9747,-8.0239,-8.0837,-8.1401,-8.2067,-8.2505,-8.2726,-8.3066,-8.3323,-8.3542,-8.3798,-8.4161,-8.4398,-8.4787,-8.5021,-8.5438,-8.5664,-8.6208,-8.6595,-8.6936,-8.6728,-8.6099,-8.57,-8.5476,-8.5809,-8.6208,-8.6456,-8.6838,-8.7243,-8.7635,-8.7948,-8.822,-8.8483,-8.8841,-8.9189,-8.9465,-8.9725,-8.993,-9.0152,-9.0307,-9.0415,-9.0478,-9.0367,-9.012,-8.9388,-8.8384,-8.7269,-0.6661,-0.7898,-0.9734,-1.1922,-1.4024,-1.5679,-1.7474,-1.9359,-2.0312,-2.0473,-2.0575,-2.1534,-2.3048,-2.5041,-2.6385,-2.8125,-3.0206,-3.2069,-3.4034,-3.6006,-3.8077,-3.9989,-4.1911,-4.2995,-4.4442,-4.5775,-4.7,-4.8411,-5.0244,-5.1901,-5.3139,-5.375,-5.511,-5.6625,-5.8678,-5.9786,-6.0979,-6.2867,-6.2801,-6.1558,-6.1146,-6.1564,-6.2285,-6.3241,-6.4016,-6.4721,-6.5899,-6.6967,-6.785,-6.8966,-7.023,-7.1608,-7.3181,-7.5032,-7.632,-7.7301,-7.8098,-7.9027,-7.9892,-8.0665,-8.1505,-8.2313,-8.3196,-8.3937,-8.3656,-8.2107,-8.1632,-8.2302,-8.2822,-8.321,-8.3626,-8.4192,-8.4669,-8.494,-8.5134,-8.5475,-8.5772,-8.5992,-8.6207,-8.6348,-8.6559,-8.673,-8.697,-8.7202,-8.7529,-8.7842,-8.8242,-8.8569,-8.8608,-8.8172,-8.7656,-8.7439,-8.7455,-8.775,-8.791,-8.8085,-8.8417,-8.8673,-8.8958,-8.9209,-8.9427,-8.9676,-8.9938,-9.0181,-9.0436,-9.0541,-9.0643,-9.08,-9.0895,-9.0914,-9.0837,-9.0588,-8.9991,-8.9034,-8.8039,-0.8484,-0.9898,-1.2695,-1.4942,-1.6794,-1.8372,-2.0231,-2.2178,-2.3608,-2.4485,-2.4723,-2.4961,-2.5832,-2.772,-2.9138,-3.0823,-3.3078,-3.5082,-3.6968,-3.9164,-4.1278,-4.3235,-4.4785,-4.6167,-4.7394,-4.8745,-5.0596,-5.2197,-5.3792,-5.5195,-5.631,-5.7075,-5.8289,-6.0012,-6.2107,-6.308,-6.4502,-6.6672,-6.7456,-6.7155,-6.5971,-6.6124,-6.609,-6.6914,-6.7754,-6.8671,-6.9969,-7.1118,-7.2094,-7.3392,-7.4787,-7.6366,-7.7746,-7.9144,-8.0088,-8.0889,-8.1666,-8.2488,-8.3274,-8.3977,-8.4652,-8.5335,-8.5879,-8.64,-8.6888,-8.5512,-8.5044,-8.5555,-8.5519,-8.5916,-8.5987,-8.6412,-8.6719,-8.6988,-8.7119,-8.7317,-8.7507,-8.7724,-8.7876,-8.8063,-8.8122,-8.8159,-8.8371,-8.8485,-8.8774,-8.8937,-8.9453,-8.9638,-8.9745,-8.9862,-8.9413,-8.9149,-8.9084,-8.9001,-8.9039,-8.9223,-8.949,-8.9749,-8.9892,-9.0076,-9.0231,-9.0444,-9.0684,-9.0762,-9.0839,-9.0971,-9.1098,-9.1185,-9.1219,-9.1202,-9.1142,-9.1082,-9.0362,-8.9662,-8.8694,-1.0638,-1.2443,-1.5513,-1.7943,-1.9735,-2.113,-2.306,-2.5304,-2.6477,-2.8033,-2.9511,-2.9046,-2.9604,-3.0777,-3.2217,-3.396,-3.5788,-3.7877,-3.9849,-4.1961,-4.4145,-4.6073,-4.769,-4.8938,-5.055,-5.2335,-5.4237,-5.563,-5.6956,-5.834,-5.9606,-6.0434,-6.1839,-6.3535,-6.5111,-6.6595,-6.8162,-6.9597,-7.0624,-7.1477,-7.1096,-7.0521,-7.0048,-7.0273,-7.1146,-7.2369,-7.371,-7.4922,-7.5938,-7.7275,-7.8831,-8.0327,-8.1534,-8.2515,-8.3167,-8.3937,-8.4577,-8.5223,-8.588,-8.6402,-8.7031,-8.7667,-8.8155,-8.8538,-8.8948,-8.8885,-8.8371,-8.8232,-8.8186,-8.8076,-8.8135,-8.8259,-8.8523,-8.8726,-8.8808,-8.8941,-8.9098,-8.9263,-8.9402,-8.9538,-8.9514,-8.9514,-8.9625,-8.9759,-8.99,-9.0076,-9.0231,-9.0423,-9.0528,-9.0627,-9.0433,-9.0294,-9.0232,-9.0181,-9.0076,-9.012,-9.0296,-9.0398,-9.0523,-9.0781,-9.0971,-9.0987,-9.1041,-9.1095,-9.1202,-9.1253,-9.1303,-9.1368,-9.14,-9.1415,-9.1431,-9.1315,-9.0945,-9.0188,-8.9344,-1.3106,-1.5993,-1.821,-2.0196,-2.1994,-2.37,-2.5384,-2.7278,-2.9138,-3.0839,-3.2429,-3.3926,-3.4301,-3.3583,-3.4843,-3.6553,-3.87,-4.0622,-4.2759,-4.492,-4.6842,-4.8849,-5.0734,-5.2216,-5.4144,-5.6022,-5.766,-5.8884,-6.0194,-6.1664,-6.2943,-6.385,-6.5657,-6.7237,-6.8721,-7.0072,-7.1155,-7.245,-7.3353,-7.414,-7.4173,-7.3671,-7.3384,-7.3994,-7.5105,-7.6304,-7.7464,-7.8688,-7.9612,-8.0831,-8.2283,-8.3625,-8.4532,-8.5221,-8.5845,-8.6297,-8.6976,-8.744,-8.7956,-8.8326,-8.8871,-8.928,-8.9679,-8.9964,-9.0302,-9.0524,-9.0225,-9.0186,-9.003,-8.9543,-8.9526,-8.9588,-8.9802,-8.9847,-8.9936,-9.0105,-9.0253,-9.0311,-9.0391,-9.0449,-9.0449,-9.0449,-9.047,-9.0607,-9.0704,-9.0856,-9.0926,-9.1065,-9.1171,-9.1275,-9.1338,-9.1307,-9.122,-9.1073,-9.0876,-9.0762,-9.0894,-9.0987,-9.1041,-9.1181,-9.1303,-9.1319,-9.1352,-9.1384,-9.1454,-9.1485,-9.1531,-9.1546,-9.1576,-9.1591,-9.162,-9.1557,-9.1209,-9.0629,-8.9715]},{"header":{"parameterUnit":"m.s-1","parameterCategory":1,"la1":31.0,"la2":29.5877,"lo1":-88.7671,"lo2":-86.6584,"dy":0.0162,"dx":0.0185,"nx":115,"ny":88,"refTime":"2023-10-09T06:00:00:Z","depth":0,"parameterNumber":3,"parameterNumberName":"V-component_of_WINDS"},"data":[0.0,0.0,0.0,0.0,0.0,0.0,0.0,0.0,0.0,0.0,0.0,0.0,0.0,0.0,0.0,0.0,0.0,0.0,0.0,0.0,0.0,0.0,0.0,0.0,0.0,0.0,0.0,0.0,0.0,0.0,0.0,0.0,0.0,0.0,0.0,0.0,0.0,0.0,0.0,0.0,0.0,0.0,0.0,0.0,0.0,0.0,0.0,0.0,0.0,0.0,0.0,0.0,0.0,0.0,0.0,0.0,0.0,0.0,0.0,0.0,0.0,0.0,0.0,0.0,0.0,0.0,0.0,0.0,0.0,0.0,0.0,0.0,0.0,0.0,0.0,0.0,0.0,0.0,0.0,0.0,0.0,0.0,0.0,0.0,0.0,0.0,0.0,0.0,0.0,0.0,0.0,0.0,0.0,0.0,0.0,0.0,0.0,0.0,0.0,0.0,0.0,0.0,0.0,0.0,0.0,0.0,0.0,0.0,0.0,0.0,0.0,0.0,0.0,0.0,0.0,0.0,0.0,0.0,0.0,0.0,0.0,0.0,0.0,0.0,0.0,0.0,0.0,0.0,0.0,0.0,0.0,0.0,0.0,0.0,0.0,0.0,0.0,0.0,0.0,0.0,0.0,0.0,0.0,0.0,0.0,0.0,0.0,0.0,0.0,0.0,0.0,0.0,0.0,0.0,0.0,0.0,0.0,0.0,0.0,0.0,0.0,0.0,0.0,0.0,0.0,0.0,0.0,0.0,0.0,0.0,0.0,0.0,0.0,0.0,0.0,0.0,0.0,0.0,0.0,0.0,0.0,0.0,0.0,0.0,0.0,0.0,0.0,0.0,0.0,0.0,0.0,0.0,0.0,0.0,0.0,0.0,0.0,0.0,0.0,0.0,0.0,0.0,0.0,0.0,0.0,0.0,0.0,0.0,0.0,0.0,0.0,0.0,0.0,0.0,0.0,0.0,0.0,0.0,0.0,0.0,0.0,0.0,0.0,0.0,0.0,0.0,0.0,0.0,0.0,0.0,0.0,0.0,0.0,0.0,0.0,0.0,0.0,0.0,0.0,0.0,0.0,0.0,0.0,0.0,0.0,0.0,0.0,0.0,0.0,0.0,0.0,0.0,0.0,0.0,0.0,0.0,0.0,0.0,0.0,0.0,0.0,0.0,0.0,0.0,0.0,0.0,0.0,0.0,0.0,0.0,0.0,0.0,0.0,0.0,0.0,0.0,0.0,0.0,0.0,0.0,0.0,0.0,0.0,0.0,0.0,0.0,0.0,0.0,0.0,0.0,0.0,0.0,0.0,0.0,0.0,0.0,0.0,0.0,0.0,0.0,0.0,0.0,0.0,0.0,0.0,0.0,0.0,0.0,0.0,0.0,0.0,0.0,0.0,0.0,0.0,0.0,0.0,0.0,0.0,0.0,0.0,0.0,0.0,0.0,0.0,0.0,0.0,0.0,0.0,0.0,0.0,0.0,0.0,0.0,0.0,0.0,0.0,0.0,0.0,0.0,0.0,0.0,0.0,0.0,0.0,0.0,0.0,0.0,0.0,0.0,0.0,0.0,0.0,0.0,0.0,0.0,0.0,0.0,0.0,0.0,0.0,0.0,0.0,0.0,0.0,0.0,0.0,0.0,0.0,0.0,0.0,0.0,0.0,0.0,0.0,0.0,0.0,0.0,0.0,0.0,0.0,0.0,0.0,0.0,0.0,0.0,0.0,0.0,0.0,0.0,0.0,0.0,0.0,0.0,0.0,0.0,0.0,0.0,0.0,0.0,0.0,0.0,0.0,0.0,0.0,0.0,0.0,0.0,0.0,0.0,0.0,0.0,0.0,0.0,0.0,0.0,0.0,0.0,0.0,0.0,0.0,0.0,0.0,0.0,0.0,0.0,0.0,0.0,0.0,0.0,0.0,0.0,0.0,0.0,0.0,0.0,0.0,0.0,0.0,0.0,0.0,0.0,0.0,0.0,0.0,0.0,0.0,0.0,0.0,0.0,0.0,0.0,0.0,0.0,0.0,0.0,0.0,0.0,0.0,0.0,0.0,0.0,0.0,0.0,0.0,0.0,0.0,0.0,0.0,0.0,0.0,0.0,0.0,0.0,0.0,0.0,0.0,0.0,0.0,0.0,0.0,0.0,0.0,0.0,0.0,0.0,0.0,0.0,0.0,0.0,0.0,0.0,0.0,0.0,0.0,0.0,0.0,0.0,0.0,0.0,0.0,0.0,0.0,0.0,0.0,0.0,0.0,0.0,0.0,0.0,0.0,0.0,0.0,0.0,0.0,0.0,0.0,0.0,0.0,0.0,0.0,0.0,0.0,0.0,0.0,0.0,0.0,0.0,0.0,0.0,0.0,0.0,0.0,0.0,0.0,0.0,0.0,0.0,0.0,0.0,0.0,0.0,0.0,0.0,0.0,0.0,0.0,0.0,0.0,0.0,0.0,0.0,0.0,0.0,0.0,0.0,0.0,0.0,0.0,0.0,0.0,0.0,0.0,0.0,0.0,0.0,0.0,0.0,0.0,0.0,0.0,0.0,0.0,0.0,0.0,0.0,0.0,0.0,0.0,0.0,0.0,0.0,0.0,0.0,0.0,0.0,0.0,0.0,0.0,0.0,0.0,0.0,0.0,0.0,0.0,0.0,0.0,0.0,0.0,0.0,0.0,0.0,0.0,0.0,0.0,0.0,0.0,0.0,0.0,0.0,0.0,0.0,0.0,0.0,0.0,0.0,0.0,0.0,0.0,0.0,0.0,0.0,0.0,0.0,0.0,0.0,0.0,0.0,0.0,0.0,0.0,0.0,0.0,0.0,0.0,0.0,0.0,0.0,0.0,0.0,0.0,0.0,0.0,0.0,0.0,0.0,0.0,0.0,0.0,0.0,0.0,0.0,0.0,0.0,0.0,0.0,0.0,0.0,0.0,0.0,0.0,0.0,0.0,0.0,0.0,0.0,0.0,0.0,0.0,0.0,0.0,0.0,0.0,0.0,0.0,0.0,0.0,0.0,0.0,0.0,0.0,0.0,0.0,0.0,0.0,0.0,0.0,0.0,0.0,0.0,0.0,0.0,0.0,0.0,0.0,0.0,0.0,0.0,0.0,0.0,0.0,0.0,0.0,0.0,0.0,0.0,0.0,0.0,0.0,0.0,0.0,0.0,0.0,0.0,0.0,0.0,0.0,0.0,0.0,0.0,0.0,0.0,0.0,0.0,0.0,0.0,0.0,0.0,0.0,0.0,0.0,0.0,0.0,0.0,0.0,0.0,0.0,0.0,0.0,0.0,0.0,0.0,0.0,0.0,0.0,0.0,0.0,0.0,0.0,0.0,0.0,0.0,0.0,0.0,0.0,0.0,0.0,0.0,0.0,0.0,0.0,0.0,0.0,0.0,0.0,0.0,0.0,0.0,0.0,0.0,0.0,0.0,0.0,0.0,0.0,0.0,0.0,0.0,0.0,0.0,0.0,0.0,0.0,0.0,0.0,0.0,0.0,0.0,0.0,0.0,0.0,0.0,0.0,0.0,0.0,0.0,0.0,0.0,0.0,0.0,0.0,0.0,0.0,0.0,0.0,0.0,0.0,0.0,0.0,0.0,0.0,0.0,0.0,0.0,0.0,0.0,0.0,0.0,0.0,0.0,0.0,0.0,0.0,0.0,0.0,0.0,0.0,0.0,0.0,0.0,0.0,0.0,0.0,0.0,0.0,0.0,0.0,0.0,0.0,0.0,0.0,0.0,0.0,0.0,0.0,0.0,0.0,0.0,0.0,0.0,0.0,0.0,0.0,0.0,0.0,0.0,0.0,0.0,0.0,0.0,0.0,0.0,0.0,0.0,0.0,0.0,0.0,0.0,0.0,0.0,0.0,0.0,0.0,0.0,0.0,0.0,0.0,0.0,0.0,0.0,0.0,0.0,0.0,0.0,0.0,0.0,0.0,0.0,0.0,0.0,0.0,0.0,0.0,0.0,0.0,0.0,0.0,0.0,0.0,0.0,0.0,0.0,0.0,0.0,0.0,0.0,0.0,0.0,0.0,0.0,0.0,0.0,0.0,0.0,0.0,0.0,0.0,0.0,0.0,0.0,0.0,0.0,0.0,0.0,0.0,0.0,0.0,0.0,0.0,0.0,0.0,0.0,0.0,0.0,0.0,0.0,0.0,0.0,0.0,0.0,0.0,0.0,0.0,0.0,0.0,0.0,0.0,0.0,0.0,0.0,0.0,0.0,0.0,0.0,0.0,0.0,0.0,0.0,0.0,0.0,0.0,0.0,0.0,0.0,0.0,0.0,4.5159,0.0,0.0,0.0,0.0,0.0,0.0,0.0,0.0,0.0,0.0,0.0,0.0,0.0,0.0,0.0,0.0,0.0,0.0,0.0,0.0,0.0,0.0,0.0,0.0,0.0,0.0,0.0,0.0,0.0,0.0,0.0,0.0,0.0,0.0,0.0,0.0,0.0,0.0,0.0,0.0,0.0,0.0,0.0,0.0,0.0,0.0,0.0,0.0,0.0,0.0,0.0,0.0,0.0,0.0,0.0,0.0,0.0,0.0,0.0,0.0,0.0,0.0,0.0,0.0,0.0,0.0,0.0,0.0,0.0,0.0,0.0,0.0,0.0,0.0,0.0,0.0,0.0,0.0,0.0,0.0,0.0,0.0,0.0,0.0,0.0,0.0,0.0,0.0,0.0,0.0,0.0,0.0,0.0,0.0,0.0,0.0,0.0,0.0,0.0,0.0,0.0,0.0,0.0,0.0,0.0,0.0,0.0,0.0,0.0,0.0,4.6939,4.6504,4.6142,4.584,4.5523,0.0,0.0,0.0,0.0,0.0,0.0,0.0,0.0,0.0,0.0,0.0,0.0,0.0,0.0,0.0,0.0,0.0,0.0,0.0,0.0,0.0,0.0,0.0,0.0,0.0,0.0,0.0,0.0,0.0,0.0,0.0,0.0,0.0,0.0,0.0,0.0,0.0,0.0,0.0,0.0,0.0,0.0,0.0,0.0,0.0,0.0,0.0,0.0,0.0,0.0,0.0,0.0,0.0,0.0,0.0,0.0,0.0,0.0,0.0,0.0,0.0,0.0,0.0,0.0,0.0,0.0,0.0,0.0,0.0,0.0,0.0,0.0,0.0,0.0,0.0,0.0,0.0,0.0,0.0,0.0,0.0,0.0,0.0,0.0,0.0,0.0,0.0,0.0,0.0,0.0,0.0,0.0,0.0,0.0,0.0,0.0,0.0,0.0,0.0,0.0,0.0,0.0,0.0,0.0,0.0,0.0,0.0,0.0,0.0,0.0,0.0,0.0,4.6794,4.6565,4.6088,0.0,0.0,0.0,0.0,0.0,0.0,0.0,0.0,0.0,0.0,0.0,0.0,0.0,0.0,0.0,0.0,0.0,0.0,0.0,0.0,0.0,0.0,0.0,0.0,0.0,0.0,0.0,0.0,0.0,0.0,0.0,0.0,0.0,0.0,0.0,0.0,0.0,0.0,0.0,0.0,0.0,0.0,0.0,0.0,0.0,0.0,0.0,0.0,0.0,0.0,0.0,0.0,0.0,0.0,0.0,0.0,0.0,0.0,0.0,0.0,0.0,0.0,0.0,0.0,0.0,0.0,0.0,0.0,0.0,0.0,0.0,0.0,0.0,0.0,0.0,0.0,0.0,0.0,0.0,0.0,0.0,0.0,0.0,0.0,0.0,0.0,0.0,0.0,0.0,0.0,0.0,0.0,0.0,0.0,0.0,0.0,0.0,0.0,0.0,0.0,0.0,0.0,0.0,0.0,0.0,0.0,0.0,0.0,0.0,0.0,4.7663,4.7569,4.7591,0.0,4.7753,0.0,0.0,0.0,0.0,0.0,0.0,0.0,0.0,0.0,0.0,0.0,0.0,0.0,0.0,0.0,0.0,0.0,0.0,0.0,0.0,0.0,0.0,0.0,0.0,0.0,0.0,0.0,0.0,0.0,0.0,0.0,0.0,0.0,0.0,0.0,0.0,0.0,0.0,0.0,0.0,0.0,0.0,0.0,0.0,0.0,0.0,0.0,0.0,0.0,0.0,0.0,0.0,0.0,0.0,0.0,0.0,0.0,0.0,0.0,0.0,0.0,0.0,0.0,0.0,0.0,0.0,0.0,0.0,0.0,0.0,0.0,0.0,0.0,0.0,0.0,0.0,0.0,0.0,0.0,0.0,0.0,0.0,0.0,0.0,0.0,0.0,0.0,0.0,0.0,0.0,0.0,0.0,0.0,0.0,0.0,0.0,0.0,0.0,0.0,0.0,0.0,0.0,0.0,0.0,0.0,0.0,0.0,0.0,0.0,0.0,4.7699,4.7699,4.7699,4.7804,0.0,0.0,0.0,0.0,0.0,0.0,0.0,0.0,0.0,0.0,0.0,0.0,0.0,0.0,0.0,0.0,0.0,0.0,0.0,0.0,0.0,0.0,0.0,0.0,0.0,0.0,0.0,0.0,0.0,0.0,0.0,0.0,0.0,0.0,0.0,0.0,0.0,0.0,0.0,0.0,0.0,0.0,0.0,0.0,0.0,0.0,0.0,0.0,0.0,0.0,0.0,0.0,0.0,0.0,0.0,0.0,0.0,0.0,0.0,0.0,0.0,0.0,0.0,0.0,0.0,0.0,0.0,0.0,0.0,0.0,0.0,0.0,0.0,0.0,0.0,0.0,0.0,0.0,0.0,0.0,0.0,0.0,0.0,0.0,0.0,0.0,0.0,0.0,0.0,0.0,0.0,0.0,0.0,0.0,0.0,0.0,0.0,0.0,0.0,0.0,0.0,0.0,0.0,0.0,0.0,0.0,0.0,0.0,0.0,0.0,4.7699,4.7699,4.7699,4.7699,4.7804,4.7992,0.0,0.0,0.0,0.0,0.0,0.0,0.0,0.0,0.0,0.0,0.0,0.0,0.0,0.0,0.0,0.0,0.0,0.0,0.0,0.0,0.0,0.0,0.0,0.0,0.0,0.0,0.0,0.0,0.0,0.0,0.0,0.0,0.0,0.0,0.0,0.0,0.0,0.0,0.0,0.0,0.0,0.0,0.0,0.0,0.0,0.0,0.0,0.0,0.0,0.0,0.0,0.0,0.0,0.0,0.0,0.0,0.0,0.0,0.0,0.0,0.0,0.0,0.0,0.0,0.0,0.0,0.0,0.0,0.0,0.0,0.0,0.0,0.0,0.0,0.0,0.0,0.0,0.0,0.0,0.0,0.0,0.0,0.0,0.0,0.0,0.0,0.0,0.0,0.0,0.0,0.0,0.0,0.0,0.0,0.0,0.0,0.0,0.0,0.0,0.0,0.0,0.0,0.0,0.0,0.0,0.0,0.0,0.0,4.7699,4.7699,4.7699,4.7699,4.7699,4.7804,0.0,0.0,0.0,0.0,0.0,0.0,0.0,0.0,0.0,0.0,0.0,0.0,0.0,0.0,0.0,0.0,0.0,0.0,0.0,0.0,0.0,0.0,0.0,0.0,0.0,0.0,0.0,0.0,0.0,0.0,0.0,0.0,0.0,0.0,0.0,0.0,0.0,0.0,0.0,0.0,0.0,0.0,0.0,0.0,0.0,0.0,0.0,0.0,0.0,0.0,0.0,0.0,0.0,0.0,0.0,0.0,0.0,0.0,0.0,0.0,0.0,0.0,0.0,0.0,0.0,0.0,0.0,0.0,0.0,0.0,0.0,0.0,0.0,0.0,0.0,0.0,0.0,0.0,0.0,0.0,0.0,0.0,0.0,0.0,0.0,0.0,0.0,0.0,0.0,0.0,0.0,0.0,0.0,0.0,0.0,0.0,0.0,0.0,0.0,0.0,0.0,0.0,0.0,0.0,0.0,0.0,0.0,0.0,0.0,4.7699,4.7699,4.7699,4.7699,4.7798,4.7866,0.0,0.0,0.0,0.0,0.0,0.0,0.0,0.0,0.0,0.0,0.0,0.0,0.0,0.0,0.0,0.0,0.0,0.0,0.0,0.0,0.0,0.0,0.0,0.0,0.0,0.0,0.0,0.0,0.0,0.0,0.0,0.0,0.0,0.0,0.0,0.0,0.0,0.0,0.0,0.0,0.0,0.0,0.0,0.0,0.0,0.0,0.0,0.0,0.0,0.0,0.0,0.0,0.0,0.0,0.0,0.0,0.0,0.0,0.0,0.0,0.0,0.0,0.0,0.0,0.0,0.0,0.0,0.0,0.0,0.0,0.0,0.0,0.0,0.0,0.0,0.0,0.0,0.0,0.0,0.0,0.0,0.0,0.0,0.0,0.0,0.0,0.0,0.0,0.0,0.0,0.0,0.0,0.0,0.0,0.0,0.0,0.0,0.0,0.0,0.0,0.0,0.0,0.0,0.0,0.0,0.0,0.0,0.0,0.0,4.7699,0.0,4.7699,4.7699,4.784,4.7963,0.0,0.0,0.0,0.0,0.0,0.0,0.0,0.0,0.0,0.0,0.0,0.0,0.0,0.0,0.0,0.0,0.0,0.0,0.0,0.0,0.0,0.0,0.0,0.0,0.0,0.0,0.0,0.0,0.0,0.0,0.0,0.0,0.0,0.0,0.0,0.0,0.0,0.0,0.0,0.0,0.0,0.0,0.0,0.0,0.0,0.0,0.0,0.0,0.0,0.0,0.0,0.0,0.0,0.0,0.0,0.0,0.0,0.0,0.0,0.0,0.0,0.0,0.0,0.0,0.0,0.0,0.0,0.0,0.0,0.0,0.0,0.0,0.0,0.0,0.0,0.0,0.0,0.0,0.0,0.0,0.0,0.0,0.0,0.0,0.0,0.0,0.0,0.0,0.0,0.0,0.0,0.0,0.0,0.0,0.0,0.0,0.0,0.0,0.0,0.0,0.0,0.0,0.0,0.0,0.0,0.0,0.0,0.0,4.7735,4.7772,4.7751,4.7808,4.7735,4.7912,4.804,0.0,0.0,0.0,0.0,0.0,0.0,0.0,0.0,0.0,0.0,0.0,0.0,0.0,0.0,0.0,0.0,0.0,0.0,0.0,0.0,0.0,0.0,0.0,0.0,0.0,0.0,0.0,0.0,0.0,0.0,0.0,0.0,0.0,0.0,0.0,0.0,0.0,0.0,0.0,0.0,0.0,0.0,0.0,0.0,0.0,0.0,0.0,0.0,0.0,0.0,0.0,0.0,0.0,0.0,0.0,0.0,0.0,0.0,0.0,0.0,0.0,0.0,0.0,0.0,0.0,0.0,0.0,0.0,0.0,0.0,0.0,0.0,0.0,0.0,0.0,0.0,0.0,0.0,0.0,0.0,0.0,0.0,0.0,0.0,0.0,0.0,0.0,0.0,0.0,0.0,0.0,0.0,0.0,0.0,0.0,0.0,0.0,0.0,0.0,0.0,0.0,0.0,0.0,0.0,0.0,0.0,0.0,0.0,0.0,4.9329,4.9365,4.9365,4.9351,4.9013,4.8887,0.0,0.0,0.0,0.0,0.0,0.0,0.0,0.0,0.0,0.0,0.0,0.0,0.0,0.0,0.0,0.0,0.0,0.0,0.0,0.0,0.0,0.0,0.0,0.0,0.0,0.0,0.0,0.0,0.0,0.0,0.0,0.0,0.0,0.0,0.0,0.0,0.0,0.0,0.0,0.0,0.0,0.0,0.0,0.0,0.0,0.0,0.0,0.0,0.0,0.0,0.0,0.0,0.0,0.0,0.0,0.0,0.0,0.0,0.0,0.0,0.0,0.0,0.0,0.0,0.0,0.0,0.0,0.0,0.0,0.0,0.0,0.0,0.0,0.0,0.0,0.0,0.0,0.0,0.0,0.0,0.0,0.0,0.0,0.0,0.0,0.0,0.0,0.0,0.0,0.0,0.0,0.0,0.0,0.0,0.0,0.0,0.0,0.0,0.0,0.0,0.0,0.0,0.0,0.0,0.0,0.0,0.0,0.0,0.0,5.1447,5.0605,5.0112,5.0156,4.9862,4.9667,4.9515,0.0,0.0,0.0,0.0,0.0,0.0,0.0,0.0,0.0,0.0,0.0,0.0,0.0,0.0,0.0,0.0,0.0,0.0,0.0,0.0,0.0,0.0,0.0,0.0,0.0,0.0,0.0,0.0,0.0,0.0,0.0,0.0,0.0,0.0,0.0,0.0,0.0,0.0,0.0,0.0,0.0,0.0,0.0,0.0,0.0,0.0,0.0,0.0,0.0,0.0,0.0,0.0,0.0,0.0,0.0,0.0,0.0,0.0,0.0,0.0,0.0,0.0,0.0,0.0,0.0,0.0,0.0,0.0,0.0,0.0,0.0,0.0,0.0,0.0,0.0,0.0,0.0,0.0,0.0,0.0,0.0,0.0,0.0,0.0,0.0,0.0,0.0,0.0,0.0,0.0,0.0,0.0,0.0,0.0,0.0,0.0,0.0,0.0,0.0,0.0,0.0,0.0,0.0,0.0,0.0,0.0,0.0,0.0,5.4031,5.1724,5.0562,5.0649,5.0717,5.0468,0.0,0.0,0.0,0.0,0.0,0.0,0.0,0.0,0.0,0.0,0.0,0.0,0.0,0.0,0.0,0.0,0.0,0.0,0.0,0.0,0.0,0.0,0.0,0.0,0.0,0.0,0.0,0.0,0.0,0.0,0.0,0.0,0.0,0.0,0.0,0.0,0.0,0.0,0.0,0.0,0.0,0.0,0.0,0.0,0.0,0.0,0.0,0.0,0.0,0.0,0.0,0.0,0.0,0.0,0.0,0.0,0.0,0.0,0.0,0.0,0.0,0.0,0.0,0.0,0.0,0.0,0.0,0.0,0.0,0.0,0.0,0.0,0.0,0.0,0.0,0.0,0.0,0.0,0.0,0.0,0.0,0.0,0.0,0.0,0.0,0.0,0.0,0.0,0.0,0.0,0.0,0.0,0.0,0.0,0.0,0.0,0.0,0.0,0.0,0.0,0.0,0.0,0.0,0.0,0.0,0.0,0.0,0.0,0.0,5.5627,5.5186,5.4633,5.4048,5.3045,5.2541,0.0,0.0,0.0,0.0,0.0,0.0,0.0,0.0,0.0,0.0,0.0,0.0,0.0,0.0,0.0,0.0,0.0,0.0,0.0,0.0,0.0,0.0,0.0,0.0,0.0,0.0,0.0,0.0,0.0,0.0,0.0,0.0,0.0,0.0,0.0,0.0,0.0,0.0,0.0,0.0,0.0,0.0,0.0,0.0,0.0,0.0,0.0,0.0,0.0,0.0,0.0,0.0,0.0,0.0,0.0,0.0,0.0,0.0,0.0,0.0,0.0,0.0,0.0,0.0,0.0,0.0,0.0,0.0,0.0,0.0,0.0,0.0,0.0,0.0,0.0,0.0,0.0,0.0,0.0,0.0,0.0,0.0,0.0,0.0,0.0,0.0,0.0,0.0,0.0,0.0,0.0,0.0,0.0,0.0,0.0,0.0,0.0,0.0,0.0,0.0,0.0,0.0,0.0,0.0,0.0,0.0,0.0,0.0,5.5493,5.7111,5.79,5.8125,5.784,5.5923,5.4515,0.0,0.0,0.0,0.0,0.0,0.0,0.0,0.0,0.0,0.0,0.0,0.0,0.0,0.0,0.0,0.0,0.0,0.0,0.0,0.0,0.0,0.0,0.0,0.0,0.0,0.0,0.0,0.0,0.0,0.0,0.0,0.0,0.0,0.0,0.0,0.0,0.0,0.0,0.0,0.0,0.0,0.0,0.0,0.0,0.0,0.0,0.0,0.0,0.0,0.0,0.0,0.0,0.0,0.0,0.0,0.0,0.0,0.0,0.0,0.0,0.0,0.0,0.0,0.0,0.0,0.0,0.0,0.0,0.0,0.0,0.0,0.0,0.0,0.0,0.0,0.0,0.0,0.0,0.0,0.0,0.0,0.0,0.0,0.0,0.0,0.0,0.0,0.0,0.0,0.0,0.0,0.0,0.0,0.0,0.0,0.0,0.0,0.0,0.0,0.0,0.0,0.0,0.0,0.0,0.0,0.0,0.0,0.0,5.7678,5.8637,6.0149,6.1084,6.1394,5.8858,5.6425,0.0,0.0,0.0,0.0,0.0,0.0,0.0,0.0,0.0,0.0,0.0,0.0,0.0,0.0,0.0,0.0,0.0,0.0,0.0,0.0,0.0,0.0,0.0,0.0,0.0,0.0,0.0,0.0,0.0,0.0,0.0,0.0,0.0,0.0,0.0,0.0,0.0,0.0,0.0,0.0,0.0,0.0,0.0,0.0,0.0,0.0,0.0,0.0,0.0,0.0,0.0,0.0,0.0,0.0,0.0,0.0,0.0,0.0,0.0,0.0,0.0,0.0,0.0,0.0,0.0,0.0,0.0,0.0,0.0,0.0,0.0,0.0,0.0,0.0,0.0,0.0,0.0,0.0,0.0,0.0,0.0,0.0,0.0,0.0,0.0,0.0,0.0,0.0,0.0,0.0,0.0,0.0,0.0,0.0,0.0,0.0,0.0,0.0,0.0,0.0,0.0,0.0,0.0,0.0,0.0,0.0,0.0,0.0,5.9478,6.1471,6.2547,6.317,6.3236,6.0094,5.7962,0.0,0.0,0.0,0.0,0.0,0.0,0.0,0.0,0.0,0.0,0.0,0.0,0.0,0.0,0.0,0.0,0.0,0.0,0.0,0.0,0.0,0.0,0.0,0.0,0.0,0.0,0.0,0.0,0.0,0.0,0.0,0.0,0.0,0.0,0.0,0.0,0.0,0.0,0.0,0.0,0.0,0.0,0.0,0.0,0.0,0.0,0.0,0.0,5.7334,0.0,0.0,0.0,0.0,0.0,0.0,0.0,0.0,0.0,0.0,0.0,0.0,0.0,0.0,0.0,0.0,0.0,0.0,0.0,0.0,0.0,0.0,0.0,0.0,0.0,0.0,0.0,0.0,0.0,0.0,0.0,0.0,0.0,0.0,0.0,0.0,0.0,0.0,0.0,0.0,0.0,0.0,0.0,0.0,0.0,0.0,0.0,0.0,0.0,0.0,0.0,0.0,0.0,0.0,0.0,0.0,0.0,0.0,0.0,6.0754,6.3093,6.3994,6.4507,6.4476,6.2064,6.0053,0.0,0.0,0.0,0.0,0.0,0.0,0.0,0.0,0.0,0.0,0.0,0.0,0.0,0.0,0.0,0.0,0.0,0.0,0.0,0.0,0.0,0.0,0.0,0.0,0.0,0.0,0.0,0.0,0.0,0.0,0.0,0.0,0.0,0.0,0.0,0.0,0.0,0.0,0.0,0.0,0.0,0.0,0.0,0.0,0.0,0.0,0.0,0.0,0.0,0.0,0.0,0.0,0.0,0.0,0.0,0.0,0.0,0.0,0.0,0.0,0.0,0.0,0.0,0.0,0.0,0.0,0.0,0.0,0.0,0.0,0.0,0.0,0.0,0.0,0.0,0.0,0.0,0.0,0.0,0.0,0.0,0.0,0.0,0.0,0.0,0.0,0.0,0.0,0.0,0.0,0.0,0.0,0.0,0.0,0.0,0.0,0.0,0.0,0.0,0.0,0.0,0.0,0.0,0.0,0.0,0.0,0.0,6.0003,6.1988,6.4192,6.5202,6.5657,6.5628,6.4229,6.2296,5.9815,0.0,0.0,0.0,0.0,0.0,0.0,0.0,0.0,0.0,0.0,0.0,0.0,0.0,0.0,0.0,0.0,0.0,0.0,0.0,0.0,0.0,0.0,0.0,0.0,0.0,0.0,0.0,0.0,0.0,0.0,0.0,0.0,0.0,0.0,0.0,0.0,0.0,0.0,5.5917,5.675,0.0,0.0,0.0,0.0,0.0,0.0,0.0,0.0,6.0436,0.0,0.0,0.0,0.0,0.0,0.0,0.0,0.0,0.0,0.0,0.0,0.0,0.0,0.0,0.0,0.0,0.0,0.0,0.0,0.0,0.0,0.0,0.0,0.0,0.0,0.0,0.0,0.0,0.0,0.0,0.0,0.0,0.0,0.0,0.0,0.0,0.0,0.0,0.0,0.0,0.0,0.0,0.0,0.0,0.0,0.0,0.0,0.0,0.0,0.0,0.0,0.0,0.0,0.0,0.0,0.0,5.9354,6.1712,6.3766,6.548,6.6987,6.7477,6.6819,6.5974,6.4331,6.1762,0.0,0.0,0.0,0.0,0.0,0.0,0.0,0.0,0.0,0.0,0.0,0.0,0.0,0.0,0.0,0.0,0.0,0.0,0.0,0.0,0.0,0.0,0.0,0.0,0.0,0.0,0.0,0.0,0.0,0.0,0.0,0.0,0.0,0.0,0.0,0.0,0.0,0.0,0.0,5.7719,5.8363,0.0,0.0,0.0,0.0,0.0,0.0,0.0,0.0,6.2673,0.0,0.0,0.0,0.0,0.0,0.0,0.0,0.0,0.0,0.0,0.0,0.0,0.0,0.0,0.0,0.0,0.0,0.0,0.0,0.0,0.0,0.0,0.0,0.0,0.0,0.0,0.0,0.0,0.0,0.0,0.0,0.0,0.0,0.0,0.0,0.0,0.0,0.0,0.0,0.0,0.0,0.0,0.0,0.0,0.0,0.0,0.0,0.0,0.0,0.0,0.0,0.0,0.0,0.0,0.0,6.0344,6.2782,6.4841,6.6445,6.7652,6.7917,6.7124,6.639,6.482,0.0,0.0,0.0,0.0,0.0,0.0,0.0,0.0,0.0,0.0,0.0,0.0,0.0,0.0,0.0,0.0,0.0,0.0,0.0,0.0,0.0,0.0,0.0,0.0,0.0,0.0,0.0,0.0,0.0,0.0,0.0,0.0,0.0,0.0,0.0,0.0,0.0,0.0,0.0,0.0,5.8374,5.9267,5.9382,0.0,0.0,0.0,0.0,0.0,0.0,6.3288,6.369,0.0,0.0,0.0,0.0,0.0,0.0,0.0,0.0,0.0,0.0,0.0,0.0,0.0,0.0,0.0,0.0,0.0,0.0,0.0,0.0,0.0,0.0,0.0,0.0,0.0,0.0,0.0,0.0,0.0,0.0,0.0,0.0,0.0,0.0,0.0,0.0,0.0,0.0,0.0,0.0,0.0,0.0,0.0,0.0,0.0,0.0,0.0,0.0,0.0,0.0,0.0,0.0,0.0,0.0,0.0,6.1283,6.3722,6.569,6.7107,6.8127,6.8165,6.7183,6.6428,6.4801,0.0,0.0,0.0,0.0,0.0,0.0,0.0,0.0,0.0,0.0,0.0,0.0,0.0,0.0,0.0,0.0,0.0,0.0,0.0,0.0,0.0,0.0,0.0,0.0,0.0,0.0,0.0,0.0,0.0,0.0,0.0,0.0,0.0,0.0,0.0,0.0,0.0,0.0,0.0,0.0,0.0,6.0234,6.061,6.122,0.0,0.0,0.0,0.0,6.4563,6.4726,0.0,0.0,0.0,0.0,0.0,0.0,0.0,0.0,0.0,0.0,0.0,0.0,0.0,0.0,0.0,0.0,0.0,0.0,0.0,0.0,0.0,0.0,0.0,0.0,0.0,0.0,0.0,0.0,0.0,0.0,0.0,0.0,0.0,0.0,0.0,0.0,0.0,0.0,0.0,0.0,0.0,0.0,0.0,0.0,0.0,0.0,0.0,0.0,0.0,0.0,0.0,0.0,0.0,0.0,0.0,0.0,6.2256,6.4681,6.6424,6.7391,6.8906,6.8982,6.7391,6.6538,6.4946,0.0,0.0,0.0,0.0,0.0,0.0,0.0,0.0,0.0,0.0,0.0,0.0,0.0,0.0,0.0,0.0,0.0,0.0,0.0,0.0,0.0,0.0,0.0,0.0,0.0,0.0,0.0,0.0,0.0,0.0,0.0,0.0,0.0,0.0,0.0,0.0,0.0,0.0,0.0,0.0,0.0,6.1536,6.2354,6.2574,6.2971,0.0,0.0,6.4619,6.6223,6.6508,0.0,0.0,0.0,0.0,0.0,0.0,0.0,0.0,0.0,0.0,0.0,0.0,0.0,0.0,0.0,0.0,0.0,0.0,0.0,0.0,0.0,0.0,0.0,0.0,0.0,0.0,0.0,0.0,0.0,0.0,0.0,0.0,0.0,0.0,0.0,0.0,0.0,0.0,0.0,0.0,0.0,0.0,0.0,0.0,0.0,0.0,0.0,0.0,0.0,0.0,0.0,0.0,0.0,0.0,0.0,6.0378,6.2408,6.5343,6.7011,6.7428,6.902,6.9096,6.7428,6.7049,6.5457,0.0,0.0,0.0,0.0,0.0,0.0,0.0,0.0,0.0,0.0,0.0,0.0,0.0,0.0,0.0,0.0,0.0,0.0,0.0,0.0,0.0,0.0,0.0,0.0,0.0,0.0,0.0,0.0,0.0,0.0,0.0,0.0,0.0,0.0,0.0,0.0,0.0,0.0,0.0,0.0,0.0,0.0,6.3398,6.3974,0.0,0.0,0.0,6.6817,6.8075,0.0,0.0,0.0,0.0,0.0,0.0,0.0,0.0,0.0,0.0,0.0,0.0,0.0,0.0,0.0,0.0,0.0,0.0,0.0,0.0,0.0,0.0,0.0,0.0,0.0,0.0,0.0,0.0,0.0,0.0,0.0,0.0,0.0,0.0,0.0,0.0,0.0,0.0,0.0,0.0,0.0,0.0,0.0,0.0,0.0,0.0,0.0,0.0,0.0,0.0,0.0,0.0,0.0,0.0,0.0,0.0,0.0,6.2408,6.5684,6.739,6.7428,6.902,6.9096,6.7466,6.7219,0.0,0.0,0.0,0.0,0.0,0.0,0.0,0.0,0.0,0.0,0.0,0.0,0.0,0.0,0.0,0.0,0.0,0.0,0.0,0.0,0.0,0.0,0.0,0.0,0.0,0.0,0.0,5.6417,0.0,0.0,0.0,0.0,0.0,0.0,0.0,0.0,0.0,0.0,0.0,0.0,0.0,0.0,6.3142,6.4271,6.5182,6.61,0.0,0.0,6.8736,6.9606,6.9723,6.9723,0.0,0.0,0.0,0.0,0.0,0.0,0.0,0.0,0.0,0.0,0.0,0.0,0.0,0.0,0.0,0.0,0.0,0.0,0.0,0.0,0.0,0.0,0.0,0.0,0.0,0.0,0.0,0.0,0.0,0.0,0.0,0.0,0.0,0.0,0.0,0.0,0.0,0.0,0.0,0.0,0.0,0.0,0.0,0.0,0.0,0.0,0.0,0.0,0.0,0.0,0.0,0.0,0.0,0.0,6.0785,6.2463,6.5684,6.739,6.7428,6.902,6.9096,6.7466,6.6721,6.5179,0.0,0.0,0.0,0.0,0.0,0.0,0.0,0.0,0.0,0.0,0.0,0.0,0.0,0.0,0.0,0.0,0.0,0.0,0.0,0.0,0.0,0.0,0.0,0.0,0.0,0.0,0.0,0.0,0.0,0.0,0.0,0.0,0.0,0.0,0.0,0.0,0.0,0.0,0.0,0.0,0.0,6.3457,6.5137,6.6135,6.7003,0.0,6.8736,6.9606,7.0504,7.0621,7.0621,7.0621,0.0,0.0,0.0,0.0,0.0,0.0,0.0,0.0,0.0,0.0,0.0,0.0,0.0,0.0,0.0,0.0,0.0,0.0,0.0,0.0,0.0,0.0,0.0,0.0,0.0,0.0,0.0,0.0,0.0,0.0,0.0,0.0,0.0,0.0,0.0,0.0,0.0,0.0,0.0,0.0,0.0,0.0,0.0,0.0,0.0,0.0,0.0,0.0,0.0,0.0,0.0,0.0,0.0,6.0858,6.2537,6.5859,6.7569,6.7645,6.9203,6.9279,6.7607,6.7351,6.5803,0.0,0.0,0.0,0.0,0.0,0.0,0.0,0.0,0.0,0.0,0.0,0.0,0.0,0.0,0.0,0.0,0.0,0.0,0.0,0.0,0.0,0.0,0.0,0.0,0.0,0.0,0.0,0.0,5.873,5.9519,5.987,0.0,0.0,0.0,0.0,0.0,0.0,0.0,0.0,0.0,0.0,6.4275,6.6057,6.751,0.0,0.0,7.0111,7.1128,7.1441,7.1519,7.148,7.1519,7.105,0.0,0.0,0.0,0.0,0.0,0.0,0.0,0.0,0.0,0.0,0.0,0.0,0.0,0.0,0.0,0.0,0.0,0.0,0.0,0.0,0.0,0.0,0.0,0.0,0.0,0.0,0.0,0.0,0.0,0.0,0.0,0.0,0.0,0.0,0.0,0.0,0.0,0.0,0.0,0.0,0.0,0.0,0.0,0.0,0.0,0.0,0.0,0.0,0.0,0.0,0.0,0.0,6.1218,6.2595,6.596,6.7673,6.7711,6.931,6.9517,6.8181,6.7921,6.6497,0.0,0.0,0.0,0.0,0.0,0.0,0.0,0.0,0.0,0.0,0.0,0.0,0.0,0.0,0.0,0.0,0.0,0.0,0.0,0.0,0.0,0.0,0.0,0.0,0.0,0.0,0.0,0.0,5.9881,6.0666,6.0432,0.0,0.0,0.0,0.0,0.0,0.0,0.0,0.0,0.0,0.0,6.512,6.6583,6.8304,6.9399,6.9411,7.0855,7.1987,7.1987,7.1987,7.1987,7.1987,0.0,0.0,0.0,0.0,0.0,0.0,0.0,0.0,0.0,0.0,0.0,0.0,0.0,0.0,0.0,0.0,0.0,0.0,0.0,0.0,0.0,0.0,0.0,0.0,0.0,0.0,0.0,5.446,0.0,0.0,5.3887,0.0,0.0,0.0,0.0,0.0,0.0,0.0,0.0,0.0,0.0,0.0,0.0,0.0,0.0,0.0,0.0,0.0,0.0,0.0,0.0,0.0,0.0,6.185,6.2649,6.5977,6.7728,6.7766,6.931,6.9819,6.8989,6.8269,6.7133,6.5531,0.0,0.0,0.0,0.0,0.0,0.0,0.0,0.0,0.0,0.0,0.0,0.0,0.0,0.0,0.0,0.0,0.0,0.0,0.0,0.0,0.0,0.0,0.0,0.0,0.0,0.0,6.0237,6.1134,6.133,0.0,0.0,0.0,0.0,0.0,0.0,0.0,0.0,0.0,6.3959,6.4938,6.5767,6.6678,6.8279,6.9411,6.9411,7.0855,7.1987,7.1987,7.1987,7.1987,0.0,0.0,0.0,0.0,0.0,0.0,0.0,0.0,0.0,0.0,0.0,0.0,0.0,0.0,0.0,0.0,0.0,0.0,0.0,0.0,0.0,0.0,0.0,0.0,0.0,0.0,0.0,5.5536,5.5449,0.0,0.0,0.0,0.0,0.0,0.0,0.0,0.0,0.0,0.0,0.0,6.1168,6.1234,0.0,0.0,0.0,0.0,0.0,0.0,0.0,0.0,0.0,0.0,0.0,0.0,6.1955,6.2879,6.6138,6.7888,6.8012,6.9616,7.0101,6.9359,6.8628,6.7243,6.5191,0.0,0.0,0.0,0.0,0.0,0.0,0.0,0.0,0.0,0.0,0.0,0.0,0.0,0.0,0.0,0.0,0.0,0.0,0.0,0.0,0.0,0.0,0.0,0.0,0.0,6.0315,0.0,0.0,0.0,0.0,0.0,0.0,0.0,0.0,0.0,0.0,0.0,6.3152,6.4913,6.5385,6.5853,6.6678,6.8279,6.9411,0.0,0.0,0.0,0.0,0.0,0.0,0.0,0.0,0.0,0.0,0.0,0.0,0.0,0.0,7.364,7.3278,7.3236,7.3161,7.2898,0.0,0.0,0.0,0.0,0.0,0.0,0.0,0.0,0.0,0.0,0.0,0.0,0.0,0.0,5.7066,5.6747,5.671,0.0,0.0,0.0,0.0,0.0,0.0,0.0,0.0,6.0889,6.194,6.335,6.335,6.3503,0.0,6.3503,6.2242,0.0,0.0,0.0,0.0,0.0,0.0,0.0,0.0,6.2624,6.3809,6.6483,6.8097,6.8556,6.9927,7.0454,7.0011,6.9103,6.7443,6.5025,6.4061,6.3019,0.0,0.0,0.0,0.0,0.0,0.0,0.0,0.0,0.0,0.0,0.0,0.0,0.0,0.0,0.0,0.0,0.0,0.0,0.0,0.0,0.0,0.0,0.0,6.1056,0.0,0.0,0.0,0.0,0.0,0.0,0.0,0.0,0.0,6.3047,6.3516,6.4336,6.5429,6.5858,6.6327,6.7146,0.0,0.0,0.0,0.0,0.0,0.0,0.0,7.2456,7.2456,7.3161,7.3869,7.4147,7.4618,7.5165,7.5751,0.0,0.0,7.4731,7.4809,7.4972,7.5019,7.5527,7.5921,7.5926,7.616,7.6394,0.0,0.0,0.0,0.0,5.7005,0.0,0.0,0.0,6.0015,5.9582,0.0,5.8393,0.0,0.0,0.0,0.0,5.7597,5.9305,0.0,0.0,6.2147,6.3405,6.4305,6.4359,6.4726,6.5413,6.4726,6.432,6.4167,6.1798,0.0,0.0,0.0,0.0,0.0,0.0,6.3732,6.5337,6.7034,6.8326,6.9261,7.0218,7.0762,7.0902,6.9611,6.7751,6.5366,6.5249,6.4539,6.2969,6.204,0.0,0.0,0.0,0.0,0.0,0.0,0.0,0.0,0.0,0.0,0.0,0.0,0.0,0.0,0.0,0.0,0.0,0.0,0.0,0.0,6.1252,0.0,0.0,0.0,0.0,0.0,0.0,0.0,0.0,0.0,6.4086,6.3403,6.465,6.5663,6.5702,0.0,0.0,0.0,0.0,6.9765,7.0582,7.1482,7.2068,7.2068,7.2768,7.3354,7.3315,0.0,0.0,7.5848,7.6005,7.6591,7.8114,7.835,7.7644,7.5293,7.5609,7.6082,7.6121,7.7333,7.8349,7.8466,7.8819,7.9444,6.13,0.0,0.0,0.0,0.0,5.9612,5.9832,6.0089,6.0309,6.0234,5.9955,6.0047,0.0,0.0,0.0,0.0,0.0,0.0,6.2557,6.3769,6.4405,6.5436,6.6827,6.6827,6.6957,6.7171,6.6942,6.6827,6.6804,6.5528,6.4,6.2204,0.0,0.0,0.0,0.0,6.4344,6.5452,6.7118,6.8487,6.9409,7.042,7.0747,7.0444,6.9467,6.8357,6.7082,6.5978,6.5178,6.4632,6.3288,0.0,0.0,0.0,0.0,0.0,0.0,0.0,0.0,0.0,0.0,0.0,0.0,0.0,0.0,0.0,0.0,0.0,0.0,0.0,6.2134,6.3032,6.3578,0.0,0.0,0.0,0.0,0.0,0.0,0.0,0.0,0.0,6.6587,6.654,6.6687,0.0,0.0,6.8722,6.8996,6.9744,7.0413,7.0647,7.1975,0.0,7.2949,7.3652,7.4238,7.4238,7.5418,7.6675,7.7538,7.8202,7.8788,7.9257,7.9335,7.9061,7.8475,7.8432,7.8586,7.8666,7.9019,7.9332,7.9335,7.953,7.9726,6.4273,6.2291,6.163,6.1557,6.1851,6.1851,6.2034,6.2365,6.2365,6.223,6.2045,6.2187,6.1766,6.0997,6.1834,0.0,0.0,0.0,6.4666,6.571,6.6176,6.7095,6.8356,6.8432,6.8585,6.889,6.8547,6.8394,6.8394,6.7591,6.6407,6.4879,0.0,6.3427,6.3427,6.3923,6.4947,6.643,6.7538,6.8728,7.0022,7.0772,7.0722,6.9756,6.9282,6.8539,6.7405,6.6441,6.5782,6.5416,6.4142,6.3031,0.0,0.0,0.0,0.0,0.0,0.0,0.0,0.0,0.0,0.0,0.0,5.7575,5.8786,0.0,0.0,0.0,6.1755,6.238,6.3434,6.3981,0.0,0.0,0.0,0.0,0.0,0.0,0.0,6.6561,6.7381,6.8083,6.855,6.8741,6.8812,6.8646,6.908,6.963,7.0333,0.0,7.1439,7.2142,7.312,7.3785,7.3785,7.4801,7.5817,7.6523,7.7422,7.8241,7.8782,7.9327,7.9756,8.0069,8.0188,8.0308,8.062,8.0703,8.0585,8.0272,8.0506,8.0741,8.0742,8.0742,8.0742,6.7026,6.5558,6.4053,6.3723,6.4163,6.42,6.4604,6.5301,6.5301,6.4912,6.4303,6.4414,6.3817,6.268,6.3248,0.0,6.4841,6.5997,6.6531,6.6624,6.7643,6.8547,6.9387,6.9464,6.9884,7.061,6.9846,6.9464,6.9349,6.8585,6.8126,6.7935,6.5719,6.4573,6.4511,6.4511,6.5688,6.815,6.8224,6.9083,7.0875,7.1186,7.0619,6.9205,6.9111,6.8399,6.6907,6.6736,6.6373,6.5617,6.4758,6.3956,6.3206,0.0,0.0,0.0,0.0,0.0,0.0,0.0,0.0,0.0,0.0,0.0,0.0,0.0,0.0,6.3007,6.3945,0.0,6.4609,6.4648,0.0,0.0,0.0,6.5893,6.5894,6.7335,6.8349,6.8473,0.0,0.0,6.9803,7.1209,7.1599,7.0032,6.9796,7.0382,7.1985,7.2224,7.2773,7.4218,7.4648,7.4726,7.4842,7.621,7.7731,7.9125,7.9746,7.9699,7.9714,7.986,8.0133,8.0843,8.105,8.1295,8.2037,8.2129,8.2061,8.121,8.1718,8.2265,8.2187,8.2148,8.2148,6.9302,6.8935,6.8531,6.7063,6.5007,6.5007,6.5154,6.5301,6.5338,6.5191,6.5059,6.5312,6.5416,6.5456,6.5841,6.6196,6.654,6.7099,6.7711,6.8375,6.9344,7.0266,7.1107,7.1794,7.2176,7.2367,7.2176,7.1756,7.1107,7.0877,7.0113,6.8929,6.8279,6.7668,6.7034,6.7018,6.7676,6.9016,6.9112,6.9849,7.1208,7.0834,7.0433,7.0167,6.8945,6.8125,6.7777,6.7122,6.6677,6.6472,6.5652,6.5123,6.4953,6.3358,0.0,0.0,0.0,0.0,0.0,0.0,0.0,0.0,0.0,6.0251,6.1305,0.0,6.2982,0.0,6.5288,6.6457,6.7121,6.7824,0.0,0.0,6.8369,6.8488,6.8535,6.9433,7.0333,7.1006,7.1865,7.261,7.3276,7.3706,7.3824,7.3395,7.3359,7.3515,7.3945,7.394,7.4011,7.4595,7.5681,7.6453,7.661,7.7898,7.9137,7.9572,8.0154,8.0528,8.0519,8.1054,8.1611,8.1787,8.185,8.1949,8.2156,8.2215,8.2154,8.1972,8.2137,8.2299,8.2302,8.2303,8.2303,7.044,7.011,7.011,6.9073,6.751,6.7457,6.7457,6.751,6.7457,6.7457,6.7463,6.7047,6.7083,6.7524,6.7497,6.795,6.8846,6.9187,6.9822,7.0636,7.1269,7.1794,7.2291,7.275,7.2979,7.2979,7.2979,7.275,7.2291,7.1871,7.1221,7.0304,6.9922,6.9518,6.9068,6.838,6.8441,6.9389,6.9988,7.0711,7.1434,7.1101,7.0622,6.9974,6.907,6.8245,6.7536,6.7078,6.682,6.6802,6.5993,6.5538,6.5547,6.4252,6.3339,0.0,0.0,0.0,0.0,0.0,0.0,0.0,0.0,0.0,0.0,0.0,6.5109,6.6369,6.7298,6.8082,6.8564,6.9068,6.9494,6.9891,7.0274,7.0668,7.1036,7.1852,7.2561,7.3052,7.3523,7.3993,7.4506,7.4896,7.5128,7.5163,7.5792,7.5956,7.5299,7.5401,7.5771,7.6152,7.7348,7.8343,7.8685,7.9505,8.0271,8.0619,8.1037,8.1331,8.1304,8.1732,8.2058,8.2026,8.2026,8.2062,8.2117,8.2153,8.2257,8.2659,8.2794,8.2857,8.2881,8.2883,8.2963,7.1027,7.0403,7.0431,7.0515,7.0624,7.0515,7.0432,7.032,7.0184,7.0211,7.03,6.9133,6.8851,6.9228,6.8833,6.9556,7.1158,7.1427,7.2028,7.2782,7.3059,7.317,7.317,7.3284,7.3323,7.3323,7.3323,7.3246,7.3132,7.2367,7.1926,7.168,7.097,7.0582,7.0547,6.9161,6.8882,6.9715,7.078,7.1426,7.1614,7.1573,7.0868,6.9567,6.9263,6.8476,6.7049,6.6868,6.6805,6.6776,6.6127,6.5781,6.5815,6.4974,6.4548,0.0,6.4449,0.0,0.0,0.0,0.0,0.0,0.0,0.0,0.0,6.6485,6.7709,6.9455,6.9546,6.9629,6.9917,6.9938,7.0245,7.097,7.177,7.2511,7.3237,7.4041,7.4553,7.4636,7.4718,7.4804,7.4896,7.5563,7.6103,7.6283,7.7433,7.7792,7.6702,7.6958,7.7628,7.8389,7.9182,7.985,8.0559,8.0864,8.1123,8.1757,8.1859,8.1952,8.1839,8.1887,8.1943,8.1887,8.1928,8.1936,8.1983,8.2124,8.2479,8.3148,8.3449,8.3653,8.3716,8.3728,8.4005,7.2202,7.2055,7.2132,7.2217,7.2244,7.2392,7.1709,7.0444,7.0454,7.0497,7.0628,7.0485,7.0634,7.1027,7.1147,7.156,7.2166,7.2338,7.2599,7.282,7.3615,7.3972,7.401,7.4698,7.5021,7.5059,7.5004,7.466,7.3972,7.3819,7.3055,7.1718,7.1554,7.122,7.0623,0.0,0.0,0.0,7.1186,7.1482,7.1651,7.1063,7.063,7.0423,6.9064,0.0,6.7844,6.7154,6.6817,6.6791,6.6718,0.0,0.0,0.0,0.0,0.0,0.0,0.0,0.0,0.0,0.0,0.0,6.7933,6.7595,6.7308,6.8054,6.932,7.1036,7.1194,7.1753,7.3224,7.3314,7.3345,7.3581,7.3737,7.3899,7.4125,7.4865,7.5384,7.538,7.6009,7.6437,7.6482,7.7228,7.7729,7.7718,7.863,7.9085,7.8831,7.8864,7.9085,7.9306,7.9959,8.0676,8.1481,8.1558,8.1588,8.1776,8.1757,8.1738,8.1765,8.1755,8.1775,8.1718,8.1747,8.1815,8.1852,8.2448,8.3081,8.3221,8.3881,8.4416,8.4564,8.4579,8.4626,7.2524,7.261,7.2667,7.2835,0.0,7.3172,7.2759,7.2084,7.186,7.1601,7.1401,7.1528,7.1576,7.1614,7.1836,7.236,7.3098,7.325,7.3588,7.4132,7.4604,7.4851,7.4851,7.5271,7.5518,7.5518,7.5518,7.5271,7.4851,7.4482,7.3849,7.3062,7.2684,7.231,7.1935,7.1772,7.1555,7.1242,7.1417,7.1575,7.1725,7.1388,7.1048,7.0671,6.9832,0.0,0.0,0.0,0.0,0.0,0.0,0.0,0.0,6.8193,0.0,6.8423,6.8341,6.844,6.8848,6.9227,6.9817,7.064,7.1113,7.0805,6.964,7.0744,7.1857,7.2755,7.2837,7.3156,7.4094,7.4187,7.4326,7.4763,7.4825,7.4989,7.5448,7.5829,7.6109,7.6225,7.6894,7.7438,7.7438,7.8178,7.8676,7.8754,7.9423,7.9981,7.9981,8.0038,8.0177,8.0567,8.0871,8.1262,8.1669,8.1737,8.1737,8.1706,8.1695,8.1674,8.1658,8.168,8.1702,8.1702,8.2023,8.2365,8.2425,8.3136,8.3874,8.4291,8.4764,8.5282,8.5648,8.5597,8.5492,7.2638,7.2751,7.2807,7.3054,7.3398,7.345,7.3665,7.3802,7.3357,0.0,0.0,7.2559,7.243,7.2199,7.238,7.303,7.401,7.4143,7.4615,7.5462,7.5518,7.5518,7.5518,7.5518,7.5518,7.5535,7.5535,7.5535,7.5514,7.491,7.4561,7.4369,7.376,7.3445,7.3332,7.2983,7.2496,7.192,7.1698,7.1697,7.1822,7.1858,7.1581,7.0954,7.0787,7.0368,6.9667,6.9486,6.9413,6.9414,6.9401,6.9483,6.9736,6.9634,6.9646,6.9911,7.0438,7.0775,7.0754,7.138,7.2043,7.2727,7.3531,7.3423,7.2016,7.3189,7.4051,7.4218,7.4217,7.4227,7.4488,7.4538,7.4809,7.5564,7.5614,7.5915,7.6534,7.6623,7.6662,7.6923,7.7514,7.8058,7.8175,7.8912,7.9408,7.9524,8.0165,8.0707,8.0728,8.0814,8.1044,8.1514,8.1589,8.1641,8.1658,8.1658,8.1658,8.1658,8.1658,8.1646,8.1612,8.1751,8.1868,8.191,8.2553,8.3069,8.3235,8.3878,8.4699,8.5397,8.5674,8.5988,8.6591,8.6436,8.6288,7.2955,7.2982,7.3188,7.332,7.3424,7.3753,7.3971,7.4029,7.3777,7.3641,7.3579,7.3701,7.3804,7.3966,7.4185,7.4591,7.5,7.5094,7.5259,7.5518,7.5518,7.5518,7.5518,7.5518,7.5553,7.5566,7.5583,7.5616,7.566,7.5561,7.5178,7.4565,7.4428,7.4182,7.369,7.3745,7.3791,7.3775,7.2422,7.1758,7.1887,7.1897,7.1855,7.1805,7.1108,7.0645,7.0496,6.9842,6.9413,6.9406,6.9338,6.9951,7.1321,7.1297,7.1894,7.3246,7.3374,7.3336,7.3284,7.3388,7.3469,7.3562,7.4282,7.4397,7.3593,7.3623,7.4036,7.4765,7.4833,7.5166,7.5985,7.6051,7.6101,7.6341,7.6428,7.6516,7.6671,7.6661,7.6961,7.763,7.7835,7.8251,7.891,7.9686,8.0228,8.0345,8.0866,8.1469,8.142,8.1529,8.1558,8.1619,8.1635,8.1589,8.1553,8.1528,8.1541,8.1528,8.1541,8.1579,8.1644,8.2109,8.2547,8.2612,8.327,8.3734,8.3811,8.4507,8.5075,8.5436,8.5914,8.6442,8.6649,8.658,8.6655,7.3037,7.3118,7.3331,7.3527,7.3753,7.4113,7.4297,7.4305,7.4229,7.4136,7.409,7.416,7.432,7.4503,7.4712,7.4955,7.5209,7.5264,7.5392,7.5532,7.557,7.5566,7.5616,7.5616,7.5633,7.5666,7.5666,7.566,7.5692,7.5779,7.5641,7.5273,7.5355,7.5333,7.5103,7.4862,7.476,7.488,7.3769,7.3225,7.3302,7.3293,7.3359,7.3381,7.2995,7.2805,7.2807,7.2422,7.2222,7.2168,7.2093,7.2413,7.3094,7.3014,7.3237,7.3886,7.4304,7.4456,7.4397,7.4809,7.5079,7.508,7.5349,7.5426,7.5067,7.508,7.5247,7.5581,7.5633,7.58,7.6287,7.6313,7.6313,7.6374,7.6761,7.707,7.7147,7.7495,7.7921,7.8307,7.8771,7.9197,7.9545,8.0357,8.0898,8.0937,8.1298,8.1491,8.1491,8.1491,8.1528,8.1589,8.1577,8.1541,8.1504,8.1491,8.1491,8.1491,8.1491,8.1697,8.2032,8.26,8.2883,8.3334,8.4014,8.4474,8.4537,8.5232,8.5748,8.5902,8.611,8.6447,8.65,8.6556,8.6661,7.3172,7.3305,7.3424,7.3728,7.4113,7.4432,7.4563,7.4584,7.4584,7.4541,7.4416,7.4372,7.4482,7.4733,7.4836,7.5055,7.5265,7.5338,7.548,7.5616,7.5633,7.5666,7.5692,7.5692,7.5708,7.5763,7.5763,7.574,7.5756,7.5895,7.5925,7.597,7.6062,7.6225,7.6335,7.5855,7.5716,7.5786,7.529,7.4845,7.4506,7.4525,7.4545,7.4599,7.4566,7.4569,7.4569,7.4569,7.4559,7.4496,7.4449,7.4444,7.4552,7.4408,7.4382,7.4397,7.4934,7.5247,7.5221,7.5966,7.6453,7.6453,7.6566,7.664,7.6654,7.6696,7.6646,7.6492,7.6453,7.6531,7.6789,7.6789,7.675,7.6802,7.7356,7.7755,7.7819,7.832,7.8822,7.9015,7.9594,8.0018,8.0365,8.0867,8.1267,8.1267,8.1291,8.1291,8.1291,8.1291,8.1374,8.1466,8.1491,8.1453,8.1453,8.1453,8.144,8.1453,8.1672,8.202,8.2599,8.2907,8.3421,8.414,8.4817,8.525,8.539,8.5799,8.6208,8.6246,8.6285,8.6339,8.6369,8.6375,8.6503,7.3424,7.3589,7.3715,7.4019,7.4454,7.4627,7.4733,7.4854,7.4854,7.4854,7.4812,7.4584,7.4627,7.4874,7.4957,7.5171,7.5465,7.5532,7.5616,7.5676,7.5676,7.5692,7.5708,7.5708,7.5779,7.5864,7.5879,7.5872,7.5932,7.5962,7.6044,7.609,7.6212,7.6335,7.6436,7.6588,7.6721,7.6838,7.686,7.608,7.4603,7.4547,7.4601,7.4606,7.4606,7.457,7.4686,7.4602,7.4586,7.4506,7.448,7.4742,7.5285,7.5227,7.5432,7.6049,7.6083,7.6056,7.6066,7.6741,7.7198,7.7275,7.7852,7.8199,7.8199,7.8237,7.7968,7.7429,7.7237,7.7497,7.8248,7.8286,7.8238,7.8216,7.8461,7.859,7.8615,7.8654,7.9015,7.9825,7.999,8.0288,8.0954,8.1186,8.1277,8.1263,8.1301,8.1263,8.1263,8.1263,8.1263,8.1319,8.1305,8.1358,8.1358,8.1305,8.1449,8.1473,8.2014,8.2568,8.3031,8.3944,8.4918,8.4918,8.5475,8.593,8.5992,8.6137,8.6126,8.6159,8.6159,8.6143,8.6207,8.6238,8.6345,7.3476,7.3615,7.374,7.4066,7.4519,7.4774,7.4877,7.4895,7.5015,7.5035,7.4957,7.4917,7.4917,7.5015,7.519,7.5356,7.5518,7.5616,7.5731,7.5794,7.581,7.5826,7.5872,7.5887,7.5902,7.5955,7.597,7.5947,7.6015,7.6058,7.6062,7.6118,7.6276,7.6393,7.6506,7.6691,7.6871,7.6975,7.7089,7.677,7.6196,7.6124,7.6129,7.6132,7.6133,7.6132,7.6129,7.6077,7.605,7.5963,7.5875,7.5913,7.6134,7.5999,7.5999,7.6288,7.6646,7.7025,7.7497,7.7852,7.8015,7.803,7.8323,7.8492,7.8492,7.8492,7.8554,7.8707,7.8323,7.8184,7.8522,7.856,7.8575,7.8643,7.9028,7.9336,7.9374,7.9798,8.0299,8.0607,8.0645,8.0761,8.1069,8.1184,8.1184,8.1199,8.1184,8.1161,8.1199,8.1184,8.1184,8.1184,8.1184,8.1191,8.134,8.1793,8.1986,8.2179,8.2757,8.3375,8.4016,8.4434,8.5152,8.5653,8.5937,8.612,8.6104,8.6126,8.6094,8.6094,8.6094,8.611,8.6143,8.611,8.6143,7.3501,7.369,7.3875,7.4183,7.4541,7.4836,7.4975,7.4955,7.5094,7.5095,7.5075,7.519,7.5209,7.519,7.5392,7.5553,7.5638,7.5715,7.581,7.5964,7.6156,7.6301,7.6361,7.6361,7.6361,7.6322,7.613,7.6029,7.6044,7.6062,7.6118,7.6198,7.6374,7.6493,7.6594,7.6762,7.6894,7.702,7.7073,7.7138,7.7185,7.7421,7.7422,7.7226,7.7225,7.73,7.7492,7.751,7.755,7.7697,7.7592,7.7462,7.7322,7.7147,7.6958,7.6891,7.7319,7.7876,7.8453,7.8707,7.8861,7.8861,7.9054,7.9208,7.9208,7.9208,7.9477,7.9977,7.9554,7.9246,7.9208,7.9208,7.9208,7.9246,7.9823,8.0169,8.0208,8.0785,8.1016,8.1093,8.1031,8.1077,8.1061,8.1023,8.1023,8.1029,8.1029,8.1029,8.1029,8.1029,8.1068,8.1298,8.1359,8.1439,8.1576,8.2029,8.2492,8.3031,8.3571,8.4288,8.4997,8.509,8.5328,8.5906,8.6049,8.6094,8.611,8.6094,8.606,8.606,8.606,8.6043,8.6009,8.5996,8.5961,7.3653,7.3864,7.4275,7.4476,7.4541,7.4812,7.4917,7.4997,7.5074,7.5113,7.5228,7.545,7.5483,7.5445,7.5535,7.5655,7.5887,7.5956,7.6002,7.6154,7.6769,7.7207,7.7246,7.7246,7.7169,7.6938,7.6322,7.602,7.6076,7.6104,7.6198,7.6386,7.6471,7.6594,7.6754,7.6894,7.702,7.7098,7.7211,7.7225,7.7265,7.7928,7.8005,7.7419,7.7263,7.7647,7.8256,7.8356,7.8636,7.9422,7.9247,7.9126,7.902,7.8766,7.8488,7.8421,7.8415,7.8477,7.8669,7.9323,7.9746,7.9823,8.04,8.09,8.0708,8.0708,8.0785,8.0977,8.09,8.0862,8.0862,8.0708,8.0746,8.0785,8.09,8.0977,8.0977,8.0977,8.1093,8.1093,8.1093,8.1045,8.0904,8.0888,8.0954,8.0941,8.0886,8.0963,8.1078,8.1001,8.1308,8.1751,8.1998,8.205,8.2215,8.2631,8.2955,8.3417,8.4209,8.4863,8.5132,8.544,8.5824,8.6055,8.606,8.606,8.6077,8.606,8.6026,8.6009,8.5975,8.594,8.587,8.5834,8.5779,7.3703,7.3985,7.4342,7.4519,7.4503,7.4836,7.4977,7.5074,7.5723,7.576,7.5565,7.6109,7.6152,7.5753,7.5753,7.607,7.6625,7.6763,7.6793,7.6784,7.6592,7.6476,7.6476,7.6476,7.6476,7.6399,7.613,7.602,7.6104,7.6225,7.635,7.6477,7.6604,7.6746,7.6858,7.6975,7.7043,7.7156,7.765,7.7969,7.8006,7.8783,7.9052,7.8852,7.8811,7.8926,7.923,7.9197,7.93,7.9511,7.9423,7.9251,7.9125,7.8849,7.8935,7.9276,7.9323,7.9554,8.0092,8.0439,8.0631,8.0669,8.09,8.1131,8.1093,8.1093,8.1093,8.117,8.1631,8.1862,8.1747,8.14,8.1093,8.1093,8.1093,8.117,8.1093,8.1093,8.1093,8.1077,8.1045,8.0888,8.0984,8.1218,8.1472,8.1476,8.1822,8.209,8.2166,8.2166,8.2243,8.2511,8.2664,8.2835,8.3483,8.3703,8.3986,8.4293,8.483,8.5253,8.5598,8.5616,8.5867,8.5867,8.5923,8.594,8.594,8.594,8.5905,8.5887,8.5852,8.5779,8.5742,8.5648,8.5493,7.3888,7.4141,7.4689,7.4897,7.5016,7.5518,7.5642,7.5569,7.6237,7.6193,7.5782,7.6284,7.6322,7.5995,7.6194,7.6632,7.7093,7.7,7.6899,7.6861,7.6553,7.6399,7.6399,7.6399,7.6399,7.6376,7.6121,7.6076,7.6198,7.6338,7.6455,7.6573,7.6743,7.6869,7.696,7.7289,7.75,7.7644,7.8398,7.8826,7.8937,7.9674,8.0135,8.0163,8.0395,8.0395,8.016,8.0076,8.0139,8.0266,8.0217,8.0058,7.9869,7.961,7.9673,8.0077,8.0129,8.036,8.0898,8.1013,8.0975,8.1013,8.1244,8.1398,8.1436,8.1644,8.1814,8.1968,8.2308,8.2708,8.2593,8.2176,8.1869,8.1885,8.19,8.19,8.19,8.1869,8.1875,8.1881,8.1798,8.1601,8.144,8.1824,8.1996,8.1915,8.2467,8.2734,8.2772,8.2772,8.2924,8.3115,8.3133,8.3513,8.3991,8.4322,8.4519,8.4863,8.4996,8.5475,8.5686,8.5704,8.5704,8.5704,8.5742,8.5779,8.5779,8.5779,8.576,8.5723,8.5609,8.5532,8.5491,8.5391,8.5186,7.4118,7.4408,7.5374,7.5689,7.5733,7.6651,7.6875,7.6294,7.6484,7.6229,7.5676,7.5916,7.6071,7.6064,7.6624,7.7169,7.7015,7.6438,7.6207,7.6284,7.6823,7.7092,7.7053,7.703,7.7044,7.7006,7.6461,7.6212,7.6386,7.6432,7.6514,7.6678,7.6754,7.6948,7.7043,7.7885,7.8349,7.8593,7.9256,7.9718,7.9818,8.0558,8.1019,8.1086,8.1708,8.1747,8.1044,8.0926,8.1226,8.1825,8.1836,8.1708,8.1234,8.0993,8.0985,8.0805,8.0783,8.0771,8.0848,8.0924,8.098,8.121,8.1598,8.2037,8.2169,8.2719,8.3154,8.3116,8.3413,8.3577,8.3561,8.3495,8.338,8.35,8.3269,8.3253,8.3368,8.3396,8.3333,8.3093,8.2909,8.2913,8.2776,8.2614,8.2504,8.2368,8.249,8.2642,8.2718,8.2718,8.2831,8.3286,8.3513,8.3779,8.4332,8.4795,8.5062,8.5252,8.5238,8.5413,8.5393,8.5373,8.5373,8.5373,8.5491,8.5531,8.559,8.559,8.5531,8.5491,8.5373,8.5211,8.51,8.4946,8.4741,7.5525,7.5159,7.6165,7.5953,7.5129,7.6145,7.6214,7.5704,7.6329,7.6279,7.5874,7.6424,7.6463,7.6086,7.6308,7.6399,7.6361,7.613,7.6322,7.6746,7.6553,7.6438,7.6452,7.6457,7.6514,7.6531,7.6418,7.6362,7.6477,7.6614,7.6713,7.6823,7.6933,7.7328,7.7924,7.8271,7.8632,7.9334,8.0145,8.0602,8.0673,8.1446,8.1864,8.1886,8.2078,8.2074,8.1863,8.1811,8.1883,8.2033,8.1912,8.1695,8.14,8.1196,8.1023,8.0904,8.0843,8.1099,8.1559,8.1657,8.1887,8.2403,8.2748,8.2901,8.2901,8.3187,8.3397,8.3435,8.3892,8.4293,8.4352,8.4795,8.4544,8.361,8.3444,8.3487,8.3508,8.3361,8.3159,8.2951,8.2834,8.2652,8.2526,8.2612,8.2902,8.276,8.3025,8.3326,8.3402,8.3251,8.3477,8.3816,8.3916,8.3803,8.4067,8.4192,8.4343,8.4633,8.4795,8.499,8.5013,8.5013,8.5013,8.5078,8.5164,8.5287,8.5349,8.5349,8.5266,8.5202,8.5056,8.4878,8.4647,8.4392,8.4192,7.5469,7.5177,7.6202,7.6085,7.5237,7.6324,7.6408,7.5893,7.6438,7.6382,7.5993,7.6394,7.647,7.6053,7.5976,7.5976,7.5976,7.5976,7.6299,7.6698,7.6299,7.6029,7.6072,7.6131,7.6212,7.6288,7.6409,7.6521,7.6614,7.6752,7.6993,7.7362,7.7476,7.796,7.8852,7.9217,7.9687,8.0264,8.1033,8.1488,8.1558,8.1975,8.2234,8.2218,8.2175,8.2201,8.2182,8.245,8.2452,8.2044,8.1842,8.1713,8.1733,8.1638,8.16,8.1738,8.1716,8.1875,8.2335,8.2355,8.2564,8.31,8.3483,8.3675,8.3713,8.3885,8.4189,8.4304,8.4685,8.5031,8.5109,8.534,8.513,8.4212,8.4209,8.4134,8.4021,8.3926,8.3788,8.3659,8.3449,8.315,8.3105,8.3038,8.3273,8.3174,8.3366,8.3675,8.3638,8.36,8.3675,8.3638,8.3563,8.3525,8.36,8.361,8.3555,8.3827,8.4116,8.4343,8.4503,8.4465,8.4489,8.467,8.4787,8.4901,8.499,8.4901,8.4833,8.4764,8.4647,8.438,8.4102,8.3817,8.3573,7.4568,7.4636,7.5771,7.62,7.6052,7.7034,7.7036,7.6591,7.6675,7.6388,7.5995,7.6047,7.6053,7.6015,7.5991,7.5991,7.5991,7.6005,7.6087,7.6192,7.6062,7.6062,7.6145,7.625,7.6338,7.6393,7.6503,7.6623,7.6785,7.6823,7.7293,7.8105,7.8217,7.8796,7.9685,8.0586,8.0853,8.1144,8.1842,8.214,8.2109,8.2148,8.2292,8.2309,8.2343,8.2411,8.2624,8.3109,8.3078,8.2255,8.2096,8.2211,8.2519,8.2409,8.2583,8.3016,8.3065,8.299,8.3047,8.3104,8.3219,8.3448,8.4022,8.4365,8.4442,8.4959,8.5322,8.538,8.5532,8.5628,8.5533,8.5493,8.5276,8.511,8.5047,8.5126,8.5067,8.4888,8.4626,8.4537,8.4489,8.423,8.3864,8.3634,8.3462,8.3301,8.3157,8.3165,8.3135,8.3135,8.3076,8.3076,8.3039,8.301,8.301,8.298,8.292,8.2943,8.3198,8.3462,8.3774,8.3827,8.3907,8.409,8.4243,8.4417,8.4489,8.4367,8.4268,8.4167,8.396,8.3757,8.3443,8.3119,8.2786,7.6482,7.5629,7.7252,7.6903,7.5524,7.6446,7.6517,7.5918,7.6043,7.6079,7.5949,7.597,7.5976,7.5976,7.6034,7.6062,7.6076,7.6118,7.6145,7.6172,7.6212,7.6263,7.6313,7.6362,7.6466,7.6555,7.666,7.6793,7.689,7.6989,7.7489,7.8356,7.8502,7.9218,8.0464,8.0926,8.1339,8.1819,8.2046,8.223,8.221,8.224,8.2499,8.3025,8.3098,8.3393,8.3903,8.4139,8.4107,8.3804,8.3546,8.3386,8.3384,8.3231,8.3184,8.331,8.3199,8.3333,8.383,8.3945,8.4212,8.4785,8.4918,8.5167,8.5167,8.5357,8.549,8.5469,8.5429,8.5308,8.5224,8.51,8.4946,8.4679,8.4894,8.4939,8.4656,8.4599,8.4503,8.4255,8.3971,8.3784,8.3639,8.3347,8.3054,8.2941,8.285,8.2752,8.2721,8.2622,8.256,8.2528,8.2497,8.2434,8.2334,8.2302,8.2238,8.2141,8.2265,8.2386,8.2732,8.2943,8.309,8.3255,8.334,8.3443,8.3618,8.3618,8.3573,8.3368,8.3111,8.2853,8.2517,8.2201,8.1839,7.623,7.5523,7.6721,7.6444,7.5304,7.5944,7.6025,7.5726,7.5817,7.591,7.5955,7.5991,7.6072,7.6072,7.6104,7.6131,7.6145,7.6212,7.625,7.6301,7.637,7.6427,7.645,7.6482,7.6585,7.6704,7.6808,7.6891,7.7038,7.7352,7.8059,7.8937,7.9336,8.019,8.138,8.153,8.1705,8.2105,8.2171,8.2201,8.2177,8.2528,8.2903,8.342,8.3681,8.4273,8.4988,8.5015,8.4825,8.4435,8.4153,8.4041,8.4196,8.4011,8.4031,8.4192,8.4117,8.4289,8.4671,8.4824,8.5015,8.5377,8.5471,8.5451,8.5431,8.5388,8.5304,8.5202,8.5138,8.5006,8.4764,8.4575,8.4481,8.4553,8.4591,8.4466,8.4087,8.405,8.4106,8.3974,8.3676,8.3438,8.3544,8.3065,8.267,8.2476,8.2311,8.2247,8.2182,8.2117,8.2157,8.2201,8.2062,8.1955,8.1785,8.1717,8.1439,8.1299,8.1018,8.1228,8.1605,8.1937,8.2233,8.2355,8.2418,8.2511,8.2597,8.2621,8.2437,8.225,8.2063,8.1769,8.1435,8.0981,8.0623,7.4991,7.4955,7.5285,7.5468,7.5518,7.5621,7.5775,7.5864,7.591,7.597,7.6029,7.6076,7.6104,7.6104,7.6172,7.6212,7.6225,7.6301,7.6386,7.645,7.6565,7.6594,7.6621,7.6669,7.6754,7.6812,7.6944,7.7116,7.7359,7.8026,7.8864,7.9687,8.0543,8.1309,8.1906,8.2092,8.2191,8.2157,8.2187,8.2289,8.2457,8.2953,8.3441,8.4,8.466,8.5182,8.5649,8.5729,8.5434,8.4555,8.4263,8.4561,8.4959,8.4827,8.4937,8.5322,8.5244,8.526,8.5375,8.5317,8.5375,8.5431,8.5408,8.5367,8.5325,8.5241,8.5073,8.4939,8.4939,8.4746,8.4595,8.4127,8.4274,8.4617,8.4525,8.4161,8.3823,8.3685,8.3897,8.4198,8.3534,8.3516,8.354,8.3213,8.2451,8.3001,8.2758,8.2657,8.2589,8.2523,8.2346,8.2204,8.1916,8.152,8.1307,8.1128,8.0731,8.04,7.9911,7.9913,8.0403,8.0768,8.1158,8.1367,8.119,8.1294,8.1498,8.1464,8.1154,8.0909,8.0587,8.0294,7.9994,7.9497,7.9103,7.5605,7.5265,7.6043,7.6091,7.5659,7.5769,7.5864,7.591,7.6029,7.6048,7.609,7.6145,7.6172,7.6185,7.625,7.6301,7.6374,7.6444,7.6542,7.6726,7.6746,7.6812,7.6852,7.6819,7.6839,7.6926,7.6985,7.7377,7.7991,7.8436,7.9176,8.049,8.0868,8.1353,8.2058,8.2166,8.2153,8.2128,8.2117,8.2479,8.2942,8.3318,8.4037,8.5089,8.5935,8.635,8.6422,8.6421,8.6223,8.5962,8.5772,8.5583,8.5604,8.5416,8.5321,8.5375,8.5367,8.5304,8.5283,8.5266,8.5245,8.5245,8.5262,8.5219,8.5094,8.4961,8.4802,8.4575,8.4467,8.4543,8.4656,8.4836,8.4842,8.4879,8.4764,8.4571,8.4289,8.4437,8.4537,8.4428,8.4162,8.4065,8.4175,8.3859,8.347,8.3579,8.3439,8.3333,8.3119,8.2831,8.2541,8.225,8.1886,8.1485,8.1154,8.0672,7.9854,7.9281,7.8759,7.8308,7.8816,7.9068,7.9309,7.9614,7.9913,7.9994,7.9998,7.9806,7.9384,7.9262,7.8988,7.8541,7.8091,7.7744,7.7232,7.5646,7.5501,7.6008,7.6049,7.5817,7.591,7.5985,7.6058,7.6104,7.6145,7.6159,7.6212,7.6263,7.6301,7.6362,7.6444,7.6503,7.6604,7.673,7.6851,7.6903,7.6941,7.7007,7.6989,7.6989,7.7101,7.7512,7.7961,7.8437,7.9172,8.0051,8.0888,8.1258,8.1698,8.2084,8.2156,8.2089,8.2163,8.2454,8.2847,8.3206,8.4068,8.4881,8.5991,8.6602,8.6738,8.652,8.6467,8.6327,8.6184,8.6055,8.5971,8.5887,8.5648,8.5471,8.5408,8.5283,8.5219,8.5219,8.5198,8.5198,8.5094,8.5051,8.4916,8.4741,8.4599,8.4582,8.4553,8.4567,8.4601,8.4837,8.4754,8.4874,8.515,8.5021,8.4891,8.4933,8.4845,8.4789,8.4627,8.4308,8.4313,8.4279,8.4064,8.3702,8.3375,8.3044,8.2932,8.2785,8.2562,8.2555,8.2293,8.1881,8.1466,8.1124,8.0293,7.8967,7.8256,7.7493,7.6961,7.6768,7.7002,7.7188,7.7615,7.8084,7.8077,7.8049,7.7822,7.7485,7.7188,7.6799,7.6428,7.6015,7.5432,7.4825,7.5549,7.5666,7.5708,7.5872,7.5991,7.6058,7.6115,7.6172,7.6212,7.6225,7.6238,7.6301,7.6374,7.6444,7.6488,7.6545,7.6669,7.6762,7.6903,7.6975,7.7012,7.7026,7.7057,7.7062,7.7103,7.7184,7.789,7.8397,7.9008,8.0035,8.079,8.1195,8.1763,8.2028,8.2059,8.2078,8.2168,8.2334,8.2751,8.3376,8.3776,8.4825,8.5723,8.6374,8.6582,8.648,8.6268,8.6161,8.6104,8.5887,8.5685,8.5628,8.559,8.5513,8.5411,8.5325,8.5176,8.5089,8.5066,8.5066,8.4984,8.4916,8.4764,8.4551,8.4331,8.429,8.44,8.4554,8.4637,8.4855,8.494,8.4948,8.4966,8.5189,8.5155,8.5187,8.5328,8.4828,8.4682,8.49,8.4608,8.4459,8.4348,8.4159,8.3648,8.3207,8.29,8.2588,8.2509,8.246,8.2476,8.2194,8.1796,8.0688,8.0185,7.9643,7.8314,7.7342,7.6522,7.5788,7.5203,7.5105,7.5368,7.5837,7.6187,7.6015,7.5748,7.5337,7.5051,7.4877,7.4404,7.3874,7.3419,7.299,7.2331,7.5715,7.5917,7.5932,7.6034,7.6145,7.6159,7.6172,7.6198,7.6263,7.6313,7.6374,7.6432,7.6482,7.6555,7.6585,7.663,7.6762,7.6888,7.6969,7.7014,7.7039,7.7104,7.7109,7.7066,7.7099,7.7323,7.8022,7.8796,7.9444,8.0427,8.1241,8.1789,8.2005,8.2033,8.1952,8.1951,8.2314,8.2699,8.3115,8.3811,8.4688,8.525,8.572,8.6293,8.6341,8.6161,8.5954,8.5849,8.5741,8.5453,8.5355,8.5291,8.5164,8.5116,8.5073,8.5028,8.4871,8.4793,8.4793,8.4675,8.4516,8.4356,8.4281,8.4114,8.3971,8.4134,8.4227,8.4336,8.4706,8.507,8.4862,8.5046,8.5292,8.5317,8.5126,8.4967,8.4725,8.447,8.4338,8.4557,8.4482,8.445,8.4223,8.4027,8.3723,8.3381,8.3176,8.2877,8.2701,8.2635,8.2629,8.2225,8.1659,8.0339,7.9037,7.8484,7.7585,7.6625,7.577,7.4878,7.4256,7.3637,7.363,7.3343,7.3412,7.3383,7.3042,7.2698,7.2181,7.1692,7.1413,7.1073,7.037,6.9691,6.921,7.5917,7.6129,7.609,7.6159,7.6238,7.625,7.6276,7.6313,7.6374,7.6421,7.6466,7.6542,7.6585,7.6651,7.6674,7.6769,7.69,7.6993,7.7076,7.7055,7.7068,7.7107,7.7089,7.7073,7.7362,7.7836,7.8516,7.9096,7.9725,8.0898,8.1539,8.1842,8.1983,8.192,8.1922,8.2233,8.252,8.2975,8.3616,8.4327,8.5175,8.5453,8.5899,8.595,8.6022,8.5849,8.5513,8.5415,8.5294,8.5062,8.499,8.4901,8.4787,8.467,8.4647,8.4732,8.4565,8.4418,8.4393,8.4268,8.4061,8.3892,8.372,8.3667,8.3655,8.3769,8.3945,8.4264,8.4682,8.5108,8.4843,8.5009,8.4952,8.4742,8.4579,8.4296,8.4045,8.3791,8.367,8.3748,8.3861,8.3839,8.3903,8.3734,8.367,8.3532,8.3358,8.297,8.2565,8.2211,8.1932,8.1207,8.0418,7.9241,7.785,7.7137,7.6274,7.5417,7.4471,7.3635,7.2538,7.1516,7.0581,6.9874,7.0058,7.0255,7.0192,6.9759,6.9126,6.8517,6.8137,6.7664,6.7005,6.6427,6.5751,7.6104,7.6212,7.6212,7.6263,7.6313,7.6338,7.6374,7.6421,7.6488,7.6531,7.6553,7.6614,7.6696,7.6762,7.6819,7.6916,7.7,7.7093,7.7107,7.7109,7.706,7.7073,7.7039,7.7116,7.7345,7.8084,7.8854,7.9501,8.0078,8.1165,8.1765,8.186,8.1842,8.1863,8.1956,8.2414,8.269,8.3431,8.4126,8.4843,8.517,8.5625,8.5887,8.5685,8.5647,8.5473,8.5062,8.4997,8.4946,8.4764,8.4623,8.4503,8.4454,8.423,8.4179,8.4281,8.4179,8.4102,8.3998,8.3757,8.3508,8.3281,8.3158,8.3232,8.3304,8.3352,8.3592,8.427,8.4565,8.4635,8.4319,8.4261,8.4045,8.3791,8.3532,8.3314,8.297,8.2656,8.2291,8.2474,8.2916,8.2926,8.2711,8.2791,8.252,8.2153,8.1967,8.1651,8.1222,8.0736,8.0306,7.9617,7.8831,7.7808,7.6671,7.5705,7.4644,7.3475,7.2439,7.1475,7.0213,6.8989,6.7988,6.6948,6.6497,6.6642,6.6737,6.6632,6.6004,6.5373,6.4787,6.4102,6.337,6.2502,6.1747,7.6212,7.6288,7.6288,7.6326,7.6397,7.6444,7.6466,7.6488,7.6555,7.6623,7.666,7.6762,7.6837,7.6927,7.7032,7.7076,7.7099,7.707,7.706,7.7048,7.7011,7.6956,7.69,7.6839,7.7361,7.8115,7.8845,7.9678,8.0422,8.1339,8.1669,8.1646,8.1608,8.1773,8.2196,8.2501,8.3186,8.4121,8.4485,8.4859,8.5265,8.5456,8.5375,8.5232,8.5148,8.4997,8.4694,8.4623,8.4551,8.4492,8.4343,8.4179,8.405,8.3811,8.3657,8.3602,8.3602,8.3685,8.3602,8.3223,8.2911,8.2744,8.2789,8.28,8.2722,8.3032,8.3455,8.3845,8.3833,8.3576,8.3314,8.3094,8.2871,8.252,8.2164,8.1839,8.1543,8.1187,8.0883,8.0588,8.0814,8.1043,8.1077,8.1256,8.1338,8.0951,8.0523,8.0224,7.9735,7.9083,7.8365,7.7632,7.6707,7.5731,7.4707,7.3819,7.255,7.1378,7.0243,6.9145,6.7812,6.6525,6.525,6.4359,6.3706,6.3054,6.3115,6.2948,6.2577,6.1904,6.111,6.0357,5.959,5.8727,5.7707,7.6362,7.6362,7.6397,7.6421,7.6455,7.651,7.6553,7.6565,7.6651,7.6721,7.6786,7.6852,7.698,7.7053,7.71,7.7109,7.7108,7.7044,7.7011,7.6981,7.6916,7.6833,7.6716,7.6752,7.7176,7.8191,7.8843,7.9623,8.0534,8.1139,8.1424,8.135,8.1244,8.146,8.2188,8.2544,8.3177,8.3906,8.4352,8.4638,8.4832,8.484,8.4772,8.4609,8.4609,8.4417,8.4255,8.4153,8.4076,8.3982,8.3849,8.374,8.3536,8.3281,8.2987,8.2927,8.2622,8.2647,8.2897,8.2465,8.23,8.2228,8.2248,8.1952,8.2072,8.2607,8.2865,8.2586,8.252,8.2291,8.192,8.1638,8.1366,8.1029,8.0603,8.0206,7.9905,7.9633,7.9324,7.9012,7.8664,7.8841,7.905,7.9361,7.9412,7.9291,7.8822,7.8418,7.7773,7.6893,7.616,7.5353,7.4407,7.3473,7.2397,7.1395,6.9962,6.8752,6.7515,6.6408,6.5276,6.402,6.2459,6.11,6.0043,5.9662,5.9457,5.9418,5.932,5.8353,5.7217,5.6423,5.5558,5.445,5.3435,7.6488,7.6477,7.6499,7.651,7.6531,7.6594,7.6652,7.6678,7.6778,7.6837,7.6864,7.6965,7.7039,7.7067,7.7067,7.7052,7.7037,7.6973,7.6916,7.6852,7.6731,7.6626,7.6507,7.6521,7.7055,7.84,7.8363,7.9092,8.003,8.0645,8.083,8.0985,8.0773,8.1221,8.1843,8.2375,8.297,8.3817,8.4087,8.4218,8.4218,8.4192,8.4116,8.4012,8.3934,8.3854,8.3675,8.362,8.3564,8.3461,8.3289,8.3135,8.2957,8.2523,8.2206,8.2043,8.1644,8.1403,8.1683,8.1658,8.1742,8.1705,8.1663,8.1449,8.1813,8.2332,8.2084,8.1187,8.0897,8.0603,8.0206,7.9854,7.9515,7.9206,7.8893,7.8471,7.8044,7.7665,7.7303,7.7027,7.6669,7.6363,7.6669,7.717,7.7391,7.7533,7.7203,7.6613,7.5669,7.4529,7.3718,7.283,7.1926,7.0813,6.9516,6.8479,6.7215,6.5838,6.4632,6.3158,6.1756,6.0505,5.9079,5.7756,5.6542,5.5315,5.4597,5.5295,5.5916,5.4801,5.3662,5.2432,5.1409,5.0311,4.916,7.6594,7.6594,7.6594,7.6604,7.6614,7.666,7.673,7.6777,7.6915,7.697,7.6981,7.7046,7.707,7.7061,7.7026,7.6942,7.6897,7.6846,7.6754,7.6626,7.6565,7.6372,7.6222,7.6224,7.6472,7.7332,7.7718,7.8346,7.9019,7.9736,8.0048,8.0373,8.0124,8.0988,8.1745,8.2202,8.2796,8.3449,8.3672,8.3573,8.3517,8.349,8.3434,8.3387,8.333,8.3272,8.3165,8.3106,8.3017,8.2867,8.2616,8.2397,8.2109,8.1644,8.1336,8.0983,8.0512,8.025,8.0316,8.09,8.1177,8.0967,8.0821,8.0881,8.0953,8.055,8.014,7.9566,7.9102,7.8683,7.8205,7.7861,7.7468,7.705,7.6627,7.6152,7.5752,7.5464,7.5147,7.4944,7.4529,7.3959,7.3504,7.3894,7.4907,7.5115,7.4554,7.3957,7.2861,7.18,7.1036,7.0224,6.9273,6.8035,6.6425,6.5115,6.384,6.2323,6.0857,5.9335,5.7756,5.6542,5.5503,5.4082,5.2712,5.1238,5.0061,5.0743,5.118,5.0802,4.9968,4.8759,4.7129,4.5637,4.464,7.676,7.6778,7.6793,7.6778,7.6707,7.6786,7.6865,7.6911,7.6969,7.7034,7.7067,7.7064,7.7037,7.7,7.6926,7.6858,7.6752,7.6609,7.6477,7.6339,7.6197,7.6002,7.5817,7.5824,7.6157,7.6903,7.7356,7.7981,7.895,7.8935,7.8902,7.9075,7.9194,8.0249,8.1107,8.2035,8.2706,8.2814,8.292,8.2769,8.2678,8.261,8.2616,8.2585,8.2554,8.246,8.2334,8.2302,8.2206,8.2043,8.1742,8.1437,8.1088,8.0586,8.0141,7.9798,7.9285,7.9052,7.915,7.9864,8.0358,8.0185,8.0062,7.9901,7.9532,7.8788,7.8044,7.7501,7.7004,7.6524,7.5695,7.538,7.5029,7.4644,7.4137,7.3626,7.3168,7.2799,7.2334,7.1865,7.161,7.1194,7.0744,7.042,7.164,7.2613,7.1924,7.1194,6.9999,6.8882,6.8007,6.7021,6.6048,6.4819,6.3185,6.1808,6.048,5.8768,5.7073,5.5617,5.4082,5.3004,5.1844,5.0441,4.9043,4.7672,4.6808,4.6568,4.6583,4.6861,4.6245,4.5085,4.3291,4.1358,4.05,7.6865,7.6915,7.6916,7.69,7.6852,7.6927,7.6985,7.7004,7.7041,7.7031,7.7078,7.6989,7.6936,7.6882,7.6762,7.6648,7.6507,7.6339,7.616,7.5988,7.5802,7.5551,7.533,7.5265,7.5491,7.6387,7.6737,7.719,7.7935,7.8014,7.7849,7.7743,7.794,7.8821,8.0542,8.1686,8.2302,8.2178,8.1945,8.1779,8.161,8.161,8.1574,8.154,8.1472,8.1367,8.1228,8.1158,8.0946,8.0732,8.0513,8.0143,7.9724,7.9254,7.877,7.8343,7.8006,7.7817,7.8006,7.8866,7.9408,7.9288,7.8839,7.8266,7.7446,7.6725,7.5842,7.4998,7.4617,7.408,7.3015,7.2489,7.2052,7.1516,7.101,7.0525,7.007,6.9647,6.9214,6.8748,6.8374,6.7939,6.7296,6.6883,6.758,6.8564,6.845,6.7706,6.6814,6.5767,6.4775,6.3695,6.2598,6.1259,5.9871,5.8356,5.6763,5.4927,5.3347,5.2005,5.063,4.951,4.8057,4.6461,4.5152,4.4132,4.3334,4.2603,4.2889,4.3423,4.2329,4.1052,3.96,3.7891,3.6946,7.6941,7.7008,7.7007,7.7004,7.6977,7.7007,7.7037,7.7061,7.707,7.7046,7.6965,7.6838,7.6752,7.666,7.6487,7.6339,7.6146,7.5975,7.5741,7.5535,7.5292,7.5132,7.4841,7.4703,7.4899,7.5071,7.5589,7.6125,7.6508,7.6766,7.6651,7.6339,7.642,7.7274,7.9526,8.0774,8.1195,8.1019,8.0804,8.0586,8.0438,8.0365,8.0328,8.0291,8.0105,7.9956,7.9768,7.9652,7.938,7.9023,7.8862,7.8453,7.7701,7.7267,7.6802,7.6358,7.6231,7.6068,7.5973,7.7781,7.8047,7.7828,7.7238,7.6266,7.5528,7.4589,7.3382,7.2334,7.1926,7.1066,7.0224,6.9369,6.8873,6.8171,6.7667,6.7158,6.6675,6.623,6.5739,6.5245,6.4846,6.4444,6.3722,6.3285,6.3641,6.4146,6.4444,6.4039,6.3285,6.2376,6.1259,6.0074,5.8873,5.7423,5.6049,5.465,5.3064,5.1114,4.9574,4.8253,4.6942,4.5677,4.4114,4.2532,4.1456,4.0537,3.9482,3.8418,3.8661,3.8745,3.8014,3.6827,3.5525,3.461,3.3751,7.7026,7.7081,7.706,7.7066,7.7068,7.7026,7.7069,7.7066,7.6981,7.6887,7.6773,7.6652,7.6536,7.6405,7.6222,7.6002,7.5748,7.5408,7.5167,7.5,7.4723,7.4347,7.4122,7.4188,7.4439,7.4857,7.5235,7.5505,7.6069,7.5819,7.5405,7.5081,7.5266,7.6458,7.7988,7.9207,7.9798,7.9682,7.9373,7.9134,7.9054,7.8898,7.8776,7.874,7.8459,7.821,7.7887,7.776,7.7416,7.6888,7.671,7.6165,7.5466,7.4974,7.4671,7.4319,7.4189,7.403,7.3755,7.4327,7.4901,7.4956,7.4758,7.3624,7.252,7.1325,7.0325,6.9376,6.8585,6.7627,6.6621,6.6006,6.5372,6.4417,6.384,6.3404,6.2965,6.2598,6.208,6.1484,6.1085,6.01,5.9258,5.831,5.8467,5.8698,5.8852,5.9515,5.9105,5.8433,5.7599,5.6287,5.495,5.357,5.2193,5.0755,4.9321,4.7566,4.6026,4.4624,4.3227,4.1888,4.0537,3.9192,3.8111,3.7022,3.6004,3.4981,3.4233,3.3809,3.36,3.3755,3.3343,3.2242,3.0952,7.7105,7.7108,7.7107,7.7096,7.7044,7.7016,7.7009,7.6997,7.6876,7.6747,7.6612,7.6394,7.6222,7.6018,7.5808,7.56,7.5313,7.4942,7.4544,7.4385,7.3954,7.369,7.3612,7.3655,7.3896,7.4347,7.448,7.4685,7.4904,7.4494,7.3881,7.3555,7.404,7.4567,7.5854,7.7006,7.8238,7.8069,7.7771,7.7476,7.7301,7.7046,7.6834,7.662,7.6348,7.6027,7.5667,7.5303,7.5017,7.4386,7.3941,7.3488,7.2854,7.2485,7.2185,7.18,7.1499,7.1213,7.0766,7.0149,7.0449,7.032,7.0757,7.0366,6.9148,6.7978,6.6814,6.5838,6.4918,6.384,6.2818,6.2302,6.1282,6.0252,5.954,5.9156,5.8514,5.8048,5.7736,5.7158,5.655,5.5513,5.4546,5.3547,5.2884,5.307,5.3152,5.3851,5.4604,5.414,5.3488,5.2254,5.0922,4.9384,4.8041,4.6769,4.5395,4.3937,4.2514,4.0988,3.9721,3.8461,3.7099,3.5911,3.4887,3.3844,3.2622,3.1691,3.1028,3.0527,3.0114,3.0395,3.0849,2.9913,2.8544,7.7024,7.7055,7.7073,7.7078,7.7012,7.6934,7.6872,7.6769,7.6674,7.6585,7.6377,7.6083,7.5846,7.5545,7.5313,7.4981,7.4702,7.4341,7.4029,7.3604,7.3289,7.3165,7.3081,7.2962,7.3272,7.3547,7.3611,7.3399,7.3372,7.2645,7.1919,7.1514,7.1854,7.2203,7.3158,7.4356,7.573,7.5934,7.5816,7.5405,7.4988,7.4795,7.4337,7.404,7.364,7.3149,7.2704,7.2306,7.1724,7.1272,7.0891,7.0203,6.9776,6.9697,6.9146,6.8635,6.8284,6.7654,6.6839,6.62,6.4981,6.4615,6.5516,6.5936,6.5571,6.4218,6.2958,6.1927,6.0881,5.9744,5.8719,5.7683,5.6636,5.5786,5.4903,5.4338,5.3583,5.3115,5.2787,5.2314,5.1673,5.0755,4.9554,4.8555,4.7788,4.7187,4.7299,4.745,4.824,4.9533,4.8769,4.8106,4.6682,4.5152,4.3848,4.2764,4.1493,4.0158,3.8885,3.7436,3.6174,3.5059,3.375,3.2622,3.1786,3.0661,2.9409,2.8548,2.7984,2.7468,2.7049,2.7665,2.8364,2.7481,2.6237,7.6175,7.6236,7.6786,7.7009,7.6903,7.6676,7.6555,7.6477,7.6372,7.6197,7.5933,7.5726,7.5434,7.5113,7.4804,7.4369,7.3902,7.3528,7.3394,7.3108,7.2698,7.269,7.2674,7.2656,7.2713,7.2563,7.2458,7.2069,7.1513,7.0771,6.9863,6.9382,6.9432,6.951,6.9982,7.0797,7.2246,7.3302,7.3164,7.2887,7.2331,7.2013,7.1499,7.0923,7.0537,6.9947,6.9205,6.8741,6.8074,6.7334,6.6974,6.6425,6.6021,6.5909,6.5592,6.4996,6.4317,6.3416,6.2385,6.1051,5.9668,5.8263,5.8188,5.9287,5.9769,5.9617,5.8387,5.7453,5.6223,5.4891,5.384,5.2802,5.173,5.0731,5.0081,4.9491,4.8813,4.8387,4.8045,4.7359,4.6709,4.5929,4.4743,4.3844,4.301,4.1996,4.1458,4.1495,4.221,4.3542,4.4285,4.3597,4.2442,4.0954,3.9886,3.8794,3.7636,3.6359,3.5152,3.4017,3.2891,3.1678,3.0458,2.9409,2.8452,2.7395,2.6152,2.5475,2.499,2.4515,2.4192,2.4992,2.5505,2.4753,2.4122,7.5413,7.5767,7.6192,7.6487,7.6573,7.6316,7.6109,7.5884,7.5922,7.5802,7.5485,7.5167,7.4825,7.4353,7.3972,7.3541,7.2976,7.2888,7.2698,7.2295,7.2143,7.205,7.2094,7.1931,7.1635,7.1422,7.1002,7.0522,6.9628,6.8421,6.7401,6.7125,6.7007,6.6933,6.7119,6.7372,6.7989,6.9194,6.9841,6.9816,6.9418,6.8842,6.8168,6.7485,6.7095,6.6306,6.5287,6.4789,6.4121,6.3269,6.2774,6.2315,6.1808,6.1403,6.1078,6.0253,5.9338,5.8266,5.7018,5.5573,5.4153,5.263,5.1083,5.1079,5.2317,5.2808,5.263,5.2286,5.1043,4.9807,4.8918,4.7915,4.6709,4.5599,4.5163,4.4636,4.4197,4.3755,4.3136,4.2335,4.1638,4.0936,4.005,3.9159,3.8229,3.7296,3.636,3.5867,3.6774,3.8347,3.9183,3.9217,3.803,3.6775,3.5788,3.4951,3.3815,3.2797,3.1665,3.0527,2.9504,2.8548,2.7492,2.6249,2.5087,2.4115,2.3336,2.2662,2.2084,2.1692,2.1477,2.1897,2.2365,2.2383,2.1838,7.47,7.5333,7.5439,7.5731,7.6109,7.5904,7.5496,7.5038,7.5254,7.5236,7.4904,7.4519,7.4041,7.3553,7.3161,7.2558,7.2144,7.1997,7.1745,7.1304,7.1277,7.1161,7.0938,7.0565,7.0243,6.9949,6.9361,6.852,6.7419,6.6122,6.508,6.4782,6.4349,6.4122,6.4009,6.3813,6.3998,6.426,6.5415,6.591,6.5967,6.5437,6.4682,6.3723,6.311,6.2427,6.1256,6.0444,5.995,5.9096,5.844,5.7986,5.7097,5.6366,5.583,5.4883,5.3923,5.254,5.1162,4.9743,4.8202,4.6723,4.5309,4.4009,4.4459,4.7027,4.7601,4.6743,4.5464,4.4591,4.3663,4.2601,4.1477,4.0687,4.0236,3.962,3.9076,3.8513,3.7858,3.7141,3.6697,3.599,3.5434,3.4519,3.3744,3.2769,3.1732,3.0786,3.1138,3.2727,3.3758,3.4426,3.3693,3.2661,3.211,3.1178,3.0147,2.911,2.8152,2.7287,2.642,2.5475,2.4525,2.3346,2.2163,2.1486,2.071,2.0021,1.9528,1.9232,1.9002,1.8848,1.9102,1.9493,1.9647,7.337,7.3601,7.4562,7.5272,7.5664,7.5379,7.4943,7.4519,7.4183,7.4139,7.4192,7.3879,7.3379,7.2724,7.2247,7.1629,7.0946,7.0983,7.0756,7.0475,7.0312,7.0144,6.9925,6.931,6.8763,6.8024,6.7279,6.6175,6.4745,6.3524,6.2493,6.1968,6.134,6.0855,6.063,6.031,6.0054,5.9789,5.9857,6.1024,6.1547,6.1296,6.0675,5.9621,5.8788,5.7893,5.6908,5.6317,5.5559,5.4735,5.4133,5.335,5.232,5.1448,5.0515,4.9365,4.8093,4.6551,4.4971,4.357,4.1978,4.0369,3.8795,3.7261,3.7794,4.1049,4.2156,4.0922,3.9949,3.9133,3.8331,3.7265,3.6267,3.5727,3.5264,3.4534,3.3895,3.3225,3.2553,3.2177,3.1719,3.1246,3.0691,3.0026,2.9181,2.8224,2.7083,2.613,2.5722,2.6642,2.8165,2.8833,2.9156,2.8512,2.814,2.7457,2.6505,2.5636,2.4775,2.4008,2.3336,2.2359,2.1281,2.0406,1.9429,1.8936,1.8441,1.765,1.7154,1.7055,1.7041,1.7096,1.6679,1.6904,1.7113,7.2356,7.2728,7.3878,7.4692,7.4978,7.4728,7.4206,7.3688,7.3201,7.2913,7.2832,7.2751,7.2446,7.1745,7.1223,7.0468,6.974,6.998,6.971,6.9399,6.9211,6.9022,6.8634,6.7806,6.6906,6.6026,6.447,6.318,6.188,6.0632,5.9598,5.8974,5.8162,5.7574,5.7286,5.6798,5.6194,5.5697,5.4869,5.5113,5.6345,5.6226,5.6446,5.5528,5.45,5.3531,5.2606,5.1908,5.0951,4.9971,4.9149,4.8067,4.6946,4.5809,4.4622,4.3236,4.1835,4.0455,3.8721,3.717,3.5606,3.3937,3.2537,3.1127,2.9495,3.2291,3.3929,3.3056,3.3364,3.2658,3.247,3.1665,3.0815,3.0165,2.9785,2.9322,2.875,2.8081,2.7602,2.7134,2.6942,2.6953,2.6387,2.6001,2.5141,2.456,2.3238,2.2349,2.1753,2.1263,2.2604,2.3471,2.387,2.4473,2.4484,2.3803,2.2936,2.2065,2.1477,2.0692,2.0004,1.9018,1.8038,1.7848,1.7452,1.6963,1.6268,1.5771,1.5572,1.5671,1.5559,1.5446,1.502,1.4703,1.5041,7.1715,7.2415,7.3378,7.4028,7.4299,7.3995,7.3417,7.2715,7.2255,7.1623,7.1027,7.1219,7.1031,7.0573,6.9884,6.9054,6.8566,6.8508,6.8331,6.7974,6.7978,6.7351,6.6552,6.5835,6.4555,6.3066,6.1438,6.018,5.898,5.7834,5.6812,5.5987,5.5315,5.4745,5.4152,5.3448,5.2658,5.1734,5.0725,4.9585,5.0129,5.1002,5.1715,5.1409,5.0397,4.939,4.8441,4.7501,4.6535,4.5292,4.4148,4.2711,4.132,4.0134,3.8671,3.7261,3.5683,3.4216,3.2644,3.1235,2.9437,2.7746,2.6427,2.497,2.3314,2.3401,2.5131,2.5613,2.5913,2.6823,2.663,2.6353,2.5593,2.5023,2.4733,2.4248,2.3665,2.3189,2.2809,2.2428,2.2526,2.2526,2.2242,2.186,2.1272,2.0692,2.0004,1.9117,1.8418,1.7924,1.8296,1.8781,1.9077,1.9683,2.0692,2.0496,1.9708,1.9421,1.8829,1.7749,1.6963,1.6658,1.636,1.6062,1.5671,1.5373,1.5074,1.4676,1.4476,1.4377,1.4277,1.4259,1.4099,1.3881,1.3452,7.1583,7.2515,7.3037,7.3446,7.3661,7.3212,7.2687,7.1998,7.1223,7.0503,6.9743,6.8984,6.8798,6.9238,6.8569,6.7673,6.6694,6.6779,6.6316,6.582,6.567,6.512,6.4212,6.3063,6.1468,5.9815,5.8292,5.7112,5.6132,5.5158,5.4115,5.3103,5.1992,5.136,5.0619,4.9751,4.8675,4.7727,4.6619,4.5433,4.5453,4.6483,4.7656,4.714,4.6025,4.5171,4.4499,4.3842,4.2889,4.1408,3.9357,3.7671,3.5991,3.4432,3.2845,3.141,2.9842,2.82,2.6681,2.5431,2.3605,2.1847,2.0498,1.902,1.7553,1.6369,1.7334,1.7326,1.8317,2.1085,2.1493,2.1405,2.0836,2.064,2.0247,1.9667,1.8978,1.8888,1.8698,1.8608,1.8608,1.8608,1.8509,1.8023,1.7528,1.6942,1.634,1.5546,1.5155,1.4763,1.4364,1.4564,1.4856,1.5956,1.7253,1.7437,1.6949,1.6658,1.636,1.5565,1.5074,1.4975,1.4775,1.4576,1.4383,1.4183,1.3884,1.3784,1.3584,1.3484,1.3284,1.3173,1.3123,1.304,1.2808]}]]